<?xml version="1.0" encoding="UTF-8" standalone="no" ?>
<gpx xmlns="http://www.topografix.com/GPX/1/1" xmlns:xsi="http://www.w3.org/2001/XMLSchema-instance" xsi:schemaLocation="http://www.topografix.com/GPX/1/1 http://www.topografix.com/GPX/1/1/gpx.xsd" version="1.1" creator="VisuGPX - https://www.visugpx.com">
  <metadata>
    <name>20260519 Roncherolles sur le vivier</name>
    <desc><![CDATA[Circuit au départ du cimetière de Roncherolles sur le Vivier avec passage par Fontaine sous Préaux]]></desc>
  </metadata>
  <trk>
    <name><![CDATA[SityTrail - 20260519 Roncherolles sur le vivier]]></name>
    <trkseg>
      <trkpt lat="49.4645" lon="1.187">
        <ele>153</ele>
        <time>2026-05-19T11:46:02.906Z</time>
      </trkpt>
      <trkpt lat="49.4645" lon="1.18698">
        <ele>153</ele>
        <time>2026-05-19T11:49:06.919Z</time>
      </trkpt>
      <trkpt lat="49.46449" lon="1.18698">
        <ele>153</ele>
        <time>2026-05-19T11:49:10.909Z</time>
      </trkpt>
      <trkpt lat="49.46446" lon="1.18691">
        <ele>153</ele>
        <time>2026-05-19T11:49:15.222Z</time>
      </trkpt>
      <trkpt lat="49.46444" lon="1.18685">
        <ele>153</ele>
        <time>2026-05-19T11:49:19.438Z</time>
      </trkpt>
      <trkpt lat="49.46445" lon="1.18681">
        <ele>153</ele>
        <time>2026-05-19T11:49:23.910Z</time>
      </trkpt>
      <trkpt lat="49.46449" lon="1.18683">
        <ele>153</ele>
        <time>2026-05-19T11:51:51.910Z</time>
      </trkpt>
      <trkpt lat="49.46449" lon="1.18675">
        <ele>153</ele>
        <time>2026-05-19T11:51:56.915Z</time>
      </trkpt>
      <trkpt lat="49.46449" lon="1.1867">
        <ele>153</ele>
        <time>2026-05-19T11:52:01.916Z</time>
      </trkpt>
      <trkpt lat="49.46446" lon="1.18665">
        <ele>153</ele>
        <time>2026-05-19T11:52:06.909Z</time>
      </trkpt>
      <trkpt lat="49.46444" lon="1.18656">
        <ele>153</ele>
        <time>2026-05-19T11:52:11.923Z</time>
      </trkpt>
      <trkpt lat="49.46443" lon="1.18646">
        <ele>152</ele>
        <time>2026-05-19T11:52:16.916Z</time>
      </trkpt>
      <trkpt lat="49.46442" lon="1.1864">
        <ele>152</ele>
        <time>2026-05-19T11:52:20.913Z</time>
      </trkpt>
      <trkpt lat="49.46441" lon="1.1863">
        <ele>152</ele>
        <time>2026-05-19T11:52:25.915Z</time>
      </trkpt>
      <trkpt lat="49.46439" lon="1.1862">
        <ele>152</ele>
        <time>2026-05-19T11:52:30.909Z</time>
      </trkpt>
      <trkpt lat="49.46438" lon="1.18613">
        <ele>152</ele>
        <time>2026-05-19T11:52:35.906Z</time>
      </trkpt>
      <trkpt lat="49.46438" lon="1.18604">
        <ele>152</ele>
        <time>2026-05-19T11:52:40.907Z</time>
      </trkpt>
      <trkpt lat="49.46437" lon="1.18596">
        <ele>153</ele>
        <time>2026-05-19T11:52:45.912Z</time>
      </trkpt>
      <trkpt lat="49.46436" lon="1.18589">
        <ele>153</ele>
        <time>2026-05-19T11:52:49.909Z</time>
      </trkpt>
      <trkpt lat="49.46435" lon="1.18579">
        <ele>153</ele>
        <time>2026-05-19T11:52:54.648Z</time>
      </trkpt>
      <trkpt lat="49.46435" lon="1.18571">
        <ele>153</ele>
        <time>2026-05-19T11:52:58.910Z</time>
      </trkpt>
      <trkpt lat="49.46434" lon="1.18562">
        <ele>153</ele>
        <time>2026-05-19T11:53:03.162Z</time>
      </trkpt>
      <trkpt lat="49.46433" lon="1.18554">
        <ele>153</ele>
        <time>2026-05-19T11:53:07.690Z</time>
      </trkpt>
      <trkpt lat="49.46432" lon="1.18547">
        <ele>153</ele>
        <time>2026-05-19T11:53:11.766Z</time>
      </trkpt>
      <trkpt lat="49.46432" lon="1.18537">
        <ele>154</ele>
        <time>2026-05-19T11:53:16.845Z</time>
      </trkpt>
      <trkpt lat="49.46429" lon="1.18528">
        <ele>153</ele>
        <time>2026-05-19T11:53:21.384Z</time>
      </trkpt>
      <trkpt lat="49.46427" lon="1.18524">
        <ele>153</ele>
        <time>2026-05-19T11:53:25.744Z</time>
      </trkpt>
      <trkpt lat="49.46427" lon="1.18514">
        <ele>153</ele>
        <time>2026-05-19T11:53:30.003Z</time>
      </trkpt>
      <trkpt lat="49.46426" lon="1.18504">
        <ele>153</ele>
        <time>2026-05-19T11:53:34.830Z</time>
      </trkpt>
      <trkpt lat="49.46425" lon="1.18493">
        <ele>153</ele>
        <time>2026-05-19T11:53:39.679Z</time>
      </trkpt>
      <trkpt lat="49.46425" lon="1.18484">
        <ele>154</ele>
        <time>2026-05-19T11:53:44.096Z</time>
      </trkpt>
      <trkpt lat="49.46423" lon="1.18475">
        <ele>154</ele>
        <time>2026-05-19T11:53:48.450Z</time>
      </trkpt>
      <trkpt lat="49.46422" lon="1.18465">
        <ele>154</ele>
        <time>2026-05-19T11:53:52.910Z</time>
      </trkpt>
      <trkpt lat="49.46422" lon="1.18457">
        <ele>155</ele>
        <time>2026-05-19T11:53:57.145Z</time>
      </trkpt>
      <trkpt lat="49.46421" lon="1.18449">
        <ele>155</ele>
        <time>2026-05-19T11:54:01.582Z</time>
      </trkpt>
      <trkpt lat="49.4642" lon="1.18441">
        <ele>155</ele>
        <time>2026-05-19T11:54:06.122Z</time>
      </trkpt>
      <trkpt lat="49.46419" lon="1.18432">
        <ele>155</ele>
        <time>2026-05-19T11:54:10.526Z</time>
      </trkpt>
      <trkpt lat="49.46417" lon="1.18428">
        <ele>155</ele>
        <time>2026-05-19T11:54:14.602Z</time>
      </trkpt>
      <trkpt lat="49.46418" lon="1.18418">
        <ele>155</ele>
        <time>2026-05-19T11:54:18.911Z</time>
      </trkpt>
      <trkpt lat="49.46416" lon="1.18408">
        <ele>155</ele>
        <time>2026-05-19T11:54:23.823Z</time>
      </trkpt>
      <trkpt lat="49.46414" lon="1.18399">
        <ele>155</ele>
        <time>2026-05-19T11:54:28.865Z</time>
      </trkpt>
      <trkpt lat="49.46413" lon="1.18391">
        <ele>155</ele>
        <time>2026-05-19T11:54:32.915Z</time>
      </trkpt>
      <trkpt lat="49.4641" lon="1.18383">
        <ele>155</ele>
        <time>2026-05-19T11:54:37.700Z</time>
      </trkpt>
      <trkpt lat="49.4641" lon="1.18374">
        <ele>155</ele>
        <time>2026-05-19T11:54:42.083Z</time>
      </trkpt>
      <trkpt lat="49.46409" lon="1.18364">
        <ele>155</ele>
        <time>2026-05-19T11:54:46.406Z</time>
      </trkpt>
      <trkpt lat="49.46408" lon="1.1836">
        <ele>155</ele>
        <time>2026-05-19T11:54:50.548Z</time>
      </trkpt>
      <trkpt lat="49.46408" lon="1.18351">
        <ele>155</ele>
        <time>2026-05-19T11:54:55.122Z</time>
      </trkpt>
      <trkpt lat="49.46409" lon="1.18341">
        <ele>155</ele>
        <time>2026-05-19T11:54:59.604Z</time>
      </trkpt>
      <trkpt lat="49.46408" lon="1.18332">
        <ele>155</ele>
        <time>2026-05-19T11:55:03.909Z</time>
      </trkpt>
      <trkpt lat="49.46406" lon="1.18323">
        <ele>155</ele>
        <time>2026-05-19T11:55:08.462Z</time>
      </trkpt>
      <trkpt lat="49.46404" lon="1.18314">
        <ele>155</ele>
        <time>2026-05-19T11:55:12.842Z</time>
      </trkpt>
      <trkpt lat="49.46402" lon="1.18306">
        <ele>153</ele>
        <time>2026-05-19T11:55:17.168Z</time>
      </trkpt>
      <trkpt lat="49.46402" lon="1.18298">
        <ele>153</ele>
        <time>2026-05-19T11:55:21.690Z</time>
      </trkpt>
      <trkpt lat="49.46402" lon="1.18289">
        <ele>153</ele>
        <time>2026-05-19T11:55:26.105Z</time>
      </trkpt>
      <trkpt lat="49.464" lon="1.1828">
        <ele>153</ele>
        <time>2026-05-19T11:55:30.483Z</time>
      </trkpt>
      <trkpt lat="49.46398" lon="1.18272">
        <ele>153</ele>
        <time>2026-05-19T11:55:34.911Z</time>
      </trkpt>
      <trkpt lat="49.46396" lon="1.18263">
        <ele>153</ele>
        <time>2026-05-19T11:55:39.406Z</time>
      </trkpt>
      <trkpt lat="49.46397" lon="1.18255">
        <ele>153</ele>
        <time>2026-05-19T11:55:43.429Z</time>
      </trkpt>
      <trkpt lat="49.46399" lon="1.18247">
        <ele>153</ele>
        <time>2026-05-19T11:55:47.810Z</time>
      </trkpt>
      <trkpt lat="49.464" lon="1.18242">
        <ele>153</ele>
        <time>2026-05-19T11:55:51.908Z</time>
      </trkpt>
      <trkpt lat="49.46399" lon="1.18235">
        <ele>153</ele>
        <time>2026-05-19T11:55:56.005Z</time>
      </trkpt>
      <trkpt lat="49.46398" lon="1.18232">
        <ele>153</ele>
        <time>2026-05-19T11:56:00.777Z</time>
      </trkpt>
      <trkpt lat="49.46397" lon="1.18227">
        <ele>153</ele>
        <time>2026-05-19T11:56:04.916Z</time>
      </trkpt>
      <trkpt lat="49.46394" lon="1.18223">
        <ele>153</ele>
        <time>2026-05-19T11:56:09.265Z</time>
      </trkpt>
      <trkpt lat="49.46393" lon="1.18216">
        <ele>153</ele>
        <time>2026-05-19T11:56:13.243Z</time>
      </trkpt>
      <trkpt lat="49.46393" lon="1.18207">
        <ele>153</ele>
        <time>2026-05-19T11:56:17.918Z</time>
      </trkpt>
      <trkpt lat="49.46394" lon="1.18199">
        <ele>153</ele>
        <time>2026-05-19T11:56:22.081Z</time>
      </trkpt>
      <trkpt lat="49.46394" lon="1.18191">
        <ele>153</ele>
        <time>2026-05-19T11:56:26.623Z</time>
      </trkpt>
      <trkpt lat="49.46394" lon="1.18184">
        <ele>153</ele>
        <time>2026-05-19T11:56:31.225Z</time>
      </trkpt>
      <trkpt lat="49.46393" lon="1.18175">
        <ele>153</ele>
        <time>2026-05-19T11:56:35.767Z</time>
      </trkpt>
      <trkpt lat="49.46393" lon="1.18165">
        <ele>153</ele>
        <time>2026-05-19T11:56:40.265Z</time>
      </trkpt>
      <trkpt lat="49.46393" lon="1.18155">
        <ele>153</ele>
        <time>2026-05-19T11:56:44.722Z</time>
      </trkpt>
      <trkpt lat="49.46394" lon="1.18148">
        <ele>153</ele>
        <time>2026-05-19T11:56:48.689Z</time>
      </trkpt>
      <trkpt lat="49.46395" lon="1.18139">
        <ele>153</ele>
        <time>2026-05-19T11:56:53.245Z</time>
      </trkpt>
      <trkpt lat="49.46397" lon="1.18137">
        <ele>153</ele>
        <time>2026-05-19T11:56:57.322Z</time>
      </trkpt>
      <trkpt lat="49.46401" lon="1.18132">
        <ele>153</ele>
        <time>2026-05-19T11:57:01.527Z</time>
      </trkpt>
      <trkpt lat="49.46401" lon="1.18127">
        <ele>153</ele>
        <time>2026-05-19T11:57:05.800Z</time>
      </trkpt>
      <trkpt lat="49.46401" lon="1.18121">
        <ele>154</ele>
        <time>2026-05-19T11:57:10.247Z</time>
      </trkpt>
      <trkpt lat="49.46401" lon="1.18112">
        <ele>154</ele>
        <time>2026-05-19T11:57:14.287Z</time>
      </trkpt>
      <trkpt lat="49.46402" lon="1.18103">
        <ele>154</ele>
        <time>2026-05-19T11:57:18.863Z</time>
      </trkpt>
      <trkpt lat="49.46402" lon="1.18096">
        <ele>155</ele>
        <time>2026-05-19T11:57:22.909Z</time>
      </trkpt>
      <trkpt lat="49.46402" lon="1.18089">
        <ele>155</ele>
        <time>2026-05-19T11:57:27.060Z</time>
      </trkpt>
      <trkpt lat="49.46403" lon="1.1808">
        <ele>155</ele>
        <time>2026-05-19T11:57:31.657Z</time>
      </trkpt>
      <trkpt lat="49.46401" lon="1.18059">
        <ele>155</ele>
        <time>2026-05-19T11:57:48.908Z</time>
      </trkpt>
      <trkpt lat="49.46402" lon="1.18058">
        <ele>155</ele>
        <time>2026-05-19T11:57:53.903Z</time>
      </trkpt>
      <trkpt lat="49.46402" lon="1.18058">
        <ele>155</ele>
        <time>2026-05-19T11:57:58.366Z</time>
      </trkpt>
      <trkpt lat="49.46485" lon="1.18077">
        <ele>157</ele>
        <time>2026-05-19T11:58:02.662Z</time>
      </trkpt>
      <trkpt lat="49.46568" lon="1.18098">
        <ele>161</ele>
        <time>2026-05-19T11:58:07.211Z</time>
      </trkpt>
      <trkpt lat="49.46645" lon="1.18106">
        <ele>161</ele>
        <time>2026-05-19T11:58:11.623Z</time>
      </trkpt>
      <trkpt lat="49.46719" lon="1.181">
        <ele>162</ele>
        <time>2026-05-19T11:58:15.905Z</time>
      </trkpt>
      <trkpt lat="49.46706" lon="1.17986">
        <ele>158</ele>
        <time>2026-05-19T11:58:19.914Z</time>
      </trkpt>
      <trkpt lat="49.46702" lon="1.1785">
        <ele>156</ele>
        <time>2026-05-19T11:58:23.913Z</time>
      </trkpt>
      <trkpt lat="49.46709" lon="1.17728">
        <ele>153</ele>
        <time>2026-05-19T11:58:28.543Z</time>
      </trkpt>
      <trkpt lat="49.46721" lon="1.17604">
        <ele>149</ele>
        <time>2026-05-19T11:58:32.579Z</time>
      </trkpt>
      <trkpt lat="49.46724" lon="1.17599">
        <ele>149</ele>
        <time>2026-05-19T11:58:37.151Z</time>
      </trkpt>
      <trkpt lat="49.46725" lon="1.17593">
        <ele>149</ele>
        <time>2026-05-19T11:58:41.532Z</time>
      </trkpt>
      <trkpt lat="49.46729" lon="1.17584">
        <ele>149</ele>
        <time>2026-05-19T11:58:45.928Z</time>
      </trkpt>
      <trkpt lat="49.46733" lon="1.17578">
        <ele>149</ele>
        <time>2026-05-19T11:58:49.916Z</time>
      </trkpt>
      <trkpt lat="49.46736" lon="1.1757">
        <ele>149</ele>
        <time>2026-05-19T11:58:54.866Z</time>
      </trkpt>
      <trkpt lat="49.46737" lon="1.17563">
        <ele>150</ele>
        <time>2026-05-19T11:58:59.819Z</time>
      </trkpt>
      <trkpt lat="49.46739" lon="1.17557">
        <ele>150</ele>
        <time>2026-05-19T11:59:04.232Z</time>
      </trkpt>
      <trkpt lat="49.4674" lon="1.1755">
        <ele>150</ele>
        <time>2026-05-19T11:59:08.570Z</time>
      </trkpt>
      <trkpt lat="49.46741" lon="1.17543">
        <ele>150</ele>
        <time>2026-05-19T11:59:13.061Z</time>
      </trkpt>
      <trkpt lat="49.46742" lon="1.17535">
        <ele>150</ele>
        <time>2026-05-19T11:59:17.561Z</time>
      </trkpt>
      <trkpt lat="49.46744" lon="1.17527">
        <ele>150</ele>
        <time>2026-05-19T11:59:22.122Z</time>
      </trkpt>
      <trkpt lat="49.46747" lon="1.17518">
        <ele>150</ele>
        <time>2026-05-19T11:59:26.797Z</time>
      </trkpt>
      <trkpt lat="49.46749" lon="1.17511">
        <ele>149</ele>
        <time>2026-05-19T11:59:30.923Z</time>
      </trkpt>
      <trkpt lat="49.46751" lon="1.17503">
        <ele>149</ele>
        <time>2026-05-19T11:59:35.450Z</time>
      </trkpt>
      <trkpt lat="49.46753" lon="1.17495">
        <ele>149</ele>
        <time>2026-05-19T11:59:39.843Z</time>
      </trkpt>
      <trkpt lat="49.46755" lon="1.17487">
        <ele>149</ele>
        <time>2026-05-19T11:59:44.317Z</time>
      </trkpt>
      <trkpt lat="49.46757" lon="1.17479">
        <ele>147</ele>
        <time>2026-05-19T11:59:48.736Z</time>
      </trkpt>
      <trkpt lat="49.46758" lon="1.17471">
        <ele>147</ele>
        <time>2026-05-19T11:59:53.086Z</time>
      </trkpt>
      <trkpt lat="49.46761" lon="1.17464">
        <ele>147</ele>
        <time>2026-05-19T11:59:57.485Z</time>
      </trkpt>
      <trkpt lat="49.46762" lon="1.17461">
        <ele>147</ele>
        <time>2026-05-19T12:00:01.660Z</time>
      </trkpt>
      <trkpt lat="49.46761" lon="1.17453">
        <ele>146</ele>
        <time>2026-05-19T12:00:05.766Z</time>
      </trkpt>
      <trkpt lat="49.46764" lon="1.17446">
        <ele>146</ele>
        <time>2026-05-19T12:00:09.961Z</time>
      </trkpt>
      <trkpt lat="49.46766" lon="1.17439">
        <ele>146</ele>
        <time>2026-05-19T12:00:14.339Z</time>
      </trkpt>
      <trkpt lat="49.46767" lon="1.1744">
        <ele>146</ele>
        <time>2026-05-19T12:00:18.733Z</time>
      </trkpt>
      <trkpt lat="49.46767" lon="1.17438">
        <ele>146</ele>
        <time>2026-05-19T12:00:23.167Z</time>
      </trkpt>
      <trkpt lat="49.46771" lon="1.1743">
        <ele>145</ele>
        <time>2026-05-19T12:00:27.624Z</time>
      </trkpt>
      <trkpt lat="49.4677" lon="1.17427">
        <ele>145</ele>
        <time>2026-05-19T12:00:32.104Z</time>
      </trkpt>
      <trkpt lat="49.46772" lon="1.17423">
        <ele>145</ele>
        <time>2026-05-19T12:00:36.645Z</time>
      </trkpt>
      <trkpt lat="49.46776" lon="1.17414">
        <ele>145</ele>
        <time>2026-05-19T12:00:41.082Z</time>
      </trkpt>
      <trkpt lat="49.46778" lon="1.17406">
        <ele>145</ele>
        <time>2026-05-19T12:00:45.516Z</time>
      </trkpt>
      <trkpt lat="49.4678" lon="1.17397">
        <ele>144</ele>
        <time>2026-05-19T12:00:49.915Z</time>
      </trkpt>
      <trkpt lat="49.4678" lon="1.1739">
        <ele>144</ele>
        <time>2026-05-19T12:00:54.911Z</time>
      </trkpt>
      <trkpt lat="49.46784" lon="1.17382">
        <ele>144</ele>
        <time>2026-05-19T12:00:59.450Z</time>
      </trkpt>
      <trkpt lat="49.46785" lon="1.17373">
        <ele>143</ele>
        <time>2026-05-19T12:01:03.843Z</time>
      </trkpt>
      <trkpt lat="49.46785" lon="1.17364">
        <ele>143</ele>
        <time>2026-05-19T12:01:08.341Z</time>
      </trkpt>
      <trkpt lat="49.46784" lon="1.17361">
        <ele>143</ele>
        <time>2026-05-19T12:01:12.385Z</time>
      </trkpt>
      <trkpt lat="49.46786" lon="1.17352">
        <ele>143</ele>
        <time>2026-05-19T12:01:16.291Z</time>
      </trkpt>
      <trkpt lat="49.46785" lon="1.17345">
        <ele>143</ele>
        <time>2026-05-19T12:01:20.765Z</time>
      </trkpt>
      <trkpt lat="49.46783" lon="1.17338">
        <ele>143</ele>
        <time>2026-05-19T12:01:24.906Z</time>
      </trkpt>
      <trkpt lat="49.46781" lon="1.17329">
        <ele>143</ele>
        <time>2026-05-19T12:01:29.269Z</time>
      </trkpt>
      <trkpt lat="49.46778" lon="1.17321">
        <ele>143</ele>
        <time>2026-05-19T12:01:33.649Z</time>
      </trkpt>
      <trkpt lat="49.46777" lon="1.17315">
        <ele>142</ele>
        <time>2026-05-19T12:01:38.081Z</time>
      </trkpt>
      <trkpt lat="49.46774" lon="1.17308">
        <ele>142</ele>
        <time>2026-05-19T12:01:42.556Z</time>
      </trkpt>
      <trkpt lat="49.46772" lon="1.17301">
        <ele>142</ele>
        <time>2026-05-19T12:01:46.909Z</time>
      </trkpt>
      <trkpt lat="49.46768" lon="1.17295">
        <ele>142</ele>
        <time>2026-05-19T12:01:51.233Z</time>
      </trkpt>
      <trkpt lat="49.46765" lon="1.17289">
        <ele>142</ele>
        <time>2026-05-19T12:01:55.645Z</time>
      </trkpt>
      <trkpt lat="49.46762" lon="1.17283">
        <ele>140</ele>
        <time>2026-05-19T12:01:59.702Z</time>
      </trkpt>
      <trkpt lat="49.4676" lon="1.17275">
        <ele>140</ele>
        <time>2026-05-19T12:02:04.309Z</time>
      </trkpt>
      <trkpt lat="49.46757" lon="1.17268">
        <ele>140</ele>
        <time>2026-05-19T12:02:08.682Z</time>
      </trkpt>
      <trkpt lat="49.46752" lon="1.17263">
        <ele>139</ele>
        <time>2026-05-19T12:02:12.914Z</time>
      </trkpt>
      <trkpt lat="49.46748" lon="1.17259">
        <ele>139</ele>
        <time>2026-05-19T12:02:17.904Z</time>
      </trkpt>
      <trkpt lat="49.46744" lon="1.17255">
        <ele>139</ele>
        <time>2026-05-19T12:02:22.263Z</time>
      </trkpt>
      <trkpt lat="49.4674" lon="1.17248">
        <ele>139</ele>
        <time>2026-05-19T12:02:26.481Z</time>
      </trkpt>
      <trkpt lat="49.46736" lon="1.17242">
        <ele>139</ele>
        <time>2026-05-19T12:02:30.914Z</time>
      </trkpt>
      <trkpt lat="49.46732" lon="1.1724">
        <ele>137</ele>
        <time>2026-05-19T12:02:35.079Z</time>
      </trkpt>
      <trkpt lat="49.4673" lon="1.17238">
        <ele>137</ele>
        <time>2026-05-19T12:02:39.650Z</time>
      </trkpt>
      <trkpt lat="49.46729" lon="1.17235">
        <ele>136</ele>
        <time>2026-05-19T12:02:43.864Z</time>
      </trkpt>
      <trkpt lat="49.46725" lon="1.17232">
        <ele>136</ele>
        <time>2026-05-19T12:02:48.403Z</time>
      </trkpt>
      <trkpt lat="49.46723" lon="1.17229">
        <ele>136</ele>
        <time>2026-05-19T12:02:52.911Z</time>
      </trkpt>
      <trkpt lat="49.4672" lon="1.17227">
        <ele>136</ele>
        <time>2026-05-19T12:02:57.484Z</time>
      </trkpt>
      <trkpt lat="49.4672" lon="1.17227">
        <ele>136</ele>
        <time>2026-05-19T12:03:01.913Z</time>
      </trkpt>
      <trkpt lat="49.46718" lon="1.17224">
        <ele>136</ele>
        <time>2026-05-19T12:03:05.917Z</time>
      </trkpt>
      <trkpt lat="49.46718" lon="1.17217">
        <ele>136</ele>
        <time>2026-05-19T12:03:10.905Z</time>
      </trkpt>
      <trkpt lat="49.46716" lon="1.17209">
        <ele>136</ele>
        <time>2026-05-19T12:03:14.911Z</time>
      </trkpt>
      <trkpt lat="49.46714" lon="1.17203">
        <ele>138</ele>
        <time>2026-05-19T12:03:19.401Z</time>
      </trkpt>
      <trkpt lat="49.4671" lon="1.17197">
        <ele>138</ele>
        <time>2026-05-19T12:03:23.685Z</time>
      </trkpt>
      <trkpt lat="49.46708" lon="1.17192">
        <ele>133</ele>
        <time>2026-05-19T12:03:27.916Z</time>
      </trkpt>
      <trkpt lat="49.46707" lon="1.17183">
        <ele>133</ele>
        <time>2026-05-19T12:03:32.209Z</time>
      </trkpt>
      <trkpt lat="49.46705" lon="1.17174">
        <ele>132</ele>
        <time>2026-05-19T12:03:36.605Z</time>
      </trkpt>
      <trkpt lat="49.46703" lon="1.17168">
        <ele>132</ele>
        <time>2026-05-19T12:03:41.021Z</time>
      </trkpt>
      <trkpt lat="49.467" lon="1.17161">
        <ele>132</ele>
        <time>2026-05-19T12:03:45.507Z</time>
      </trkpt>
      <trkpt lat="49.467" lon="1.17154">
        <ele>132</ele>
        <time>2026-05-19T12:03:49.928Z</time>
      </trkpt>
      <trkpt lat="49.467" lon="1.17147">
        <ele>131</ele>
        <time>2026-05-19T12:03:54.365Z</time>
      </trkpt>
      <trkpt lat="49.467" lon="1.1714">
        <ele>131</ele>
        <time>2026-05-19T12:03:58.505Z</time>
      </trkpt>
      <trkpt lat="49.46698" lon="1.17133">
        <ele>131</ele>
        <time>2026-05-19T12:04:02.909Z</time>
      </trkpt>
      <trkpt lat="49.46695" lon="1.17125">
        <ele>131</ele>
        <time>2026-05-19T12:04:07.352Z</time>
      </trkpt>
      <trkpt lat="49.46695" lon="1.17118">
        <ele>129</ele>
        <time>2026-05-19T12:04:11.920Z</time>
      </trkpt>
      <trkpt lat="49.46692" lon="1.17113">
        <ele>129</ele>
        <time>2026-05-19T12:04:16.602Z</time>
      </trkpt>
      <trkpt lat="49.46689" lon="1.17109">
        <ele>129</ele>
        <time>2026-05-19T12:04:20.623Z</time>
      </trkpt>
      <trkpt lat="49.46687" lon="1.17103">
        <ele>129</ele>
        <time>2026-05-19T12:04:25.188Z</time>
      </trkpt>
      <trkpt lat="49.46686" lon="1.17099">
        <ele>129</ele>
        <time>2026-05-19T12:04:29.823Z</time>
      </trkpt>
      <trkpt lat="49.46686" lon="1.17094">
        <ele>127</ele>
        <time>2026-05-19T12:04:34.265Z</time>
      </trkpt>
      <trkpt lat="49.46684" lon="1.17089">
        <ele>127</ele>
        <time>2026-05-19T12:04:38.623Z</time>
      </trkpt>
      <trkpt lat="49.46681" lon="1.17084">
        <ele>127</ele>
        <time>2026-05-19T12:04:43.198Z</time>
      </trkpt>
      <trkpt lat="49.46678" lon="1.17078">
        <ele>123</ele>
        <time>2026-05-19T12:04:47.330Z</time>
      </trkpt>
      <trkpt lat="49.46675" lon="1.17071">
        <ele>123</ele>
        <time>2026-05-19T12:04:51.904Z</time>
      </trkpt>
      <trkpt lat="49.46672" lon="1.17064">
        <ele>121</ele>
        <time>2026-05-19T12:04:56.189Z</time>
      </trkpt>
      <trkpt lat="49.4667" lon="1.17057">
        <ele>121</ele>
        <time>2026-05-19T12:05:00.350Z</time>
      </trkpt>
      <trkpt lat="49.46668" lon="1.17052">
        <ele>121</ele>
        <time>2026-05-19T12:05:04.799Z</time>
      </trkpt>
      <trkpt lat="49.46665" lon="1.17046">
        <ele>121</ele>
        <time>2026-05-19T12:05:08.911Z</time>
      </trkpt>
      <trkpt lat="49.46664" lon="1.17041">
        <ele>120</ele>
        <time>2026-05-19T12:05:13.265Z</time>
      </trkpt>
      <trkpt lat="49.46662" lon="1.17035">
        <ele>120</ele>
        <time>2026-05-19T12:05:17.495Z</time>
      </trkpt>
      <trkpt lat="49.46661" lon="1.17031">
        <ele>120</ele>
        <time>2026-05-19T12:05:21.916Z</time>
      </trkpt>
      <trkpt lat="49.46659" lon="1.17026">
        <ele>120</ele>
        <time>2026-05-19T12:05:26.304Z</time>
      </trkpt>
      <trkpt lat="49.46656" lon="1.1702">
        <ele>120</ele>
        <time>2026-05-19T12:05:30.771Z</time>
      </trkpt>
      <trkpt lat="49.46655" lon="1.17015">
        <ele>120</ele>
        <time>2026-05-19T12:05:35.429Z</time>
      </trkpt>
      <trkpt lat="49.46654" lon="1.17009">
        <ele>119</ele>
        <time>2026-05-19T12:05:39.912Z</time>
      </trkpt>
      <trkpt lat="49.46651" lon="1.17005">
        <ele>115</ele>
        <time>2026-05-19T12:05:43.938Z</time>
      </trkpt>
      <trkpt lat="49.46649" lon="1.16999">
        <ele>115</ele>
        <time>2026-05-19T12:05:48.570Z</time>
      </trkpt>
      <trkpt lat="49.46646" lon="1.16994">
        <ele>115</ele>
        <time>2026-05-19T12:05:52.908Z</time>
      </trkpt>
      <trkpt lat="49.46644" lon="1.16988">
        <ele>115</ele>
        <time>2026-05-19T12:05:57.342Z</time>
      </trkpt>
      <trkpt lat="49.4664" lon="1.16982">
        <ele>115</ele>
        <time>2026-05-19T12:06:01.722Z</time>
      </trkpt>
      <trkpt lat="49.46636" lon="1.16974">
        <ele>115</ele>
        <time>2026-05-19T12:06:05.917Z</time>
      </trkpt>
      <trkpt lat="49.46632" lon="1.16967">
        <ele>115</ele>
        <time>2026-05-19T12:06:10.766Z</time>
      </trkpt>
      <trkpt lat="49.46629" lon="1.1696">
        <ele>115</ele>
        <time>2026-05-19T12:06:15.461Z</time>
      </trkpt>
      <trkpt lat="49.46626" lon="1.16953">
        <ele>114</ele>
        <time>2026-05-19T12:08:49.912Z</time>
      </trkpt>
      <trkpt lat="49.46625" lon="1.16946">
        <ele>110</ele>
        <time>2026-05-19T12:08:54.909Z</time>
      </trkpt>
      <trkpt lat="49.46623" lon="1.16939">
        <ele>110</ele>
        <time>2026-05-19T12:08:58.916Z</time>
      </trkpt>
      <trkpt lat="49.46622" lon="1.1693">
        <ele>109</ele>
        <time>2026-05-19T12:09:03.916Z</time>
      </trkpt>
      <trkpt lat="49.4662" lon="1.16924">
        <ele>109</ele>
        <time>2026-05-19T12:09:08.913Z</time>
      </trkpt>
      <trkpt lat="49.46618" lon="1.16917">
        <ele>109</ele>
        <time>2026-05-19T12:09:13.910Z</time>
      </trkpt>
      <trkpt lat="49.46616" lon="1.1691">
        <ele>109</ele>
        <time>2026-05-19T12:09:18.907Z</time>
      </trkpt>
      <trkpt lat="49.46614" lon="1.16902">
        <ele>108</ele>
        <time>2026-05-19T12:09:22.919Z</time>
      </trkpt>
      <trkpt lat="49.46613" lon="1.16895">
        <ele>108</ele>
        <time>2026-05-19T12:09:27.919Z</time>
      </trkpt>
      <trkpt lat="49.46612" lon="1.16889">
        <ele>108</ele>
        <time>2026-05-19T12:09:32.912Z</time>
      </trkpt>
      <trkpt lat="49.46611" lon="1.16882">
        <ele>108</ele>
        <time>2026-05-19T12:09:37.911Z</time>
      </trkpt>
      <trkpt lat="49.46609" lon="1.16875">
        <ele>108</ele>
        <time>2026-05-19T12:09:42.917Z</time>
      </trkpt>
      <trkpt lat="49.46608" lon="1.16869">
        <ele>107</ele>
        <time>2026-05-19T12:09:47.913Z</time>
      </trkpt>
      <trkpt lat="49.46608" lon="1.16861">
        <ele>107</ele>
        <time>2026-05-19T12:11:20.901Z</time>
      </trkpt>
      <trkpt lat="49.46608" lon="1.16854">
        <ele>107</ele>
        <time>2026-05-19T12:11:24.902Z</time>
      </trkpt>
      <trkpt lat="49.46608" lon="1.16845">
        <ele>106</ele>
        <time>2026-05-19T12:11:29.923Z</time>
      </trkpt>
      <trkpt lat="49.46607" lon="1.16839">
        <ele>106</ele>
        <time>2026-05-19T12:11:34.910Z</time>
      </trkpt>
      <trkpt lat="49.46607" lon="1.16832">
        <ele>106</ele>
        <time>2026-05-19T12:11:39.912Z</time>
      </trkpt>
      <trkpt lat="49.46606" lon="1.16825">
        <ele>106</ele>
        <time>2026-05-19T12:11:44.913Z</time>
      </trkpt>
      <trkpt lat="49.46605" lon="1.16818">
        <ele>103</ele>
        <time>2026-05-19T12:11:48.916Z</time>
      </trkpt>
      <trkpt lat="49.46604" lon="1.16812">
        <ele>103</ele>
        <time>2026-05-19T12:11:53.523Z</time>
      </trkpt>
      <trkpt lat="49.46603" lon="1.16804">
        <ele>103</ele>
        <time>2026-05-19T12:11:57.910Z</time>
      </trkpt>
      <trkpt lat="49.46602" lon="1.16798">
        <ele>103</ele>
        <time>2026-05-19T12:12:01.914Z</time>
      </trkpt>
      <trkpt lat="49.46599" lon="1.16795">
        <ele>103</ele>
        <time>2026-05-19T12:12:06.422Z</time>
      </trkpt>
      <trkpt lat="49.46599" lon="1.16791">
        <ele>100</ele>
        <time>2026-05-19T12:12:10.967Z</time>
      </trkpt>
      <trkpt lat="49.46599" lon="1.16783">
        <ele>100</ele>
        <time>2026-05-19T12:12:15.547Z</time>
      </trkpt>
      <trkpt lat="49.46599" lon="1.16776">
        <ele>100</ele>
        <time>2026-05-19T12:12:19.605Z</time>
      </trkpt>
      <trkpt lat="49.46599" lon="1.16769">
        <ele>100</ele>
        <time>2026-05-19T12:12:24.250Z</time>
      </trkpt>
      <trkpt lat="49.46599" lon="1.16762">
        <ele>97</ele>
        <time>2026-05-19T12:12:28.860Z</time>
      </trkpt>
      <trkpt lat="49.46599" lon="1.16756">
        <ele>97</ele>
        <time>2026-05-19T12:12:32.915Z</time>
      </trkpt>
      <trkpt lat="49.466" lon="1.16748">
        <ele>97</ele>
        <time>2026-05-19T12:12:37.174Z</time>
      </trkpt>
      <trkpt lat="49.46601" lon="1.16741">
        <ele>97</ele>
        <time>2026-05-19T12:12:41.532Z</time>
      </trkpt>
      <trkpt lat="49.466" lon="1.16734">
        <ele>93</ele>
        <time>2026-05-19T12:12:46.126Z</time>
      </trkpt>
      <trkpt lat="49.46601" lon="1.16727">
        <ele>93</ele>
        <time>2026-05-19T12:12:50.626Z</time>
      </trkpt>
      <trkpt lat="49.46601" lon="1.16717">
        <ele>93</ele>
        <time>2026-05-19T12:12:55.222Z</time>
      </trkpt>
      <trkpt lat="49.46603" lon="1.1671">
        <ele>93</ele>
        <time>2026-05-19T12:12:59.285Z</time>
      </trkpt>
      <trkpt lat="49.46604" lon="1.16704">
        <ele>89</ele>
        <time>2026-05-19T12:13:03.334Z</time>
      </trkpt>
      <trkpt lat="49.46605" lon="1.16697">
        <ele>89</ele>
        <time>2026-05-19T12:13:07.388Z</time>
      </trkpt>
      <trkpt lat="49.46606" lon="1.16689">
        <ele>89</ele>
        <time>2026-05-19T12:13:11.424Z</time>
      </trkpt>
      <trkpt lat="49.46607" lon="1.16681">
        <ele>89</ele>
        <time>2026-05-19T12:13:15.909Z</time>
      </trkpt>
      <trkpt lat="49.46607" lon="1.16674">
        <ele>86</ele>
        <time>2026-05-19T12:13:20.447Z</time>
      </trkpt>
      <trkpt lat="49.46607" lon="1.16667">
        <ele>86</ele>
        <time>2026-05-19T12:13:24.863Z</time>
      </trkpt>
      <trkpt lat="49.46608" lon="1.16659">
        <ele>86</ele>
        <time>2026-05-19T12:13:29.282Z</time>
      </trkpt>
      <trkpt lat="49.46608" lon="1.16652">
        <ele>84</ele>
        <time>2026-05-19T12:13:33.367Z</time>
      </trkpt>
      <trkpt lat="49.46608" lon="1.16644">
        <ele>84</ele>
        <time>2026-05-19T12:13:37.840Z</time>
      </trkpt>
      <trkpt lat="49.46607" lon="1.16637">
        <ele>84</ele>
        <time>2026-05-19T12:13:42.293Z</time>
      </trkpt>
      <trkpt lat="49.46607" lon="1.16629">
        <ele>84</ele>
        <time>2026-05-19T12:13:46.863Z</time>
      </trkpt>
      <trkpt lat="49.46608" lon="1.1662">
        <ele>83</ele>
        <time>2026-05-19T12:13:51.495Z</time>
      </trkpt>
      <trkpt lat="49.46607" lon="1.16612">
        <ele>83</ele>
        <time>2026-05-19T12:13:55.910Z</time>
      </trkpt>
      <trkpt lat="49.46607" lon="1.16602">
        <ele>83</ele>
        <time>2026-05-19T12:14:00.092Z</time>
      </trkpt>
      <trkpt lat="49.46607" lon="1.16596">
        <ele>81</ele>
        <time>2026-05-19T12:14:04.091Z</time>
      </trkpt>
      <trkpt lat="49.46607" lon="1.1659">
        <ele>81</ele>
        <time>2026-05-19T12:14:08.091Z</time>
      </trkpt>
      <trkpt lat="49.46606" lon="1.16582">
        <ele>81</ele>
        <time>2026-05-19T12:14:12.600Z</time>
      </trkpt>
      <trkpt lat="49.46604" lon="1.16574">
        <ele>81</ele>
        <time>2026-05-19T12:14:16.650Z</time>
      </trkpt>
      <trkpt lat="49.46603" lon="1.16565">
        <ele>78</ele>
        <time>2026-05-19T12:14:20.913Z</time>
      </trkpt>
      <trkpt lat="49.466" lon="1.16558">
        <ele>78</ele>
        <time>2026-05-19T12:14:24.913Z</time>
      </trkpt>
      <trkpt lat="49.46598" lon="1.16551">
        <ele>78</ele>
        <time>2026-05-19T12:14:29.918Z</time>
      </trkpt>
      <trkpt lat="49.46597" lon="1.16543">
        <ele>76</ele>
        <time>2026-05-19T12:14:34.045Z</time>
      </trkpt>
      <trkpt lat="49.46595" lon="1.16536">
        <ele>75</ele>
        <time>2026-05-19T12:14:38.520Z</time>
      </trkpt>
      <trkpt lat="49.46593" lon="1.16528">
        <ele>75</ele>
        <time>2026-05-19T12:14:42.910Z</time>
      </trkpt>
      <trkpt lat="49.46592" lon="1.16523">
        <ele>75</ele>
        <time>2026-05-19T12:14:47.482Z</time>
      </trkpt>
      <trkpt lat="49.46591" lon="1.16519">
        <ele>75</ele>
        <time>2026-05-19T12:14:51.544Z</time>
      </trkpt>
      <trkpt lat="49.46589" lon="1.16512">
        <ele>72</ele>
        <time>2026-05-19T12:14:56.043Z</time>
      </trkpt>
      <trkpt lat="49.46587" lon="1.16503">
        <ele>72</ele>
        <time>2026-05-19T12:15:00.593Z</time>
      </trkpt>
      <trkpt lat="49.46585" lon="1.16495">
        <ele>72</ele>
        <time>2026-05-19T12:15:05.185Z</time>
      </trkpt>
      <trkpt lat="49.46584" lon="1.16489">
        <ele>72</ele>
        <time>2026-05-19T12:15:09.606Z</time>
      </trkpt>
      <trkpt lat="49.46583" lon="1.16483">
        <ele>71</ele>
        <time>2026-05-19T12:15:14.031Z</time>
      </trkpt>
      <trkpt lat="49.46581" lon="1.16474">
        <ele>71</ele>
        <time>2026-05-19T12:15:18.473Z</time>
      </trkpt>
      <trkpt lat="49.4658" lon="1.16467">
        <ele>71</ele>
        <time>2026-05-19T12:15:22.473Z</time>
      </trkpt>
      <trkpt lat="49.4658" lon="1.16458">
        <ele>71</ele>
        <time>2026-05-19T12:15:26.906Z</time>
      </trkpt>
      <trkpt lat="49.46583" lon="1.16451">
        <ele>69</ele>
        <time>2026-05-19T12:15:31.566Z</time>
      </trkpt>
      <trkpt lat="49.46586" lon="1.16445">
        <ele>69</ele>
        <time>2026-05-19T12:15:35.583Z</time>
      </trkpt>
      <trkpt lat="49.46588" lon="1.16442">
        <ele>69</ele>
        <time>2026-05-19T12:15:39.921Z</time>
      </trkpt>
      <trkpt lat="49.4659" lon="1.16433">
        <ele>69</ele>
        <time>2026-05-19T12:15:43.912Z</time>
      </trkpt>
      <trkpt lat="49.46592" lon="1.16426">
        <ele>68</ele>
        <time>2026-05-19T12:15:48.447Z</time>
      </trkpt>
      <trkpt lat="49.46594" lon="1.16419">
        <ele>68</ele>
        <time>2026-05-19T12:15:52.900Z</time>
      </trkpt>
      <trkpt lat="49.46595" lon="1.16413">
        <ele>68</ele>
        <time>2026-05-19T12:15:57.445Z</time>
      </trkpt>
      <trkpt lat="49.46594" lon="1.16406">
        <ele>68</ele>
        <time>2026-05-19T12:16:01.911Z</time>
      </trkpt>
      <trkpt lat="49.46592" lon="1.16399">
        <ele>68</ele>
        <time>2026-05-19T12:16:06.542Z</time>
      </trkpt>
      <trkpt lat="49.4659" lon="1.16391">
        <ele>68</ele>
        <time>2026-05-19T12:16:11.126Z</time>
      </trkpt>
      <trkpt lat="49.46588" lon="1.16384">
        <ele>68</ele>
        <time>2026-05-19T12:16:15.483Z</time>
      </trkpt>
      <trkpt lat="49.46586" lon="1.16377">
        <ele>68</ele>
        <time>2026-05-19T12:16:19.567Z</time>
      </trkpt>
      <trkpt lat="49.46586" lon="1.1637">
        <ele>67</ele>
        <time>2026-05-19T12:16:24.137Z</time>
      </trkpt>
      <trkpt lat="49.46586" lon="1.16363">
        <ele>67</ele>
        <time>2026-05-19T12:16:28.615Z</time>
      </trkpt>
      <trkpt lat="49.46586" lon="1.16356">
        <ele>67</ele>
        <time>2026-05-19T12:16:33.090Z</time>
      </trkpt>
      <trkpt lat="49.46588" lon="1.16348">
        <ele>67</ele>
        <time>2026-05-19T12:16:37.149Z</time>
      </trkpt>
      <trkpt lat="49.4659" lon="1.1634">
        <ele>65</ele>
        <time>2026-05-19T12:16:41.224Z</time>
      </trkpt>
      <trkpt lat="49.46592" lon="1.16332">
        <ele>65</ele>
        <time>2026-05-19T12:16:45.268Z</time>
      </trkpt>
      <trkpt lat="49.46594" lon="1.16325">
        <ele>65</ele>
        <time>2026-05-19T12:16:49.660Z</time>
      </trkpt>
      <trkpt lat="49.46595" lon="1.16319">
        <ele>62</ele>
        <time>2026-05-19T12:16:53.919Z</time>
      </trkpt>
      <trkpt lat="49.46595" lon="1.16312">
        <ele>62</ele>
        <time>2026-05-19T12:16:58.915Z</time>
      </trkpt>
      <trkpt lat="49.46595" lon="1.16305">
        <ele>62</ele>
        <time>2026-05-19T12:17:03.246Z</time>
      </trkpt>
      <trkpt lat="49.46596" lon="1.16297">
        <ele>62</ele>
        <time>2026-05-19T12:17:07.400Z</time>
      </trkpt>
      <trkpt lat="49.46599" lon="1.1629">
        <ele>56</ele>
        <time>2026-05-19T12:17:11.891Z</time>
      </trkpt>
      <trkpt lat="49.46602" lon="1.16284">
        <ele>56</ele>
        <time>2026-05-19T12:17:15.886Z</time>
      </trkpt>
      <trkpt lat="49.46603" lon="1.16278">
        <ele>56</ele>
        <time>2026-05-19T12:17:20.240Z</time>
      </trkpt>
      <trkpt lat="49.46605" lon="1.1627">
        <ele>56</ele>
        <time>2026-05-19T12:17:24.293Z</time>
      </trkpt>
      <trkpt lat="49.46607" lon="1.16262">
        <ele>54</ele>
        <time>2026-05-19T12:17:28.722Z</time>
      </trkpt>
      <trkpt lat="49.46607" lon="1.16255">
        <ele>54</ele>
        <time>2026-05-19T12:17:33.351Z</time>
      </trkpt>
      <trkpt lat="49.46608" lon="1.1625">
        <ele>54</ele>
        <time>2026-05-19T12:17:37.756Z</time>
      </trkpt>
      <trkpt lat="49.4661" lon="1.16245">
        <ele>54</ele>
        <time>2026-05-19T12:17:42.280Z</time>
      </trkpt>
      <trkpt lat="49.46614" lon="1.1624">
        <ele>54</ele>
        <time>2026-05-19T12:17:46.347Z</time>
      </trkpt>
      <trkpt lat="49.46619" lon="1.16234">
        <ele>52</ele>
        <time>2026-05-19T12:17:50.817Z</time>
      </trkpt>
      <trkpt lat="49.46622" lon="1.16228">
        <ele>52</ele>
        <time>2026-05-19T12:17:54.828Z</time>
      </trkpt>
      <trkpt lat="49.46624" lon="1.16221">
        <ele>52</ele>
        <time>2026-05-19T12:17:58.720Z</time>
      </trkpt>
      <trkpt lat="49.46626" lon="1.16213">
        <ele>52</ele>
        <time>2026-05-19T12:18:03.387Z</time>
      </trkpt>
      <trkpt lat="49.46627" lon="1.16205">
        <ele>52</ele>
        <time>2026-05-19T12:18:07.865Z</time>
      </trkpt>
      <trkpt lat="49.4663" lon="1.16188">
        <ele>52</ele>
        <time>2026-05-19T12:18:12.567Z</time>
      </trkpt>
      <trkpt lat="49.4663" lon="1.16187">
        <ele>52</ele>
        <time>2026-05-19T12:18:16.604Z</time>
      </trkpt>
      <trkpt lat="49.46631" lon="1.1618">
        <ele>52</ele>
        <time>2026-05-19T12:18:21.031Z</time>
      </trkpt>
      <trkpt lat="49.46631" lon="1.16174">
        <ele>52</ele>
        <time>2026-05-19T12:18:25.508Z</time>
      </trkpt>
      <trkpt lat="49.4663" lon="1.16166">
        <ele>52</ele>
        <time>2026-05-19T12:18:29.914Z</time>
      </trkpt>
      <trkpt lat="49.46628" lon="1.16159">
        <ele>52</ele>
        <time>2026-05-19T12:18:33.915Z</time>
      </trkpt>
      <trkpt lat="49.46624" lon="1.16153">
        <ele>51</ele>
        <time>2026-05-19T12:18:38.197Z</time>
      </trkpt>
      <trkpt lat="49.46619" lon="1.16147">
        <ele>51</ele>
        <time>2026-05-19T12:18:42.914Z</time>
      </trkpt>
      <trkpt lat="49.46615" lon="1.16141">
        <ele>51</ele>
        <time>2026-05-19T12:18:47.388Z</time>
      </trkpt>
      <trkpt lat="49.46611" lon="1.16137">
        <ele>51</ele>
        <time>2026-05-19T12:18:51.745Z</time>
      </trkpt>
      <trkpt lat="49.46608" lon="1.1613">
        <ele>51</ele>
        <time>2026-05-19T12:18:56.252Z</time>
      </trkpt>
      <trkpt lat="49.46602" lon="1.16121">
        <ele>51</ele>
        <time>2026-05-19T12:19:00.786Z</time>
      </trkpt>
      <trkpt lat="49.46599" lon="1.16114">
        <ele>51</ele>
        <time>2026-05-19T12:19:05.364Z</time>
      </trkpt>
      <trkpt lat="49.46596" lon="1.1611">
        <ele>51</ele>
        <time>2026-05-19T12:19:09.866Z</time>
      </trkpt>
      <trkpt lat="49.46596" lon="1.16101">
        <ele>51</ele>
        <time>2026-05-19T12:19:14.509Z</time>
      </trkpt>
      <trkpt lat="49.46597" lon="1.16094">
        <ele>51</ele>
        <time>2026-05-19T12:19:18.544Z</time>
      </trkpt>
      <trkpt lat="49.46596" lon="1.16087">
        <ele>51</ele>
        <time>2026-05-19T12:19:22.639Z</time>
      </trkpt>
      <trkpt lat="49.46595" lon="1.16085">
        <ele>51</ele>
        <time>2026-05-19T12:19:26.650Z</time>
      </trkpt>
      <trkpt lat="49.46598" lon="1.16076">
        <ele>51</ele>
        <time>2026-05-19T12:19:30.743Z</time>
      </trkpt>
      <trkpt lat="49.46604" lon="1.16073">
        <ele>51</ele>
        <time>2026-05-19T12:19:35.447Z</time>
      </trkpt>
      <trkpt lat="49.46608" lon="1.16072">
        <ele>51</ele>
        <time>2026-05-19T12:19:39.544Z</time>
      </trkpt>
      <trkpt lat="49.46612" lon="1.16072">
        <ele>51</ele>
        <time>2026-05-19T12:19:43.590Z</time>
      </trkpt>
      <trkpt lat="49.46618" lon="1.16073">
        <ele>51</ele>
        <time>2026-05-19T12:19:47.614Z</time>
      </trkpt>
      <trkpt lat="49.46621" lon="1.16068">
        <ele>51</ele>
        <time>2026-05-19T12:19:51.687Z</time>
      </trkpt>
      <trkpt lat="49.46622" lon="1.1606">
        <ele>51</ele>
        <time>2026-05-19T12:19:56.364Z</time>
      </trkpt>
      <trkpt lat="49.4662" lon="1.16052">
        <ele>51</ele>
        <time>2026-05-19T12:20:00.913Z</time>
      </trkpt>
      <trkpt lat="49.4662" lon="1.16044">
        <ele>51</ele>
        <time>2026-05-19T12:20:05.533Z</time>
      </trkpt>
      <trkpt lat="49.46621" lon="1.16036">
        <ele>52</ele>
        <time>2026-05-19T12:20:10.081Z</time>
      </trkpt>
      <trkpt lat="49.46623" lon="1.16029">
        <ele>52</ele>
        <time>2026-05-19T12:20:14.650Z</time>
      </trkpt>
      <trkpt lat="49.46625" lon="1.16022">
        <ele>52</ele>
        <time>2026-05-19T12:20:19.269Z</time>
      </trkpt>
      <trkpt lat="49.46627" lon="1.16014">
        <ele>53</ele>
        <time>2026-05-19T12:20:23.877Z</time>
      </trkpt>
      <trkpt lat="49.4663" lon="1.16007">
        <ele>55</ele>
        <time>2026-05-19T12:20:28.544Z</time>
      </trkpt>
      <trkpt lat="49.46633" lon="1.16001">
        <ele>55</ele>
        <time>2026-05-19T12:20:32.533Z</time>
      </trkpt>
      <trkpt lat="49.46633" lon="1.15994">
        <ele>55</ele>
        <time>2026-05-19T12:20:36.605Z</time>
      </trkpt>
      <trkpt lat="49.46632" lon="1.15988">
        <ele>55</ele>
        <time>2026-05-19T12:20:41.187Z</time>
      </trkpt>
      <trkpt lat="49.46631" lon="1.15983">
        <ele>59</ele>
        <time>2026-05-19T12:20:45.770Z</time>
      </trkpt>
      <trkpt lat="49.46633" lon="1.15978">
        <ele>59</ele>
        <time>2026-05-19T12:20:49.833Z</time>
      </trkpt>
      <trkpt lat="49.46635" lon="1.15972">
        <ele>59</ele>
        <time>2026-05-19T12:20:53.914Z</time>
      </trkpt>
      <trkpt lat="49.46639" lon="1.15967">
        <ele>59</ele>
        <time>2026-05-19T12:20:58.092Z</time>
      </trkpt>
      <trkpt lat="49.46641" lon="1.1596">
        <ele>59</ele>
        <time>2026-05-19T12:21:02.187Z</time>
      </trkpt>
      <trkpt lat="49.46643" lon="1.15953">
        <ele>70</ele>
        <time>2026-05-19T12:21:06.245Z</time>
      </trkpt>
      <trkpt lat="49.46648" lon="1.15947">
        <ele>70</ele>
        <time>2026-05-19T12:21:10.425Z</time>
      </trkpt>
      <trkpt lat="49.46648" lon="1.15947">
        <ele>70</ele>
        <time>2026-05-19T12:21:14.603Z</time>
      </trkpt>
      <trkpt lat="49.46649" lon="1.15949">
        <ele>70</ele>
        <time>2026-05-19T12:21:18.710Z</time>
      </trkpt>
      <trkpt lat="49.46652" lon="1.15951">
        <ele>70</ele>
        <time>2026-05-19T12:21:22.781Z</time>
      </trkpt>
      <trkpt lat="49.46656" lon="1.15955">
        <ele>75</ele>
        <time>2026-05-19T12:21:27.378Z</time>
      </trkpt>
      <trkpt lat="49.46658" lon="1.15958">
        <ele>75</ele>
        <time>2026-05-19T12:21:31.915Z</time>
      </trkpt>
      <trkpt lat="49.46661" lon="1.15962">
        <ele>64</ele>
        <time>2026-05-19T12:21:36.151Z</time>
      </trkpt>
      <trkpt lat="49.46663" lon="1.15965">
        <ele>64</ele>
        <time>2026-05-19T12:21:40.285Z</time>
      </trkpt>
      <trkpt lat="49.46666" lon="1.15966">
        <ele>64</ele>
        <time>2026-05-19T12:21:44.624Z</time>
      </trkpt>
      <trkpt lat="49.46668" lon="1.15965">
        <ele>64</ele>
        <time>2026-05-19T12:21:48.840Z</time>
      </trkpt>
      <trkpt lat="49.46671" lon="1.15965">
        <ele>64</ele>
        <time>2026-05-19T12:21:53.488Z</time>
      </trkpt>
      <trkpt lat="49.46675" lon="1.15965">
        <ele>64</ele>
        <time>2026-05-19T12:21:57.533Z</time>
      </trkpt>
      <trkpt lat="49.46678" lon="1.15964">
        <ele>64</ele>
        <time>2026-05-19T12:22:01.793Z</time>
      </trkpt>
      <trkpt lat="49.4668" lon="1.15964">
        <ele>64</ele>
        <time>2026-05-19T12:22:05.907Z</time>
      </trkpt>
      <trkpt lat="49.46683" lon="1.15962">
        <ele>72</ele>
        <time>2026-05-19T12:22:10.210Z</time>
      </trkpt>
      <trkpt lat="49.46686" lon="1.15961">
        <ele>72</ele>
        <time>2026-05-19T12:22:14.388Z</time>
      </trkpt>
      <trkpt lat="49.46689" lon="1.1596">
        <ele>72</ele>
        <time>2026-05-19T12:22:18.424Z</time>
      </trkpt>
      <trkpt lat="49.46692" lon="1.15958">
        <ele>84</ele>
        <time>2026-05-19T12:22:22.565Z</time>
      </trkpt>
      <trkpt lat="49.46694" lon="1.15957">
        <ele>84</ele>
        <time>2026-05-19T12:22:26.602Z</time>
      </trkpt>
      <trkpt lat="49.46695" lon="1.15956">
        <ele>84</ele>
        <time>2026-05-19T12:22:30.722Z</time>
      </trkpt>
      <trkpt lat="49.467" lon="1.15955">
        <ele>84</ele>
        <time>2026-05-19T12:22:34.910Z</time>
      </trkpt>
      <trkpt lat="49.46702" lon="1.15954">
        <ele>84</ele>
        <time>2026-05-19T12:22:39.733Z</time>
      </trkpt>
      <trkpt lat="49.46704" lon="1.15954">
        <ele>84</ele>
        <time>2026-05-19T12:22:43.733Z</time>
      </trkpt>
      <trkpt lat="49.46706" lon="1.15953">
        <ele>84</ele>
        <time>2026-05-19T12:22:47.770Z</time>
      </trkpt>
      <trkpt lat="49.46707" lon="1.15956">
        <ele>84</ele>
        <time>2026-05-19T12:22:51.808Z</time>
      </trkpt>
      <trkpt lat="49.46711" lon="1.15957">
        <ele>88</ele>
        <time>2026-05-19T12:22:56.388Z</time>
      </trkpt>
      <trkpt lat="49.46713" lon="1.15957">
        <ele>88</ele>
        <time>2026-05-19T12:23:00.907Z</time>
      </trkpt>
      <trkpt lat="49.46715" lon="1.15955">
        <ele>88</ele>
        <time>2026-05-19T12:23:05.065Z</time>
      </trkpt>
      <trkpt lat="49.46717" lon="1.15953">
        <ele>88</ele>
        <time>2026-05-19T12:23:09.113Z</time>
      </trkpt>
      <trkpt lat="49.46719" lon="1.15949">
        <ele>88</ele>
        <time>2026-05-19T12:23:13.709Z</time>
      </trkpt>
      <trkpt lat="49.46722" lon="1.15945">
        <ele>88</ele>
        <time>2026-05-19T12:23:17.746Z</time>
      </trkpt>
      <trkpt lat="49.46726" lon="1.15944">
        <ele>88</ele>
        <time>2026-05-19T12:23:21.828Z</time>
      </trkpt>
      <trkpt lat="49.46728" lon="1.15942">
        <ele>88</ele>
        <time>2026-05-19T12:23:25.910Z</time>
      </trkpt>
      <trkpt lat="49.4673" lon="1.15942">
        <ele>88</ele>
        <time>2026-05-19T12:23:29.915Z</time>
      </trkpt>
      <trkpt lat="49.46733" lon="1.15942">
        <ele>88</ele>
        <time>2026-05-19T12:23:34.458Z</time>
      </trkpt>
      <trkpt lat="49.46736" lon="1.15944">
        <ele>88</ele>
        <time>2026-05-19T12:23:38.914Z</time>
      </trkpt>
      <trkpt lat="49.46739" lon="1.15946">
        <ele>91</ele>
        <time>2026-05-19T12:23:43.568Z</time>
      </trkpt>
      <trkpt lat="49.4674" lon="1.15948">
        <ele>91</ele>
        <time>2026-05-19T12:23:47.651Z</time>
      </trkpt>
      <trkpt lat="49.46742" lon="1.15948">
        <ele>91</ele>
        <time>2026-05-19T12:23:51.662Z</time>
      </trkpt>
      <trkpt lat="49.46744" lon="1.15949">
        <ele>91</ele>
        <time>2026-05-19T12:23:56.020Z</time>
      </trkpt>
      <trkpt lat="49.46746" lon="1.15948">
        <ele>91</ele>
        <time>2026-05-19T12:24:00.471Z</time>
      </trkpt>
      <trkpt lat="49.46748" lon="1.15948">
        <ele>91</ele>
        <time>2026-05-19T12:24:04.909Z</time>
      </trkpt>
      <trkpt lat="49.46751" lon="1.15951">
        <ele>91</ele>
        <time>2026-05-19T12:24:09.365Z</time>
      </trkpt>
      <trkpt lat="49.46754" lon="1.15951">
        <ele>91</ele>
        <time>2026-05-19T12:24:13.426Z</time>
      </trkpt>
      <trkpt lat="49.4676" lon="1.15949">
        <ele>91</ele>
        <time>2026-05-19T12:24:17.462Z</time>
      </trkpt>
      <trkpt lat="49.46762" lon="1.15949">
        <ele>91</ele>
        <time>2026-05-19T12:24:21.534Z</time>
      </trkpt>
      <trkpt lat="49.46765" lon="1.1595">
        <ele>96</ele>
        <time>2026-05-19T12:24:26.080Z</time>
      </trkpt>
      <trkpt lat="49.46766" lon="1.15952">
        <ele>96</ele>
        <time>2026-05-19T12:24:30.147Z</time>
      </trkpt>
      <trkpt lat="49.46767" lon="1.15953">
        <ele>96</ele>
        <time>2026-05-19T12:24:34.164Z</time>
      </trkpt>
      <trkpt lat="49.46769" lon="1.15956">
        <ele>96</ele>
        <time>2026-05-19T12:24:38.797Z</time>
      </trkpt>
      <trkpt lat="49.46769" lon="1.15956">
        <ele>96</ele>
        <time>2026-05-19T12:24:43.283Z</time>
      </trkpt>
      <trkpt lat="49.46769" lon="1.15956">
        <ele>96</ele>
        <time>2026-05-19T12:24:47.780Z</time>
      </trkpt>
      <trkpt lat="49.46774" lon="1.15956">
        <ele>96</ele>
        <time>2026-05-19T12:24:51.840Z</time>
      </trkpt>
      <trkpt lat="49.46779" lon="1.15954">
        <ele>96</ele>
        <time>2026-05-19T12:24:55.840Z</time>
      </trkpt>
      <trkpt lat="49.46783" lon="1.15953">
        <ele>96</ele>
        <time>2026-05-19T12:25:00.425Z</time>
      </trkpt>
      <trkpt lat="49.46788" lon="1.15954">
        <ele>96</ele>
        <time>2026-05-19T12:25:04.535Z</time>
      </trkpt>
      <trkpt lat="49.46791" lon="1.15957">
        <ele>96</ele>
        <time>2026-05-19T12:25:08.912Z</time>
      </trkpt>
      <trkpt lat="49.46795" lon="1.1596">
        <ele>88</ele>
        <time>2026-05-19T12:25:12.906Z</time>
      </trkpt>
      <trkpt lat="49.46798" lon="1.15961">
        <ele>88</ele>
        <time>2026-05-19T12:25:16.886Z</time>
      </trkpt>
      <trkpt lat="49.46801" lon="1.15961">
        <ele>88</ele>
        <time>2026-05-19T12:25:21.363Z</time>
      </trkpt>
      <trkpt lat="49.46804" lon="1.15961">
        <ele>88</ele>
        <time>2026-05-19T12:25:25.915Z</time>
      </trkpt>
      <trkpt lat="49.46807" lon="1.15961">
        <ele>88</ele>
        <time>2026-05-19T12:25:29.938Z</time>
      </trkpt>
      <trkpt lat="49.46811" lon="1.15959">
        <ele>88</ele>
        <time>2026-05-19T12:25:34.490Z</time>
      </trkpt>
      <trkpt lat="49.46814" lon="1.15956">
        <ele>100</ele>
        <time>2026-05-19T12:25:39.020Z</time>
      </trkpt>
      <trkpt lat="49.46818" lon="1.15955">
        <ele>100</ele>
        <time>2026-05-19T12:25:43.126Z</time>
      </trkpt>
      <trkpt lat="49.46821" lon="1.15953">
        <ele>96</ele>
        <time>2026-05-19T12:25:47.734Z</time>
      </trkpt>
      <trkpt lat="49.46825" lon="1.15951">
        <ele>96</ele>
        <time>2026-05-19T12:25:51.769Z</time>
      </trkpt>
      <trkpt lat="49.46828" lon="1.1595">
        <ele>96</ele>
        <time>2026-05-19T12:25:55.912Z</time>
      </trkpt>
      <trkpt lat="49.46831" lon="1.15948">
        <ele>96</ele>
        <time>2026-05-19T12:25:59.940Z</time>
      </trkpt>
      <trkpt lat="49.46834" lon="1.15945">
        <ele>96</ele>
        <time>2026-05-19T12:26:04.431Z</time>
      </trkpt>
      <trkpt lat="49.46837" lon="1.15946">
        <ele>96</ele>
        <time>2026-05-19T12:26:08.506Z</time>
      </trkpt>
      <trkpt lat="49.46836" lon="1.15942">
        <ele>96</ele>
        <time>2026-05-19T12:26:12.624Z</time>
      </trkpt>
      <trkpt lat="49.46839" lon="1.15938">
        <ele>96</ele>
        <time>2026-05-19T12:26:17.211Z</time>
      </trkpt>
      <trkpt lat="49.46842" lon="1.15937">
        <ele>96</ele>
        <time>2026-05-19T12:26:21.769Z</time>
      </trkpt>
      <trkpt lat="49.46846" lon="1.15936">
        <ele>96</ele>
        <time>2026-05-19T12:26:26.284Z</time>
      </trkpt>
      <trkpt lat="49.46852" lon="1.15928">
        <ele>98</ele>
        <time>2026-05-19T12:26:30.352Z</time>
      </trkpt>
      <trkpt lat="49.46852" lon="1.15927">
        <ele>98</ele>
        <time>2026-05-19T12:26:34.393Z</time>
      </trkpt>
      <trkpt lat="49.46853" lon="1.15927">
        <ele>98</ele>
        <time>2026-05-19T12:26:38.899Z</time>
      </trkpt>
      <trkpt lat="49.46856" lon="1.15928">
        <ele>98</ele>
        <time>2026-05-19T12:26:43.606Z</time>
      </trkpt>
      <trkpt lat="49.46858" lon="1.15936">
        <ele>92</ele>
        <time>2026-05-19T12:26:48.186Z</time>
      </trkpt>
      <trkpt lat="49.46861" lon="1.15937">
        <ele>92</ele>
        <time>2026-05-19T12:26:52.305Z</time>
      </trkpt>
      <trkpt lat="49.46859" lon="1.15943">
        <ele>92</ele>
        <time>2026-05-19T12:26:56.427Z</time>
      </trkpt>
      <trkpt lat="49.4686" lon="1.15949">
        <ele>92</ele>
        <time>2026-05-19T12:27:00.543Z</time>
      </trkpt>
      <trkpt lat="49.4686" lon="1.15957">
        <ele>92</ele>
        <time>2026-05-19T12:27:04.673Z</time>
      </trkpt>
      <trkpt lat="49.46862" lon="1.15964">
        <ele>87</ele>
        <time>2026-05-19T12:27:08.807Z</time>
      </trkpt>
      <trkpt lat="49.46863" lon="1.1597">
        <ele>87</ele>
        <time>2026-05-19T12:27:12.911Z</time>
      </trkpt>
      <trkpt lat="49.46864" lon="1.15977">
        <ele>87</ele>
        <time>2026-05-19T12:27:17.031Z</time>
      </trkpt>
      <trkpt lat="49.46865" lon="1.15983">
        <ele>87</ele>
        <time>2026-05-19T12:27:21.184Z</time>
      </trkpt>
      <trkpt lat="49.46867" lon="1.15986">
        <ele>82</ele>
        <time>2026-05-19T12:27:25.270Z</time>
      </trkpt>
      <trkpt lat="49.46869" lon="1.15991">
        <ele>82</ele>
        <time>2026-05-19T12:27:29.389Z</time>
      </trkpt>
      <trkpt lat="49.46871" lon="1.15997">
        <ele>82</ele>
        <time>2026-05-19T12:27:33.547Z</time>
      </trkpt>
      <trkpt lat="49.46873" lon="1.16001">
        <ele>82</ele>
        <time>2026-05-19T12:27:37.555Z</time>
      </trkpt>
      <trkpt lat="49.46875" lon="1.16006">
        <ele>82</ele>
        <time>2026-05-19T12:27:41.709Z</time>
      </trkpt>
      <trkpt lat="49.46877" lon="1.16012">
        <ele>82</ele>
        <time>2026-05-19T12:27:45.827Z</time>
      </trkpt>
      <trkpt lat="49.4688" lon="1.16016">
        <ele>79</ele>
        <time>2026-05-19T12:28:49.916Z</time>
      </trkpt>
      <trkpt lat="49.46884" lon="1.1602">
        <ele>79</ele>
        <time>2026-05-19T12:28:54.908Z</time>
      </trkpt>
      <trkpt lat="49.46888" lon="1.16022">
        <ele>79</ele>
        <time>2026-05-19T12:28:59.912Z</time>
      </trkpt>
      <trkpt lat="49.46891" lon="1.16024">
        <ele>79</ele>
        <time>2026-05-19T12:29:03.912Z</time>
      </trkpt>
      <trkpt lat="49.46895" lon="1.16028">
        <ele>79</ele>
        <time>2026-05-19T12:29:08.383Z</time>
      </trkpt>
      <trkpt lat="49.46897" lon="1.16031">
        <ele>79</ele>
        <time>2026-05-19T12:29:12.841Z</time>
      </trkpt>
      <trkpt lat="49.469" lon="1.16036">
        <ele>79</ele>
        <time>2026-05-19T12:29:17.322Z</time>
      </trkpt>
      <trkpt lat="49.46902" lon="1.16041">
        <ele>79</ele>
        <time>2026-05-19T12:29:21.745Z</time>
      </trkpt>
      <trkpt lat="49.46906" lon="1.16045">
        <ele>77</ele>
        <time>2026-05-19T12:29:26.221Z</time>
      </trkpt>
      <trkpt lat="49.4691" lon="1.16046">
        <ele>77</ele>
        <time>2026-05-19T12:29:30.692Z</time>
      </trkpt>
      <trkpt lat="49.46915" lon="1.16046">
        <ele>77</ele>
        <time>2026-05-19T12:29:34.910Z</time>
      </trkpt>
      <trkpt lat="49.4692" lon="1.16048">
        <ele>77</ele>
        <time>2026-05-19T12:29:39.605Z</time>
      </trkpt>
      <trkpt lat="49.46924" lon="1.16048">
        <ele>77</ele>
        <time>2026-05-19T12:29:44.151Z</time>
      </trkpt>
      <trkpt lat="49.46927" lon="1.16044">
        <ele>77</ele>
        <time>2026-05-19T12:29:48.350Z</time>
      </trkpt>
      <trkpt lat="49.46927" lon="1.16044">
        <ele>77</ele>
        <time>2026-05-19T12:29:52.387Z</time>
      </trkpt>
      <trkpt lat="49.46933" lon="1.16042">
        <ele>75</ele>
        <time>2026-05-19T12:29:56.386Z</time>
      </trkpt>
      <trkpt lat="49.46937" lon="1.16043">
        <ele>75</ele>
        <time>2026-05-19T12:30:00.706Z</time>
      </trkpt>
      <trkpt lat="49.4694" lon="1.16048">
        <ele>75</ele>
        <time>2026-05-19T12:30:04.984Z</time>
      </trkpt>
      <trkpt lat="49.46941" lon="1.16055">
        <ele>75</ele>
        <time>2026-05-19T12:30:09.624Z</time>
      </trkpt>
      <trkpt lat="49.46946" lon="1.16059">
        <ele>75</ele>
        <time>2026-05-19T12:30:13.821Z</time>
      </trkpt>
      <trkpt lat="49.4695" lon="1.16064">
        <ele>75</ele>
        <time>2026-05-19T12:30:17.906Z</time>
      </trkpt>
      <trkpt lat="49.46954" lon="1.16068">
        <ele>75</ele>
        <time>2026-05-19T12:30:21.915Z</time>
      </trkpt>
      <trkpt lat="49.46959" lon="1.16072">
        <ele>71</ele>
        <time>2026-05-19T12:30:26.104Z</time>
      </trkpt>
      <trkpt lat="49.46963" lon="1.16076">
        <ele>71</ele>
        <time>2026-05-19T12:30:30.468Z</time>
      </trkpt>
      <trkpt lat="49.46967" lon="1.16079">
        <ele>71</ele>
        <time>2026-05-19T12:30:34.683Z</time>
      </trkpt>
      <trkpt lat="49.46971" lon="1.16083">
        <ele>71</ele>
        <time>2026-05-19T12:30:39.266Z</time>
      </trkpt>
      <trkpt lat="49.46976" lon="1.16086">
        <ele>71</ele>
        <time>2026-05-19T12:30:43.482Z</time>
      </trkpt>
      <trkpt lat="49.4698" lon="1.1609">
        <ele>71</ele>
        <time>2026-05-19T12:30:47.883Z</time>
      </trkpt>
      <trkpt lat="49.46985" lon="1.16093">
        <ele>71</ele>
        <time>2026-05-19T12:30:52.063Z</time>
      </trkpt>
      <trkpt lat="49.4699" lon="1.16096">
        <ele>71</ele>
        <time>2026-05-19T12:30:56.417Z</time>
      </trkpt>
      <trkpt lat="49.46995" lon="1.16098">
        <ele>67</ele>
        <time>2026-05-19T12:31:00.635Z</time>
      </trkpt>
      <trkpt lat="49.47" lon="1.16101">
        <ele>67</ele>
        <time>2026-05-19T12:31:04.903Z</time>
      </trkpt>
      <trkpt lat="49.47004" lon="1.16104">
        <ele>67</ele>
        <time>2026-05-19T12:31:09.451Z</time>
      </trkpt>
      <trkpt lat="49.47008" lon="1.16104">
        <ele>67</ele>
        <time>2026-05-19T12:31:13.911Z</time>
      </trkpt>
      <trkpt lat="49.47013" lon="1.16105">
        <ele>67</ele>
        <time>2026-05-19T12:31:17.885Z</time>
      </trkpt>
      <trkpt lat="49.47018" lon="1.16108">
        <ele>69</ele>
        <time>2026-05-19T12:31:22.409Z</time>
      </trkpt>
      <trkpt lat="49.47022" lon="1.16105">
        <ele>69</ele>
        <time>2026-05-19T12:31:26.907Z</time>
      </trkpt>
      <trkpt lat="49.47027" lon="1.16099">
        <ele>69</ele>
        <time>2026-05-19T12:31:30.912Z</time>
      </trkpt>
      <trkpt lat="49.47032" lon="1.16097">
        <ele>69</ele>
        <time>2026-05-19T12:31:35.385Z</time>
      </trkpt>
      <trkpt lat="49.47037" lon="1.16097">
        <ele>71</ele>
        <time>2026-05-19T12:31:39.886Z</time>
      </trkpt>
      <trkpt lat="49.47041" lon="1.16094">
        <ele>71</ele>
        <time>2026-05-19T12:31:44.843Z</time>
      </trkpt>
      <trkpt lat="49.47045" lon="1.1609">
        <ele>74</ele>
        <time>2026-05-19T12:31:53.913Z</time>
      </trkpt>
      <trkpt lat="49.4705" lon="1.1609">
        <ele>74</ele>
        <time>2026-05-19T12:31:57.916Z</time>
      </trkpt>
      <trkpt lat="49.47054" lon="1.16093">
        <ele>74</ele>
        <time>2026-05-19T12:32:02.912Z</time>
      </trkpt>
      <trkpt lat="49.47057" lon="1.16098">
        <ele>72</ele>
        <time>2026-05-19T12:32:07.766Z</time>
      </trkpt>
      <trkpt lat="49.47061" lon="1.16103">
        <ele>72</ele>
        <time>2026-05-19T12:32:12.363Z</time>
      </trkpt>
      <trkpt lat="49.47065" lon="1.16108">
        <ele>72</ele>
        <time>2026-05-19T12:32:16.737Z</time>
      </trkpt>
      <trkpt lat="49.47068" lon="1.16112">
        <ele>72</ele>
        <time>2026-05-19T12:32:20.907Z</time>
      </trkpt>
      <trkpt lat="49.47072" lon="1.16114">
        <ele>76</ele>
        <time>2026-05-19T12:32:25.725Z</time>
      </trkpt>
      <trkpt lat="49.47075" lon="1.1612">
        <ele>76</ele>
        <time>2026-05-19T12:32:29.908Z</time>
      </trkpt>
      <trkpt lat="49.47078" lon="1.16125">
        <ele>76</ele>
        <time>2026-05-19T12:32:33.911Z</time>
      </trkpt>
      <trkpt lat="49.4708" lon="1.1613">
        <ele>73</ele>
        <time>2026-05-19T12:32:38.910Z</time>
      </trkpt>
      <trkpt lat="49.47083" lon="1.16134">
        <ele>73</ele>
        <time>2026-05-19T12:32:43.744Z</time>
      </trkpt>
      <trkpt lat="49.47086" lon="1.16139">
        <ele>73</ele>
        <time>2026-05-19T12:32:48.335Z</time>
      </trkpt>
      <trkpt lat="49.4709" lon="1.16143">
        <ele>73</ele>
        <time>2026-05-19T12:32:52.912Z</time>
      </trkpt>
      <trkpt lat="49.47094" lon="1.16146">
        <ele>73</ele>
        <time>2026-05-19T12:32:57.913Z</time>
      </trkpt>
      <trkpt lat="49.47099" lon="1.16149">
        <ele>76</ele>
        <time>2026-05-19T12:33:02.911Z</time>
      </trkpt>
      <trkpt lat="49.47104" lon="1.16151">
        <ele>76</ele>
        <time>2026-05-19T12:33:07.786Z</time>
      </trkpt>
      <trkpt lat="49.47108" lon="1.16152">
        <ele>76</ele>
        <time>2026-05-19T12:33:12.547Z</time>
      </trkpt>
      <trkpt lat="49.47113" lon="1.16154">
        <ele>74</ele>
        <time>2026-05-19T12:33:16.833Z</time>
      </trkpt>
      <trkpt lat="49.47118" lon="1.16156">
        <ele>74</ele>
        <time>2026-05-19T12:33:21.502Z</time>
      </trkpt>
      <trkpt lat="49.47123" lon="1.16158">
        <ele>74</ele>
        <time>2026-05-19T12:33:29.911Z</time>
      </trkpt>
      <trkpt lat="49.47126" lon="1.1616">
        <ele>76</ele>
        <time>2026-05-19T12:33:34.467Z</time>
      </trkpt>
      <trkpt lat="49.4713" lon="1.16162">
        <ele>76</ele>
        <time>2026-05-19T12:33:38.568Z</time>
      </trkpt>
      <trkpt lat="49.47134" lon="1.16165">
        <ele>76</ele>
        <time>2026-05-19T12:33:42.648Z</time>
      </trkpt>
      <trkpt lat="49.47138" lon="1.16168">
        <ele>76</ele>
        <time>2026-05-19T12:33:46.707Z</time>
      </trkpt>
      <trkpt lat="49.47141" lon="1.16171">
        <ele>76</ele>
        <time>2026-05-19T12:33:55.845Z</time>
      </trkpt>
      <trkpt lat="49.47145" lon="1.16173">
        <ele>76</ele>
        <time>2026-05-19T12:34:00.823Z</time>
      </trkpt>
      <trkpt lat="49.47149" lon="1.16175">
        <ele>76</ele>
        <time>2026-05-19T12:34:04.843Z</time>
      </trkpt>
      <trkpt lat="49.47153" lon="1.16177">
        <ele>76</ele>
        <time>2026-05-19T12:34:09.549Z</time>
      </trkpt>
      <trkpt lat="49.47158" lon="1.16178">
        <ele>76</ele>
        <time>2026-05-19T12:34:13.570Z</time>
      </trkpt>
      <trkpt lat="49.47163" lon="1.16175">
        <ele>76</ele>
        <time>2026-05-19T12:34:18.605Z</time>
      </trkpt>
      <trkpt lat="49.47167" lon="1.16169">
        <ele>76</ele>
        <time>2026-05-19T12:34:22.908Z</time>
      </trkpt>
      <trkpt lat="49.47171" lon="1.16164">
        <ele>76</ele>
        <time>2026-05-19T12:34:26.912Z</time>
      </trkpt>
      <trkpt lat="49.47174" lon="1.16159">
        <ele>76</ele>
        <time>2026-05-19T12:34:31.913Z</time>
      </trkpt>
      <trkpt lat="49.47178" lon="1.16156">
        <ele>76</ele>
        <time>2026-05-19T12:34:36.904Z</time>
      </trkpt>
      <trkpt lat="49.4718" lon="1.16153">
        <ele>76</ele>
        <time>2026-05-19T12:34:44.913Z</time>
      </trkpt>
      <trkpt lat="49.47181" lon="1.16147">
        <ele>78</ele>
        <time>2026-05-19T12:34:49.623Z</time>
      </trkpt>
      <trkpt lat="49.47183" lon="1.1614">
        <ele>78</ele>
        <time>2026-05-19T12:34:53.918Z</time>
      </trkpt>
      <trkpt lat="49.47185" lon="1.16134">
        <ele>78</ele>
        <time>2026-05-19T12:34:58.911Z</time>
      </trkpt>
      <trkpt lat="49.47187" lon="1.1613">
        <ele>78</ele>
        <time>2026-05-19T12:35:03.648Z</time>
      </trkpt>
      <trkpt lat="49.47188" lon="1.16124">
        <ele>81</ele>
        <time>2026-05-19T12:35:07.915Z</time>
      </trkpt>
      <trkpt lat="49.47188" lon="1.16119">
        <ele>81</ele>
        <time>2026-05-19T12:35:12.728Z</time>
      </trkpt>
      <trkpt lat="49.4719" lon="1.16114">
        <ele>81</ele>
        <time>2026-05-19T12:35:17.626Z</time>
      </trkpt>
      <trkpt lat="49.4719" lon="1.16108">
        <ele>81</ele>
        <time>2026-05-19T12:35:21.908Z</time>
      </trkpt>
      <trkpt lat="49.4719" lon="1.16103">
        <ele>81</ele>
        <time>2026-05-19T12:35:31.547Z</time>
      </trkpt>
      <trkpt lat="49.47189" lon="1.16097">
        <ele>81</ele>
        <time>2026-05-19T12:35:35.915Z</time>
      </trkpt>
      <trkpt lat="49.47189" lon="1.16094">
        <ele>85</ele>
        <time>2026-05-19T12:35:40.729Z</time>
      </trkpt>
      <trkpt lat="49.47189" lon="1.1609">
        <ele>85</ele>
        <time>2026-05-19T12:35:45.239Z</time>
      </trkpt>
      <trkpt lat="49.47189" lon="1.16085">
        <ele>85</ele>
        <time>2026-05-19T12:35:49.811Z</time>
      </trkpt>
      <trkpt lat="49.4719" lon="1.1608">
        <ele>85</ele>
        <time>2026-05-19T12:35:58.912Z</time>
      </trkpt>
      <trkpt lat="49.4719" lon="1.16076">
        <ele>85</ele>
        <time>2026-05-19T12:36:03.910Z</time>
      </trkpt>
      <trkpt lat="49.4719" lon="1.1607">
        <ele>85</ele>
        <time>2026-05-19T12:36:08.777Z</time>
      </trkpt>
      <trkpt lat="49.4719" lon="1.16064">
        <ele>90</ele>
        <time>2026-05-19T12:36:13.466Z</time>
      </trkpt>
      <trkpt lat="49.47188" lon="1.16058">
        <ele>90</ele>
        <time>2026-05-19T12:36:17.786Z</time>
      </trkpt>
      <trkpt lat="49.47187" lon="1.16052">
        <ele>90</ele>
        <time>2026-05-19T12:36:21.909Z</time>
      </trkpt>
      <trkpt lat="49.47186" lon="1.16047">
        <ele>90</ele>
        <time>2026-05-19T12:36:26.844Z</time>
      </trkpt>
      <trkpt lat="49.47188" lon="1.16042">
        <ele>90</ele>
        <time>2026-05-19T12:36:30.913Z</time>
      </trkpt>
      <trkpt lat="49.47189" lon="1.16037">
        <ele>96</ele>
        <time>2026-05-19T12:36:35.790Z</time>
      </trkpt>
      <trkpt lat="49.47188" lon="1.16033">
        <ele>96</ele>
        <time>2026-05-19T12:36:40.625Z</time>
      </trkpt>
      <trkpt lat="49.47189" lon="1.16027">
        <ele>96</ele>
        <time>2026-05-19T12:36:44.821Z</time>
      </trkpt>
      <trkpt lat="49.47189" lon="1.16021">
        <ele>96</ele>
        <time>2026-05-19T12:36:48.909Z</time>
      </trkpt>
      <trkpt lat="49.47189" lon="1.16016">
        <ele>96</ele>
        <time>2026-05-19T12:36:53.915Z</time>
      </trkpt>
      <trkpt lat="49.47189" lon="1.16011">
        <ele>102</ele>
        <time>2026-05-19T12:36:58.443Z</time>
      </trkpt>
      <trkpt lat="49.4719" lon="1.16006">
        <ele>102</ele>
        <time>2026-05-19T12:37:02.603Z</time>
      </trkpt>
      <trkpt lat="49.4719" lon="1.16001">
        <ele>102</ele>
        <time>2026-05-19T12:37:06.845Z</time>
      </trkpt>
      <trkpt lat="49.4719" lon="1.15996">
        <ele>102</ele>
        <time>2026-05-19T12:37:10.910Z</time>
      </trkpt>
      <trkpt lat="49.47191" lon="1.1599">
        <ele>102</ele>
        <time>2026-05-19T12:37:15.432Z</time>
      </trkpt>
      <trkpt lat="49.47192" lon="1.15985">
        <ele>108</ele>
        <time>2026-05-19T12:37:19.866Z</time>
      </trkpt>
      <trkpt lat="49.47193" lon="1.15979">
        <ele>108</ele>
        <time>2026-05-19T12:37:23.912Z</time>
      </trkpt>
      <trkpt lat="49.47194" lon="1.15973">
        <ele>108</ele>
        <time>2026-05-19T12:37:28.913Z</time>
      </trkpt>
      <trkpt lat="49.47196" lon="1.15969">
        <ele>108</ele>
        <time>2026-05-19T12:37:46.910Z</time>
      </trkpt>
      <trkpt lat="49.47196" lon="1.15966">
        <ele>108</ele>
        <time>2026-05-19T12:37:51.649Z</time>
      </trkpt>
      <trkpt lat="49.47198" lon="1.15961">
        <ele>108</ele>
        <time>2026-05-19T12:37:55.914Z</time>
      </trkpt>
      <trkpt lat="49.47198" lon="1.15956">
        <ele>112</ele>
        <time>2026-05-19T12:38:00.408Z</time>
      </trkpt>
      <trkpt lat="49.47197" lon="1.15949">
        <ele>112</ele>
        <time>2026-05-19T12:38:05.319Z</time>
      </trkpt>
      <trkpt lat="49.47196" lon="1.15944">
        <ele>112</ele>
        <time>2026-05-19T12:39:05.910Z</time>
      </trkpt>
      <trkpt lat="49.47194" lon="1.15939">
        <ele>112</ele>
        <time>2026-05-19T12:39:10.909Z</time>
      </trkpt>
      <trkpt lat="49.47192" lon="1.15933">
        <ele>112</ele>
        <time>2026-05-19T12:39:14.908Z</time>
      </trkpt>
      <trkpt lat="49.4719" lon="1.15927">
        <ele>116</ele>
        <time>2026-05-19T12:39:18.911Z</time>
      </trkpt>
      <trkpt lat="49.47189" lon="1.1592">
        <ele>116</ele>
        <time>2026-05-19T12:39:23.910Z</time>
      </trkpt>
      <trkpt lat="49.47189" lon="1.15915">
        <ele>116</ele>
        <time>2026-05-19T12:40:54.921Z</time>
      </trkpt>
      <trkpt lat="49.47189" lon="1.15909">
        <ele>116</ele>
        <time>2026-05-19T12:40:59.913Z</time>
      </trkpt>
      <trkpt lat="49.47188" lon="1.15906">
        <ele>116</ele>
        <time>2026-05-19T12:41:04.811Z</time>
      </trkpt>
      <trkpt lat="49.47188" lon="1.15902">
        <ele>118</ele>
        <time>2026-05-19T12:41:09.367Z</time>
      </trkpt>
      <trkpt lat="49.47187" lon="1.15898">
        <ele>118</ele>
        <time>2026-05-19T12:41:13.763Z</time>
      </trkpt>
      <trkpt lat="49.47184" lon="1.15896">
        <ele>118</ele>
        <time>2026-05-19T12:41:18.136Z</time>
      </trkpt>
      <trkpt lat="49.47184" lon="1.15889">
        <ele>118</ele>
        <time>2026-05-19T12:41:22.489Z</time>
      </trkpt>
      <trkpt lat="49.47184" lon="1.15882">
        <ele>118</ele>
        <time>2026-05-19T12:41:26.910Z</time>
      </trkpt>
      <trkpt lat="49.47187" lon="1.15876">
        <ele>118</ele>
        <time>2026-05-19T12:41:31.084Z</time>
      </trkpt>
      <trkpt lat="49.47189" lon="1.15874">
        <ele>117</ele>
        <time>2026-05-19T12:41:35.478Z</time>
      </trkpt>
      <trkpt lat="49.47191" lon="1.15871">
        <ele>117</ele>
        <time>2026-05-19T12:41:39.919Z</time>
      </trkpt>
      <trkpt lat="49.47194" lon="1.15868">
        <ele>117</ele>
        <time>2026-05-19T12:41:44.502Z</time>
      </trkpt>
      <trkpt lat="49.47198" lon="1.15864">
        <ele>117</ele>
        <time>2026-05-19T12:41:48.786Z</time>
      </trkpt>
      <trkpt lat="49.47202" lon="1.15861">
        <ele>117</ele>
        <time>2026-05-19T12:41:53.240Z</time>
      </trkpt>
      <trkpt lat="49.47205" lon="1.15858">
        <ele>117</ele>
        <time>2026-05-19T12:41:57.684Z</time>
      </trkpt>
      <trkpt lat="49.47208" lon="1.15855">
        <ele>117</ele>
        <time>2026-05-19T12:42:02.146Z</time>
      </trkpt>
      <trkpt lat="49.4721" lon="1.15851">
        <ele>126</ele>
        <time>2026-05-19T12:42:06.581Z</time>
      </trkpt>
      <trkpt lat="49.47213" lon="1.1585">
        <ele>126</ele>
        <time>2026-05-19T12:42:11.106Z</time>
      </trkpt>
      <trkpt lat="49.47214" lon="1.15846">
        <ele>126</ele>
        <time>2026-05-19T12:42:15.648Z</time>
      </trkpt>
      <trkpt lat="49.47216" lon="1.15839">
        <ele>126</ele>
        <time>2026-05-19T12:42:20.159Z</time>
      </trkpt>
      <trkpt lat="49.47218" lon="1.15833">
        <ele>126</ele>
        <time>2026-05-19T12:42:24.523Z</time>
      </trkpt>
      <trkpt lat="49.47221" lon="1.15831">
        <ele>126</ele>
        <time>2026-05-19T12:42:28.903Z</time>
      </trkpt>
      <trkpt lat="49.47224" lon="1.15827">
        <ele>126</ele>
        <time>2026-05-19T12:42:33.236Z</time>
      </trkpt>
      <trkpt lat="49.47225" lon="1.15821">
        <ele>126</ele>
        <time>2026-05-19T12:42:37.505Z</time>
      </trkpt>
      <trkpt lat="49.47228" lon="1.15816">
        <ele>125</ele>
        <time>2026-05-19T12:42:41.623Z</time>
      </trkpt>
      <trkpt lat="49.47232" lon="1.15814">
        <ele>125</ele>
        <time>2026-05-19T12:42:45.781Z</time>
      </trkpt>
      <trkpt lat="49.47233" lon="1.15812">
        <ele>125</ele>
        <time>2026-05-19T12:42:49.923Z</time>
      </trkpt>
      <trkpt lat="49.47235" lon="1.15809">
        <ele>125</ele>
        <time>2026-05-19T12:42:54.917Z</time>
      </trkpt>
      <trkpt lat="49.47237" lon="1.15805">
        <ele>135</ele>
        <time>2026-05-19T12:43:00.442Z</time>
      </trkpt>
      <trkpt lat="49.47238" lon="1.15801">
        <ele>135</ele>
        <time>2026-05-19T12:43:04.909Z</time>
      </trkpt>
      <trkpt lat="49.4724" lon="1.15797">
        <ele>135</ele>
        <time>2026-05-19T12:43:09.104Z</time>
      </trkpt>
      <trkpt lat="49.47242" lon="1.15795">
        <ele>135</ele>
        <time>2026-05-19T12:43:13.268Z</time>
      </trkpt>
      <trkpt lat="49.47247" lon="1.15793">
        <ele>135</ele>
        <time>2026-05-19T12:43:17.447Z</time>
      </trkpt>
      <trkpt lat="49.4725" lon="1.15791">
        <ele>133</ele>
        <time>2026-05-19T12:43:21.626Z</time>
      </trkpt>
      <trkpt lat="49.47253" lon="1.15789">
        <ele>133</ele>
        <time>2026-05-19T12:43:25.829Z</time>
      </trkpt>
      <trkpt lat="49.47255" lon="1.15789">
        <ele>133</ele>
        <time>2026-05-19T12:43:29.935Z</time>
      </trkpt>
      <trkpt lat="49.47258" lon="1.15788">
        <ele>133</ele>
        <time>2026-05-19T12:43:34.663Z</time>
      </trkpt>
      <trkpt lat="49.4726" lon="1.15786">
        <ele>133</ele>
        <time>2026-05-19T12:43:38.805Z</time>
      </trkpt>
      <trkpt lat="49.47264" lon="1.15784">
        <ele>138</ele>
        <time>2026-05-19T12:43:42.914Z</time>
      </trkpt>
      <trkpt lat="49.47267" lon="1.15783">
        <ele>138</ele>
        <time>2026-05-19T12:43:47.245Z</time>
      </trkpt>
      <trkpt lat="49.4727" lon="1.15784">
        <ele>138</ele>
        <time>2026-05-19T12:43:51.460Z</time>
      </trkpt>
      <trkpt lat="49.47273" lon="1.15784">
        <ele>138</ele>
        <time>2026-05-19T12:43:55.663Z</time>
      </trkpt>
      <trkpt lat="49.47277" lon="1.15786">
        <ele>138</ele>
        <time>2026-05-19T12:43:59.889Z</time>
      </trkpt>
      <trkpt lat="49.4728" lon="1.15786">
        <ele>138</ele>
        <time>2026-05-19T12:44:04.649Z</time>
      </trkpt>
      <trkpt lat="49.47282" lon="1.15788">
        <ele>138</ele>
        <time>2026-05-19T12:44:08.850Z</time>
      </trkpt>
      <trkpt lat="49.47285" lon="1.15788">
        <ele>138</ele>
        <time>2026-05-19T12:44:13.067Z</time>
      </trkpt>
      <trkpt lat="49.4729" lon="1.15789">
        <ele>138</ele>
        <time>2026-05-19T12:44:17.257Z</time>
      </trkpt>
      <trkpt lat="49.47295" lon="1.15788">
        <ele>138</ele>
        <time>2026-05-19T12:44:21.482Z</time>
      </trkpt>
      <trkpt lat="49.47301" lon="1.15789">
        <ele>138</ele>
        <time>2026-05-19T12:44:25.650Z</time>
      </trkpt>
      <trkpt lat="49.47304" lon="1.15789">
        <ele>138</ele>
        <time>2026-05-19T12:44:29.832Z</time>
      </trkpt>
      <trkpt lat="49.47307" lon="1.15786">
        <ele>138</ele>
        <time>2026-05-19T12:44:33.911Z</time>
      </trkpt>
      <trkpt lat="49.47316" lon="1.15773">
        <ele>138</ele>
        <time>2026-05-19T12:44:38.511Z</time>
      </trkpt>
      <trkpt lat="49.47316" lon="1.15773">
        <ele>138</ele>
        <time>2026-05-19T12:44:42.865Z</time>
      </trkpt>
      <trkpt lat="49.47316" lon="1.15773">
        <ele>138</ele>
        <time>2026-05-19T12:44:47.375Z</time>
      </trkpt>
      <trkpt lat="49.47316" lon="1.15773">
        <ele>138</ele>
        <time>2026-05-19T12:44:51.901Z</time>
      </trkpt>
      <trkpt lat="49.47316" lon="1.15773">
        <ele>138</ele>
        <time>2026-05-19T12:44:55.908Z</time>
      </trkpt>
      <trkpt lat="49.4732" lon="1.1577">
        <ele>139</ele>
        <time>2026-05-19T12:45:00.228Z</time>
      </trkpt>
      <trkpt lat="49.47323" lon="1.15771">
        <ele>139</ele>
        <time>2026-05-19T12:45:04.803Z</time>
      </trkpt>
      <trkpt lat="49.47327" lon="1.1577">
        <ele>139</ele>
        <time>2026-05-19T12:45:09.470Z</time>
      </trkpt>
      <trkpt lat="49.4733" lon="1.15767">
        <ele>139</ele>
        <time>2026-05-19T12:45:13.918Z</time>
      </trkpt>
      <trkpt lat="49.47336" lon="1.15767">
        <ele>139</ele>
        <time>2026-05-19T12:45:18.690Z</time>
      </trkpt>
      <trkpt lat="49.47339" lon="1.15766">
        <ele>139</ele>
        <time>2026-05-19T12:45:23.222Z</time>
      </trkpt>
      <trkpt lat="49.47344" lon="1.15765">
        <ele>139</ele>
        <time>2026-05-19T12:45:27.900Z</time>
      </trkpt>
      <trkpt lat="49.47349" lon="1.15765">
        <ele>139</ele>
        <time>2026-05-19T12:45:32.450Z</time>
      </trkpt>
      <trkpt lat="49.47351" lon="1.15763">
        <ele>141</ele>
        <time>2026-05-19T12:45:36.905Z</time>
      </trkpt>
      <trkpt lat="49.47356" lon="1.15763">
        <ele>141</ele>
        <time>2026-05-19T12:45:40.916Z</time>
      </trkpt>
      <trkpt lat="49.47361" lon="1.15764">
        <ele>141</ele>
        <time>2026-05-19T12:45:44.911Z</time>
      </trkpt>
      <trkpt lat="49.47366" lon="1.15763">
        <ele>141</ele>
        <time>2026-05-19T12:45:49.515Z</time>
      </trkpt>
      <trkpt lat="49.47371" lon="1.15764">
        <ele>139</ele>
        <time>2026-05-19T12:45:54.151Z</time>
      </trkpt>
      <trkpt lat="49.47372" lon="1.15763">
        <ele>141</ele>
        <time>2026-05-19T12:45:58.603Z</time>
      </trkpt>
      <trkpt lat="49.47377" lon="1.15761">
        <ele>141</ele>
        <time>2026-05-19T12:46:03.340Z</time>
      </trkpt>
      <trkpt lat="49.47383" lon="1.15758">
        <ele>141</ele>
        <time>2026-05-19T12:46:07.387Z</time>
      </trkpt>
      <trkpt lat="49.47387" lon="1.15755">
        <ele>141</ele>
        <time>2026-05-19T12:46:11.855Z</time>
      </trkpt>
      <trkpt lat="49.47393" lon="1.15756">
        <ele>141</ele>
        <time>2026-05-19T12:46:15.917Z</time>
      </trkpt>
      <trkpt lat="49.47398" lon="1.15756">
        <ele>141</ele>
        <time>2026-05-19T12:46:20.602Z</time>
      </trkpt>
      <trkpt lat="49.47401" lon="1.15755">
        <ele>141</ele>
        <time>2026-05-19T12:46:25.139Z</time>
      </trkpt>
      <trkpt lat="49.47405" lon="1.15754">
        <ele>141</ele>
        <time>2026-05-19T12:46:29.198Z</time>
      </trkpt>
      <trkpt lat="49.4741" lon="1.15755">
        <ele>141</ele>
        <time>2026-05-19T12:46:33.257Z</time>
      </trkpt>
      <trkpt lat="49.47415" lon="1.15755">
        <ele>141</ele>
        <time>2026-05-19T12:46:37.363Z</time>
      </trkpt>
      <trkpt lat="49.47417" lon="1.15753">
        <ele>141</ele>
        <time>2026-05-19T12:46:41.910Z</time>
      </trkpt>
      <trkpt lat="49.47418" lon="1.15752">
        <ele>141</ele>
        <time>2026-05-19T12:46:46.519Z</time>
      </trkpt>
      <trkpt lat="49.47422" lon="1.15752">
        <ele>141</ele>
        <time>2026-05-19T12:46:50.566Z</time>
      </trkpt>
      <trkpt lat="49.47427" lon="1.15751">
        <ele>141</ele>
        <time>2026-05-19T12:46:54.650Z</time>
      </trkpt>
      <trkpt lat="49.47432" lon="1.15751">
        <ele>142</ele>
        <time>2026-05-19T12:46:58.715Z</time>
      </trkpt>
      <trkpt lat="49.47434" lon="1.15752">
        <ele>142</ele>
        <time>2026-05-19T12:47:03.280Z</time>
      </trkpt>
      <trkpt lat="49.47438" lon="1.15752">
        <ele>142</ele>
        <time>2026-05-19T12:47:07.437Z</time>
      </trkpt>
      <trkpt lat="49.47443" lon="1.1575">
        <ele>142</ele>
        <time>2026-05-19T12:47:11.557Z</time>
      </trkpt>
      <trkpt lat="49.47447" lon="1.15747">
        <ele>142</ele>
        <time>2026-05-19T12:47:15.706Z</time>
      </trkpt>
      <trkpt lat="49.47451" lon="1.15744">
        <ele>142</ele>
        <time>2026-05-19T12:47:19.908Z</time>
      </trkpt>
      <trkpt lat="49.47455" lon="1.15743">
        <ele>142</ele>
        <time>2026-05-19T12:47:23.908Z</time>
      </trkpt>
      <trkpt lat="49.47458" lon="1.15744">
        <ele>142</ele>
        <time>2026-05-19T12:47:28.413Z</time>
      </trkpt>
      <trkpt lat="49.47463" lon="1.15745">
        <ele>143</ele>
        <time>2026-05-19T12:47:32.910Z</time>
      </trkpt>
      <trkpt lat="49.47467" lon="1.15747">
        <ele>143</ele>
        <time>2026-05-19T12:47:37.281Z</time>
      </trkpt>
      <trkpt lat="49.47469" lon="1.15748">
        <ele>143</ele>
        <time>2026-05-19T12:47:41.710Z</time>
      </trkpt>
      <trkpt lat="49.47474" lon="1.15748">
        <ele>143</ele>
        <time>2026-05-19T12:47:45.804Z</time>
      </trkpt>
      <trkpt lat="49.47478" lon="1.15747">
        <ele>143</ele>
        <time>2026-05-19T12:47:50.448Z</time>
      </trkpt>
      <trkpt lat="49.47482" lon="1.15747">
        <ele>143</ele>
        <time>2026-05-19T12:47:54.626Z</time>
      </trkpt>
      <trkpt lat="49.47486" lon="1.15747">
        <ele>143</ele>
        <time>2026-05-19T12:47:58.909Z</time>
      </trkpt>
      <trkpt lat="49.47489" lon="1.1575">
        <ele>144</ele>
        <time>2026-05-19T12:48:03.245Z</time>
      </trkpt>
      <trkpt lat="49.47493" lon="1.15751">
        <ele>144</ele>
        <time>2026-05-19T12:48:07.688Z</time>
      </trkpt>
      <trkpt lat="49.47498" lon="1.15749">
        <ele>144</ele>
        <time>2026-05-19T12:48:11.769Z</time>
      </trkpt>
      <trkpt lat="49.47502" lon="1.1575">
        <ele>144</ele>
        <time>2026-05-19T12:48:15.909Z</time>
      </trkpt>
      <trkpt lat="49.47506" lon="1.15752">
        <ele>144</ele>
        <time>2026-05-19T12:48:19.918Z</time>
      </trkpt>
      <trkpt lat="49.47509" lon="1.15755">
        <ele>144</ele>
        <time>2026-05-19T12:48:24.186Z</time>
      </trkpt>
      <trkpt lat="49.47512" lon="1.15758">
        <ele>144</ele>
        <time>2026-05-19T12:48:28.545Z</time>
      </trkpt>
      <trkpt lat="49.47516" lon="1.15762">
        <ele>146</ele>
        <time>2026-05-19T12:48:32.910Z</time>
      </trkpt>
      <trkpt lat="49.47519" lon="1.15766">
        <ele>145</ele>
        <time>2026-05-19T12:48:37.531Z</time>
      </trkpt>
      <trkpt lat="49.47521" lon="1.15771">
        <ele>145</ele>
        <time>2026-05-19T12:48:42.090Z</time>
      </trkpt>
      <trkpt lat="49.47523" lon="1.15775">
        <ele>145</ele>
        <time>2026-05-19T12:48:46.567Z</time>
      </trkpt>
      <trkpt lat="49.47526" lon="1.15779">
        <ele>145</ele>
        <time>2026-05-19T12:48:50.908Z</time>
      </trkpt>
      <trkpt lat="49.47531" lon="1.1579">
        <ele>145</ele>
        <time>2026-05-19T12:48:54.915Z</time>
      </trkpt>
      <trkpt lat="49.47532" lon="1.15789">
        <ele>145</ele>
        <time>2026-05-19T12:48:59.465Z</time>
      </trkpt>
      <trkpt lat="49.47532" lon="1.15789">
        <ele>145</ele>
        <time>2026-05-19T12:49:03.925Z</time>
      </trkpt>
      <trkpt lat="49.47536" lon="1.15791">
        <ele>145</ele>
        <time>2026-05-19T12:49:08.280Z</time>
      </trkpt>
      <trkpt lat="49.4754" lon="1.15795">
        <ele>145</ele>
        <time>2026-05-19T12:49:12.499Z</time>
      </trkpt>
      <trkpt lat="49.47543" lon="1.15797">
        <ele>145</ele>
        <time>2026-05-19T12:49:16.900Z</time>
      </trkpt>
      <trkpt lat="49.47546" lon="1.15803">
        <ele>145</ele>
        <time>2026-05-19T12:49:20.916Z</time>
      </trkpt>
      <trkpt lat="49.47549" lon="1.15807">
        <ele>145</ele>
        <time>2026-05-19T12:49:25.708Z</time>
      </trkpt>
      <trkpt lat="49.47554" lon="1.1581">
        <ele>145</ele>
        <time>2026-05-19T12:49:30.389Z</time>
      </trkpt>
      <trkpt lat="49.47554" lon="1.1582">
        <ele>145</ele>
        <time>2026-05-19T12:49:34.920Z</time>
      </trkpt>
      <trkpt lat="49.47552" lon="1.15829">
        <ele>145</ele>
        <time>2026-05-19T12:49:39.363Z</time>
      </trkpt>
      <trkpt lat="49.47553" lon="1.15836">
        <ele>145</ele>
        <time>2026-05-19T12:49:43.888Z</time>
      </trkpt>
      <trkpt lat="49.47556" lon="1.15842">
        <ele>145</ele>
        <time>2026-05-19T12:49:48.682Z</time>
      </trkpt>
      <trkpt lat="49.47558" lon="1.15849">
        <ele>145</ele>
        <time>2026-05-19T12:49:53.412Z</time>
      </trkpt>
      <trkpt lat="49.47561" lon="1.15855">
        <ele>145</ele>
        <time>2026-05-19T12:49:57.648Z</time>
      </trkpt>
      <trkpt lat="49.47565" lon="1.1586">
        <ele>145</ele>
        <time>2026-05-19T12:50:01.829Z</time>
      </trkpt>
      <trkpt lat="49.47568" lon="1.15864">
        <ele>145</ele>
        <time>2026-05-19T12:50:06.244Z</time>
      </trkpt>
      <trkpt lat="49.47573" lon="1.15868">
        <ele>146</ele>
        <time>2026-05-19T12:50:10.807Z</time>
      </trkpt>
      <trkpt lat="49.47577" lon="1.15871">
        <ele>146</ele>
        <time>2026-05-19T12:50:14.876Z</time>
      </trkpt>
      <trkpt lat="49.47581" lon="1.15877">
        <ele>146</ele>
        <time>2026-05-19T12:50:19.676Z</time>
      </trkpt>
      <trkpt lat="49.47584" lon="1.15882">
        <ele>146</ele>
        <time>2026-05-19T12:50:24.260Z</time>
      </trkpt>
      <trkpt lat="49.47587" lon="1.15887">
        <ele>146</ele>
        <time>2026-05-19T12:50:28.889Z</time>
      </trkpt>
      <trkpt lat="49.47589" lon="1.15892">
        <ele>146</ele>
        <time>2026-05-19T12:50:33.567Z</time>
      </trkpt>
      <trkpt lat="49.47592" lon="1.15899">
        <ele>146</ele>
        <time>2026-05-19T12:50:37.905Z</time>
      </trkpt>
      <trkpt lat="49.47597" lon="1.15902">
        <ele>146</ele>
        <time>2026-05-19T12:50:42.854Z</time>
      </trkpt>
      <trkpt lat="49.47602" lon="1.15906">
        <ele>150</ele>
        <time>2026-05-19T12:50:47.447Z</time>
      </trkpt>
      <trkpt lat="49.47607" lon="1.15911">
        <ele>150</ele>
        <time>2026-05-19T12:50:51.910Z</time>
      </trkpt>
      <trkpt lat="49.47612" lon="1.15914">
        <ele>150</ele>
        <time>2026-05-19T12:50:56.567Z</time>
      </trkpt>
      <trkpt lat="49.47616" lon="1.15917">
        <ele>150</ele>
        <time>2026-05-19T12:51:00.592Z</time>
      </trkpt>
      <trkpt lat="49.4762" lon="1.15926">
        <ele>150</ele>
        <time>2026-05-19T12:51:04.709Z</time>
      </trkpt>
      <trkpt lat="49.47624" lon="1.15932">
        <ele>151</ele>
        <time>2026-05-19T12:51:08.914Z</time>
      </trkpt>
      <trkpt lat="49.47629" lon="1.15937">
        <ele>152</ele>
        <time>2026-05-19T12:51:13.521Z</time>
      </trkpt>
      <trkpt lat="49.47634" lon="1.15943">
        <ele>152</ele>
        <time>2026-05-19T12:51:17.913Z</time>
      </trkpt>
      <trkpt lat="49.47637" lon="1.15949">
        <ele>152</ele>
        <time>2026-05-19T12:51:22.780Z</time>
      </trkpt>
      <trkpt lat="49.47641" lon="1.15955">
        <ele>152</ele>
        <time>2026-05-19T12:51:26.906Z</time>
      </trkpt>
      <trkpt lat="49.47645" lon="1.15961">
        <ele>152</ele>
        <time>2026-05-19T12:51:31.909Z</time>
      </trkpt>
      <trkpt lat="49.4765" lon="1.15966">
        <ele>152</ele>
        <time>2026-05-19T12:51:36.912Z</time>
      </trkpt>
      <trkpt lat="49.47654" lon="1.15968">
        <ele>152</ele>
        <time>2026-05-19T12:51:41.905Z</time>
      </trkpt>
      <trkpt lat="49.47657" lon="1.15972">
        <ele>152</ele>
        <time>2026-05-19T12:51:46.911Z</time>
      </trkpt>
      <trkpt lat="49.47661" lon="1.15974">
        <ele>152</ele>
        <time>2026-05-19T12:51:51.424Z</time>
      </trkpt>
      <trkpt lat="49.47665" lon="1.15977">
        <ele>152</ele>
        <time>2026-05-19T12:51:55.665Z</time>
      </trkpt>
      <trkpt lat="49.4767" lon="1.15978">
        <ele>152</ele>
        <time>2026-05-19T12:52:00.483Z</time>
      </trkpt>
      <trkpt lat="49.47674" lon="1.1598">
        <ele>152</ele>
        <time>2026-05-19T12:52:04.908Z</time>
      </trkpt>
      <trkpt lat="49.47679" lon="1.15983">
        <ele>152</ele>
        <time>2026-05-19T12:52:09.672Z</time>
      </trkpt>
      <trkpt lat="49.47685" lon="1.15987">
        <ele>153</ele>
        <time>2026-05-19T12:52:14.270Z</time>
      </trkpt>
      <trkpt lat="49.47691" lon="1.1599">
        <ele>153</ele>
        <time>2026-05-19T12:52:18.928Z</time>
      </trkpt>
      <trkpt lat="49.47696" lon="1.15993">
        <ele>153</ele>
        <time>2026-05-19T12:52:23.471Z</time>
      </trkpt>
      <trkpt lat="49.47701" lon="1.15996">
        <ele>153</ele>
        <time>2026-05-19T12:52:27.864Z</time>
      </trkpt>
      <trkpt lat="49.47704" lon="1.16">
        <ele>153</ele>
        <time>2026-05-19T12:52:32.446Z</time>
      </trkpt>
      <trkpt lat="49.47708" lon="1.16003">
        <ele>153</ele>
        <time>2026-05-19T12:52:36.910Z</time>
      </trkpt>
      <trkpt lat="49.47712" lon="1.16006">
        <ele>150</ele>
        <time>2026-05-19T12:52:41.663Z</time>
      </trkpt>
      <trkpt lat="49.47716" lon="1.16009">
        <ele>150</ele>
        <time>2026-05-19T12:52:45.913Z</time>
      </trkpt>
      <trkpt lat="49.4772" lon="1.16012">
        <ele>150</ele>
        <time>2026-05-19T12:52:50.867Z</time>
      </trkpt>
      <trkpt lat="49.47724" lon="1.16016">
        <ele>150</ele>
        <time>2026-05-19T12:52:55.460Z</time>
      </trkpt>
      <trkpt lat="49.47728" lon="1.16019">
        <ele>150</ele>
        <time>2026-05-19T12:52:59.915Z</time>
      </trkpt>
      <trkpt lat="49.47732" lon="1.16023">
        <ele>150</ele>
        <time>2026-05-19T12:53:04.910Z</time>
      </trkpt>
      <trkpt lat="49.47737" lon="1.16027">
        <ele>146</ele>
        <time>2026-05-19T12:53:09.731Z</time>
      </trkpt>
      <trkpt lat="49.4774" lon="1.16032">
        <ele>146</ele>
        <time>2026-05-19T12:53:13.803Z</time>
      </trkpt>
      <trkpt lat="49.47745" lon="1.16036">
        <ele>146</ele>
        <time>2026-05-19T12:53:17.908Z</time>
      </trkpt>
      <trkpt lat="49.4775" lon="1.1604">
        <ele>146</ele>
        <time>2026-05-19T12:53:22.908Z</time>
      </trkpt>
      <trkpt lat="49.47755" lon="1.16041">
        <ele>146</ele>
        <time>2026-05-19T12:53:26.915Z</time>
      </trkpt>
      <trkpt lat="49.47759" lon="1.16043">
        <ele>147</ele>
        <time>2026-05-19T12:53:31.413Z</time>
      </trkpt>
      <trkpt lat="49.47761" lon="1.16044">
        <ele>147</ele>
        <time>2026-05-19T12:53:35.624Z</time>
      </trkpt>
      <trkpt lat="49.47766" lon="1.16045">
        <ele>146</ele>
        <time>2026-05-19T12:53:40.284Z</time>
      </trkpt>
      <trkpt lat="49.47769" lon="1.1605">
        <ele>146</ele>
        <time>2026-05-19T12:53:44.916Z</time>
      </trkpt>
      <trkpt lat="49.47771" lon="1.16055">
        <ele>146</ele>
        <time>2026-05-19T12:53:49.841Z</time>
      </trkpt>
      <trkpt lat="49.47775" lon="1.16061">
        <ele>146</ele>
        <time>2026-05-19T12:53:53.917Z</time>
      </trkpt>
      <trkpt lat="49.47777" lon="1.16066">
        <ele>146</ele>
        <time>2026-05-19T12:53:58.624Z</time>
      </trkpt>
      <trkpt lat="49.4778" lon="1.1607">
        <ele>147</ele>
        <time>2026-05-19T12:54:02.736Z</time>
      </trkpt>
      <trkpt lat="49.47783" lon="1.16074">
        <ele>147</ele>
        <time>2026-05-19T12:54:07.392Z</time>
      </trkpt>
      <trkpt lat="49.47787" lon="1.16078">
        <ele>147</ele>
        <time>2026-05-19T12:54:11.910Z</time>
      </trkpt>
      <trkpt lat="49.47792" lon="1.16081">
        <ele>147</ele>
        <time>2026-05-19T12:54:16.915Z</time>
      </trkpt>
      <trkpt lat="49.47795" lon="1.16082">
        <ele>147</ele>
        <time>2026-05-19T12:54:21.855Z</time>
      </trkpt>
      <trkpt lat="49.47798" lon="1.16087">
        <ele>147</ele>
        <time>2026-05-19T12:54:26.798Z</time>
      </trkpt>
      <trkpt lat="49.47803" lon="1.16093">
        <ele>147</ele>
        <time>2026-05-19T12:54:31.306Z</time>
      </trkpt>
      <trkpt lat="49.47808" lon="1.16098">
        <ele>147</ele>
        <time>2026-05-19T12:54:35.912Z</time>
      </trkpt>
      <trkpt lat="49.47812" lon="1.16102">
        <ele>147</ele>
        <time>2026-05-19T12:57:46.909Z</time>
      </trkpt>
      <trkpt lat="49.47815" lon="1.16107">
        <ele>147</ele>
        <time>2026-05-19T12:57:51.910Z</time>
      </trkpt>
      <trkpt lat="49.47818" lon="1.16112">
        <ele>147</ele>
        <time>2026-05-19T12:57:58.911Z</time>
      </trkpt>
      <trkpt lat="49.47823" lon="1.16115">
        <ele>146</ele>
        <time>2026-05-19T12:58:04.916Z</time>
      </trkpt>
      <trkpt lat="49.47827" lon="1.16119">
        <ele>146</ele>
        <time>2026-05-19T12:58:10.908Z</time>
      </trkpt>
      <trkpt lat="49.47832" lon="1.16122">
        <ele>146</ele>
        <time>2026-05-19T13:01:03.905Z</time>
      </trkpt>
      <trkpt lat="49.47835" lon="1.16125">
        <ele>146</ele>
        <time>2026-05-19T13:01:07.911Z</time>
      </trkpt>
      <trkpt lat="49.47839" lon="1.16129">
        <ele>146</ele>
        <time>2026-05-19T13:01:11.906Z</time>
      </trkpt>
      <trkpt lat="49.47842" lon="1.16134">
        <ele>146</ele>
        <time>2026-05-19T13:01:15.912Z</time>
      </trkpt>
      <trkpt lat="49.47846" lon="1.1614">
        <ele>146</ele>
        <time>2026-05-19T13:01:20.911Z</time>
      </trkpt>
      <trkpt lat="49.4785" lon="1.16144">
        <ele>145</ele>
        <time>2026-05-19T13:01:24.909Z</time>
      </trkpt>
      <trkpt lat="49.47854" lon="1.16147">
        <ele>145</ele>
        <time>2026-05-19T13:01:29.722Z</time>
      </trkpt>
      <trkpt lat="49.47857" lon="1.16152">
        <ele>145</ele>
        <time>2026-05-19T13:01:34.212Z</time>
      </trkpt>
      <trkpt lat="49.47861" lon="1.16157">
        <ele>145</ele>
        <time>2026-05-19T13:01:38.354Z</time>
      </trkpt>
      <trkpt lat="49.47864" lon="1.16163">
        <ele>145</ele>
        <time>2026-05-19T13:01:42.911Z</time>
      </trkpt>
      <trkpt lat="49.47869" lon="1.16166">
        <ele>145</ele>
        <time>2026-05-19T13:01:47.461Z</time>
      </trkpt>
      <trkpt lat="49.47873" lon="1.1617">
        <ele>145</ele>
        <time>2026-05-19T13:01:51.904Z</time>
      </trkpt>
      <trkpt lat="49.47879" lon="1.16173">
        <ele>144</ele>
        <time>2026-05-19T13:01:56.285Z</time>
      </trkpt>
      <trkpt lat="49.47883" lon="1.16177">
        <ele>144</ele>
        <time>2026-05-19T13:02:00.808Z</time>
      </trkpt>
      <trkpt lat="49.47885" lon="1.16182">
        <ele>144</ele>
        <time>2026-05-19T13:02:05.162Z</time>
      </trkpt>
      <trkpt lat="49.47886" lon="1.16189">
        <ele>144</ele>
        <time>2026-05-19T13:02:09.673Z</time>
      </trkpt>
      <trkpt lat="49.47889" lon="1.16195">
        <ele>144</ele>
        <time>2026-05-19T13:02:13.769Z</time>
      </trkpt>
      <trkpt lat="49.47892" lon="1.162">
        <ele>144</ele>
        <time>2026-05-19T13:02:18.163Z</time>
      </trkpt>
      <trkpt lat="49.47898" lon="1.16202">
        <ele>144</ele>
        <time>2026-05-19T13:02:22.624Z</time>
      </trkpt>
      <trkpt lat="49.47903" lon="1.16203">
        <ele>144</ele>
        <time>2026-05-19T13:02:27.412Z</time>
      </trkpt>
      <trkpt lat="49.47908" lon="1.16203">
        <ele>144</ele>
        <time>2026-05-19T13:02:31.614Z</time>
      </trkpt>
      <trkpt lat="49.47914" lon="1.16206">
        <ele>144</ele>
        <time>2026-05-19T13:02:36.304Z</time>
      </trkpt>
      <trkpt lat="49.47919" lon="1.16209">
        <ele>144</ele>
        <time>2026-05-19T13:02:40.919Z</time>
      </trkpt>
      <trkpt lat="49.47922" lon="1.16215">
        <ele>144</ele>
        <time>2026-05-19T13:02:44.909Z</time>
      </trkpt>
      <trkpt lat="49.47926" lon="1.16221">
        <ele>144</ele>
        <time>2026-05-19T13:02:49.126Z</time>
      </trkpt>
      <trkpt lat="49.47932" lon="1.16225">
        <ele>145</ele>
        <time>2026-05-19T13:02:53.334Z</time>
      </trkpt>
      <trkpt lat="49.47938" lon="1.16226">
        <ele>145</ele>
        <time>2026-05-19T13:02:57.745Z</time>
      </trkpt>
      <trkpt lat="49.47944" lon="1.16227">
        <ele>145</ele>
        <time>2026-05-19T13:03:02.354Z</time>
      </trkpt>
      <trkpt lat="49.4795" lon="1.16228">
        <ele>145</ele>
        <time>2026-05-19T13:03:06.865Z</time>
      </trkpt>
      <trkpt lat="49.47956" lon="1.1623">
        <ele>145</ele>
        <time>2026-05-19T13:03:11.389Z</time>
      </trkpt>
      <trkpt lat="49.4796" lon="1.16234">
        <ele>145</ele>
        <time>2026-05-19T13:03:15.818Z</time>
      </trkpt>
      <trkpt lat="49.47962" lon="1.16239">
        <ele>145</ele>
        <time>2026-05-19T13:03:19.900Z</time>
      </trkpt>
      <trkpt lat="49.47967" lon="1.16242">
        <ele>145</ele>
        <time>2026-05-19T13:03:24.388Z</time>
      </trkpt>
      <trkpt lat="49.47973" lon="1.16243">
        <ele>145</ele>
        <time>2026-05-19T13:03:28.685Z</time>
      </trkpt>
      <trkpt lat="49.47978" lon="1.16243">
        <ele>145</ele>
        <time>2026-05-19T13:03:32.804Z</time>
      </trkpt>
      <trkpt lat="49.47983" lon="1.16242">
        <ele>145</ele>
        <time>2026-05-19T13:03:36.905Z</time>
      </trkpt>
      <trkpt lat="49.47988" lon="1.16243">
        <ele>146</ele>
        <time>2026-05-19T13:03:41.245Z</time>
      </trkpt>
      <trkpt lat="49.47993" lon="1.16245">
        <ele>146</ele>
        <time>2026-05-19T13:03:45.388Z</time>
      </trkpt>
      <trkpt lat="49.47998" lon="1.16248">
        <ele>146</ele>
        <time>2026-05-19T13:03:49.651Z</time>
      </trkpt>
      <trkpt lat="49.48003" lon="1.16249">
        <ele>146</ele>
        <time>2026-05-19T13:03:53.781Z</time>
      </trkpt>
      <trkpt lat="49.48008" lon="1.16251">
        <ele>146</ele>
        <time>2026-05-19T13:03:57.904Z</time>
      </trkpt>
      <trkpt lat="49.48012" lon="1.16252">
        <ele>146</ele>
        <time>2026-05-19T13:04:02.258Z</time>
      </trkpt>
      <trkpt lat="49.48016" lon="1.16253">
        <ele>146</ele>
        <time>2026-05-19T13:04:06.567Z</time>
      </trkpt>
      <trkpt lat="49.4802" lon="1.16254">
        <ele>146</ele>
        <time>2026-05-19T13:04:10.832Z</time>
      </trkpt>
      <trkpt lat="49.48024" lon="1.16257">
        <ele>146</ele>
        <time>2026-05-19T13:04:15.126Z</time>
      </trkpt>
      <trkpt lat="49.48028" lon="1.16262">
        <ele>146</ele>
        <time>2026-05-19T13:04:19.269Z</time>
      </trkpt>
      <trkpt lat="49.48032" lon="1.16264">
        <ele>146</ele>
        <time>2026-05-19T13:04:23.334Z</time>
      </trkpt>
      <trkpt lat="49.48036" lon="1.16264">
        <ele>146</ele>
        <time>2026-05-19T13:04:27.413Z</time>
      </trkpt>
      <trkpt lat="49.48042" lon="1.16266">
        <ele>146</ele>
        <time>2026-05-19T13:04:31.448Z</time>
      </trkpt>
      <trkpt lat="49.48048" lon="1.16268">
        <ele>146</ele>
        <time>2026-05-19T13:04:35.905Z</time>
      </trkpt>
      <trkpt lat="49.48053" lon="1.16269">
        <ele>146</ele>
        <time>2026-05-19T13:04:39.904Z</time>
      </trkpt>
      <trkpt lat="49.48058" lon="1.1627">
        <ele>146</ele>
        <time>2026-05-19T13:04:44.829Z</time>
      </trkpt>
      <trkpt lat="49.48063" lon="1.16269">
        <ele>146</ele>
        <time>2026-05-19T13:04:48.889Z</time>
      </trkpt>
      <trkpt lat="49.48069" lon="1.16267">
        <ele>146</ele>
        <time>2026-05-19T13:04:53.595Z</time>
      </trkpt>
      <trkpt lat="49.48074" lon="1.16265">
        <ele>145</ele>
        <time>2026-05-19T13:05:02.901Z</time>
      </trkpt>
      <trkpt lat="49.4808" lon="1.16264">
        <ele>145</ele>
        <time>2026-05-19T13:05:06.900Z</time>
      </trkpt>
      <trkpt lat="49.48085" lon="1.16261">
        <ele>145</ele>
        <time>2026-05-19T13:05:11.907Z</time>
      </trkpt>
      <trkpt lat="49.48089" lon="1.16258">
        <ele>145</ele>
        <time>2026-05-19T13:05:16.806Z</time>
      </trkpt>
      <trkpt lat="49.48092" lon="1.16255">
        <ele>145</ele>
        <time>2026-05-19T13:05:20.800Z</time>
      </trkpt>
      <trkpt lat="49.48096" lon="1.16254">
        <ele>145</ele>
        <time>2026-05-19T13:05:24.913Z</time>
      </trkpt>
      <trkpt lat="49.48101" lon="1.16256">
        <ele>145</ele>
        <time>2026-05-19T13:05:29.559Z</time>
      </trkpt>
      <trkpt lat="49.48104" lon="1.16258">
        <ele>145</ele>
        <time>2026-05-19T13:05:33.439Z</time>
      </trkpt>
      <trkpt lat="49.48107" lon="1.16261">
        <ele>145</ele>
        <time>2026-05-19T13:05:38.350Z</time>
      </trkpt>
      <trkpt lat="49.48112" lon="1.16262">
        <ele>145</ele>
        <time>2026-05-19T13:05:42.571Z</time>
      </trkpt>
      <trkpt lat="49.48116" lon="1.16259">
        <ele>145</ele>
        <time>2026-05-19T13:05:46.819Z</time>
      </trkpt>
      <trkpt lat="49.4812" lon="1.16253">
        <ele>145</ele>
        <time>2026-05-19T13:05:51.123Z</time>
      </trkpt>
      <trkpt lat="49.48126" lon="1.1625">
        <ele>147</ele>
        <time>2026-05-19T13:05:55.441Z</time>
      </trkpt>
      <trkpt lat="49.48131" lon="1.16248">
        <ele>147</ele>
        <time>2026-05-19T13:05:59.865Z</time>
      </trkpt>
      <trkpt lat="49.48137" lon="1.16249">
        <ele>147</ele>
        <time>2026-05-19T13:06:04.287Z</time>
      </trkpt>
      <trkpt lat="49.48141" lon="1.16248">
        <ele>147</ele>
        <time>2026-05-19T13:06:08.865Z</time>
      </trkpt>
      <trkpt lat="49.48145" lon="1.16248">
        <ele>147</ele>
        <time>2026-05-19T13:06:12.911Z</time>
      </trkpt>
      <trkpt lat="49.48151" lon="1.1625">
        <ele>147</ele>
        <time>2026-05-19T13:06:17.571Z</time>
      </trkpt>
      <trkpt lat="49.48154" lon="1.16252">
        <ele>149</ele>
        <time>2026-05-19T13:06:21.884Z</time>
      </trkpt>
      <trkpt lat="49.48157" lon="1.16254">
        <ele>149</ele>
        <time>2026-05-19T13:06:26.289Z</time>
      </trkpt>
      <trkpt lat="49.48162" lon="1.16254">
        <ele>149</ele>
        <time>2026-05-19T13:06:30.701Z</time>
      </trkpt>
      <trkpt lat="49.48168" lon="1.16255">
        <ele>149</ele>
        <time>2026-05-19T13:06:34.896Z</time>
      </trkpt>
      <trkpt lat="49.48174" lon="1.16256">
        <ele>149</ele>
        <time>2026-05-19T13:06:39.189Z</time>
      </trkpt>
      <trkpt lat="49.4818" lon="1.16257">
        <ele>149</ele>
        <time>2026-05-19T13:06:43.363Z</time>
      </trkpt>
      <trkpt lat="49.48184" lon="1.16259">
        <ele>150</ele>
        <time>2026-05-19T13:06:47.721Z</time>
      </trkpt>
      <trkpt lat="49.4819" lon="1.16259">
        <ele>150</ele>
        <time>2026-05-19T13:06:52.145Z</time>
      </trkpt>
      <trkpt lat="49.48195" lon="1.1626">
        <ele>150</ele>
        <time>2026-05-19T13:06:56.438Z</time>
      </trkpt>
      <trkpt lat="49.482" lon="1.1626">
        <ele>150</ele>
        <time>2026-05-19T13:07:00.701Z</time>
      </trkpt>
      <trkpt lat="49.48204" lon="1.16261">
        <ele>150</ele>
        <time>2026-05-19T13:07:04.902Z</time>
      </trkpt>
      <trkpt lat="49.48209" lon="1.16263">
        <ele>149</ele>
        <time>2026-05-19T13:07:09.383Z</time>
      </trkpt>
      <trkpt lat="49.48213" lon="1.16266">
        <ele>149</ele>
        <time>2026-05-19T13:07:13.811Z</time>
      </trkpt>
      <trkpt lat="49.48218" lon="1.16268">
        <ele>149</ele>
        <time>2026-05-19T13:07:17.903Z</time>
      </trkpt>
      <trkpt lat="49.48223" lon="1.1627">
        <ele>149</ele>
        <time>2026-05-19T13:07:22.298Z</time>
      </trkpt>
      <trkpt lat="49.48229" lon="1.16272">
        <ele>149</ele>
        <time>2026-05-19T13:07:26.580Z</time>
      </trkpt>
      <trkpt lat="49.48234" lon="1.16272">
        <ele>149</ele>
        <time>2026-05-19T13:07:30.907Z</time>
      </trkpt>
      <trkpt lat="49.48239" lon="1.16274">
        <ele>148</ele>
        <time>2026-05-19T13:07:35.243Z</time>
      </trkpt>
      <trkpt lat="49.48244" lon="1.16276">
        <ele>148</ele>
        <time>2026-05-19T13:07:39.570Z</time>
      </trkpt>
      <trkpt lat="49.48248" lon="1.16278">
        <ele>148</ele>
        <time>2026-05-19T13:07:43.787Z</time>
      </trkpt>
      <trkpt lat="49.48253" lon="1.16281">
        <ele>148</ele>
        <time>2026-05-19T13:07:48.199Z</time>
      </trkpt>
      <trkpt lat="49.48258" lon="1.16285">
        <ele>148</ele>
        <time>2026-05-19T13:07:52.505Z</time>
      </trkpt>
      <trkpt lat="49.48264" lon="1.16287">
        <ele>148</ele>
        <time>2026-05-19T13:07:56.906Z</time>
      </trkpt>
      <trkpt lat="49.48269" lon="1.16288">
        <ele>147</ele>
        <time>2026-05-19T13:08:01.331Z</time>
      </trkpt>
      <trkpt lat="49.48274" lon="1.16289">
        <ele>147</ele>
        <time>2026-05-19T13:08:05.789Z</time>
      </trkpt>
      <trkpt lat="49.48278" lon="1.16289">
        <ele>147</ele>
        <time>2026-05-19T13:08:10.124Z</time>
      </trkpt>
      <trkpt lat="49.48282" lon="1.1629">
        <ele>147</ele>
        <time>2026-05-19T13:08:14.667Z</time>
      </trkpt>
      <trkpt lat="49.48286" lon="1.16292">
        <ele>142</ele>
        <time>2026-05-19T13:08:19.105Z</time>
      </trkpt>
      <trkpt lat="49.48291" lon="1.16295">
        <ele>142</ele>
        <time>2026-05-19T13:08:23.428Z</time>
      </trkpt>
      <trkpt lat="49.48295" lon="1.16296">
        <ele>142</ele>
        <time>2026-05-19T13:08:27.679Z</time>
      </trkpt>
      <trkpt lat="49.483" lon="1.16295">
        <ele>142</ele>
        <time>2026-05-19T13:08:31.909Z</time>
      </trkpt>
      <trkpt lat="49.48305" lon="1.16294">
        <ele>142</ele>
        <time>2026-05-19T13:08:36.222Z</time>
      </trkpt>
      <trkpt lat="49.48309" lon="1.16293">
        <ele>142</ele>
        <time>2026-05-19T13:08:40.603Z</time>
      </trkpt>
      <trkpt lat="49.48314" lon="1.16292">
        <ele>142</ele>
        <time>2026-05-19T13:08:44.767Z</time>
      </trkpt>
      <trkpt lat="49.48318" lon="1.16291">
        <ele>147</ele>
        <time>2026-05-19T13:08:49.387Z</time>
      </trkpt>
      <trkpt lat="49.48323" lon="1.16291">
        <ele>147</ele>
        <time>2026-05-19T13:08:53.626Z</time>
      </trkpt>
      <trkpt lat="49.48329" lon="1.16291">
        <ele>147</ele>
        <time>2026-05-19T13:08:58.243Z</time>
      </trkpt>
      <trkpt lat="49.48334" lon="1.1629">
        <ele>147</ele>
        <time>2026-05-19T13:09:02.452Z</time>
      </trkpt>
      <trkpt lat="49.4834" lon="1.16289">
        <ele>147</ele>
        <time>2026-05-19T13:09:06.864Z</time>
      </trkpt>
      <trkpt lat="49.48345" lon="1.1629">
        <ele>147</ele>
        <time>2026-05-19T13:09:11.203Z</time>
      </trkpt>
      <trkpt lat="49.48349" lon="1.1629">
        <ele>144</ele>
        <time>2026-05-19T13:09:15.755Z</time>
      </trkpt>
      <trkpt lat="49.48353" lon="1.1629">
        <ele>144</ele>
        <time>2026-05-19T13:09:20.167Z</time>
      </trkpt>
      <trkpt lat="49.48357" lon="1.16291">
        <ele>144</ele>
        <time>2026-05-19T13:09:24.844Z</time>
      </trkpt>
      <trkpt lat="49.48361" lon="1.16288">
        <ele>144</ele>
        <time>2026-05-19T13:09:28.842Z</time>
      </trkpt>
      <trkpt lat="49.48367" lon="1.16286">
        <ele>144</ele>
        <time>2026-05-19T13:09:32.905Z</time>
      </trkpt>
      <trkpt lat="49.48373" lon="1.16288">
        <ele>144</ele>
        <time>2026-05-19T13:09:37.408Z</time>
      </trkpt>
      <trkpt lat="49.48379" lon="1.16291">
        <ele>143</ele>
        <time>2026-05-19T13:09:41.901Z</time>
      </trkpt>
      <trkpt lat="49.48382" lon="1.16296">
        <ele>139</ele>
        <time>2026-05-19T13:09:45.901Z</time>
      </trkpt>
      <trkpt lat="49.48386" lon="1.163">
        <ele>139</ele>
        <time>2026-05-19T13:09:50.345Z</time>
      </trkpt>
      <trkpt lat="49.48391" lon="1.16303">
        <ele>139</ele>
        <time>2026-05-19T13:09:54.584Z</time>
      </trkpt>
      <trkpt lat="49.48396" lon="1.16306">
        <ele>139</ele>
        <time>2026-05-19T13:09:58.886Z</time>
      </trkpt>
      <trkpt lat="49.48401" lon="1.16306">
        <ele>139</ele>
        <time>2026-05-19T13:10:03.159Z</time>
      </trkpt>
      <trkpt lat="49.48405" lon="1.16303">
        <ele>139</ele>
        <time>2026-05-19T13:10:07.400Z</time>
      </trkpt>
      <trkpt lat="49.4841" lon="1.16298">
        <ele>139</ele>
        <time>2026-05-19T13:10:11.718Z</time>
      </trkpt>
      <trkpt lat="49.48414" lon="1.16293">
        <ele>139</ele>
        <time>2026-05-19T13:10:15.904Z</time>
      </trkpt>
      <trkpt lat="49.48418" lon="1.16289">
        <ele>143</ele>
        <time>2026-05-19T13:10:20.353Z</time>
      </trkpt>
      <trkpt lat="49.48422" lon="1.16288">
        <ele>143</ele>
        <time>2026-05-19T13:10:24.467Z</time>
      </trkpt>
      <trkpt lat="49.48428" lon="1.16288">
        <ele>143</ele>
        <time>2026-05-19T13:10:28.742Z</time>
      </trkpt>
      <trkpt lat="49.48433" lon="1.16289">
        <ele>140</ele>
        <time>2026-05-19T13:10:32.844Z</time>
      </trkpt>
      <trkpt lat="49.48437" lon="1.16288">
        <ele>140</ele>
        <time>2026-05-19T13:10:37.123Z</time>
      </trkpt>
      <trkpt lat="49.48441" lon="1.16287">
        <ele>140</ele>
        <time>2026-05-19T13:10:41.387Z</time>
      </trkpt>
      <trkpt lat="49.48445" lon="1.16286">
        <ele>140</ele>
        <time>2026-05-19T13:10:45.820Z</time>
      </trkpt>
      <trkpt lat="49.48449" lon="1.16283">
        <ele>140</ele>
        <time>2026-05-19T13:10:49.844Z</time>
      </trkpt>
      <trkpt lat="49.48454" lon="1.1628">
        <ele>140</ele>
        <time>2026-05-19T13:10:54.095Z</time>
      </trkpt>
      <trkpt lat="49.48459" lon="1.16278">
        <ele>139</ele>
        <time>2026-05-19T13:10:58.229Z</time>
      </trkpt>
      <trkpt lat="49.48464" lon="1.16276">
        <ele>139</ele>
        <time>2026-05-19T13:11:02.432Z</time>
      </trkpt>
      <trkpt lat="49.48469" lon="1.16275">
        <ele>139</ele>
        <time>2026-05-19T13:11:06.669Z</time>
      </trkpt>
      <trkpt lat="49.48473" lon="1.16274">
        <ele>139</ele>
        <time>2026-05-19T13:11:10.903Z</time>
      </trkpt>
      <trkpt lat="49.48478" lon="1.16271">
        <ele>139</ele>
        <time>2026-05-19T13:11:15.083Z</time>
      </trkpt>
      <trkpt lat="49.48483" lon="1.1627">
        <ele>139</ele>
        <time>2026-05-19T13:11:19.409Z</time>
      </trkpt>
      <trkpt lat="49.48489" lon="1.16269">
        <ele>138</ele>
        <time>2026-05-19T13:11:23.683Z</time>
      </trkpt>
      <trkpt lat="49.48494" lon="1.16267">
        <ele>138</ele>
        <time>2026-05-19T13:11:27.902Z</time>
      </trkpt>
      <trkpt lat="49.485" lon="1.16265">
        <ele>138</ele>
        <time>2026-05-19T13:11:32.273Z</time>
      </trkpt>
      <trkpt lat="49.48505" lon="1.16265">
        <ele>138</ele>
        <time>2026-05-19T13:11:36.525Z</time>
      </trkpt>
      <trkpt lat="49.48511" lon="1.16265">
        <ele>138</ele>
        <time>2026-05-19T13:11:40.708Z</time>
      </trkpt>
      <trkpt lat="49.48515" lon="1.16262">
        <ele>141</ele>
        <time>2026-05-19T13:11:44.915Z</time>
      </trkpt>
      <trkpt lat="49.48519" lon="1.1626">
        <ele>141</ele>
        <time>2026-05-19T13:11:49.172Z</time>
      </trkpt>
      <trkpt lat="49.48522" lon="1.16262">
        <ele>141</ele>
        <time>2026-05-19T13:11:53.344Z</time>
      </trkpt>
      <trkpt lat="49.48526" lon="1.16262">
        <ele>141</ele>
        <time>2026-05-19T13:11:57.445Z</time>
      </trkpt>
      <trkpt lat="49.48531" lon="1.16261">
        <ele>141</ele>
        <time>2026-05-19T13:12:01.612Z</time>
      </trkpt>
      <trkpt lat="49.48536" lon="1.1626">
        <ele>141</ele>
        <time>2026-05-19T13:12:06.295Z</time>
      </trkpt>
      <trkpt lat="49.48541" lon="1.1626">
        <ele>141</ele>
        <time>2026-05-19T13:12:10.549Z</time>
      </trkpt>
      <trkpt lat="49.48543" lon="1.16261">
        <ele>141</ele>
        <time>2026-05-19T13:12:14.831Z</time>
      </trkpt>
      <trkpt lat="49.48547" lon="1.1626">
        <ele>141</ele>
        <time>2026-05-19T13:12:19.429Z</time>
      </trkpt>
      <trkpt lat="49.48545" lon="1.16266">
        <ele>140</ele>
        <time>2026-05-19T13:12:23.624Z</time>
      </trkpt>
      <trkpt lat="49.48545" lon="1.16267">
        <ele>140</ele>
        <time>2026-05-19T13:12:27.899Z</time>
      </trkpt>
      <trkpt lat="49.48546" lon="1.16269">
        <ele>140</ele>
        <time>2026-05-19T13:12:32.080Z</time>
      </trkpt>
      <trkpt lat="49.48547" lon="1.16272">
        <ele>140</ele>
        <time>2026-05-19T13:12:36.280Z</time>
      </trkpt>
      <trkpt lat="49.48547" lon="1.16282">
        <ele>140</ele>
        <time>2026-05-19T13:12:40.447Z</time>
      </trkpt>
      <trkpt lat="49.48554" lon="1.16287">
        <ele>140</ele>
        <time>2026-05-19T13:12:44.769Z</time>
      </trkpt>
      <trkpt lat="49.48554" lon="1.16297">
        <ele>138</ele>
        <time>2026-05-19T13:12:48.924Z</time>
      </trkpt>
      <trkpt lat="49.48554" lon="1.16303">
        <ele>138</ele>
        <time>2026-05-19T13:12:53.270Z</time>
      </trkpt>
      <trkpt lat="49.48562" lon="1.16301">
        <ele>138</ele>
        <time>2026-05-19T13:12:57.414Z</time>
      </trkpt>
      <trkpt lat="49.48567" lon="1.16306">
        <ele>138</ele>
        <time>2026-05-19T13:13:01.723Z</time>
      </trkpt>
      <trkpt lat="49.48566" lon="1.16316">
        <ele>138</ele>
        <time>2026-05-19T13:13:05.901Z</time>
      </trkpt>
      <trkpt lat="49.48565" lon="1.16328">
        <ele>135</ele>
        <time>2026-05-19T13:13:10.199Z</time>
      </trkpt>
      <trkpt lat="49.4857" lon="1.16333">
        <ele>135</ele>
        <time>2026-05-19T13:13:14.437Z</time>
      </trkpt>
      <trkpt lat="49.48571" lon="1.1634">
        <ele>135</ele>
        <time>2026-05-19T13:13:18.908Z</time>
      </trkpt>
      <trkpt lat="49.48574" lon="1.16344">
        <ele>135</ele>
        <time>2026-05-19T13:13:23.125Z</time>
      </trkpt>
      <trkpt lat="49.48576" lon="1.16348">
        <ele>132</ele>
        <time>2026-05-19T13:13:27.567Z</time>
      </trkpt>
      <trkpt lat="49.48579" lon="1.1635">
        <ele>132</ele>
        <time>2026-05-19T13:13:31.821Z</time>
      </trkpt>
      <trkpt lat="49.48581" lon="1.16353">
        <ele>132</ele>
        <time>2026-05-19T13:13:36.220Z</time>
      </trkpt>
      <trkpt lat="49.48585" lon="1.16355">
        <ele>132</ele>
        <time>2026-05-19T13:13:40.567Z</time>
      </trkpt>
      <trkpt lat="49.48587" lon="1.16359">
        <ele>132</ele>
        <time>2026-05-19T13:13:44.908Z</time>
      </trkpt>
      <trkpt lat="49.48589" lon="1.16364">
        <ele>132</ele>
        <time>2026-05-19T13:13:48.889Z</time>
      </trkpt>
      <trkpt lat="49.4859" lon="1.16375">
        <ele>132</ele>
        <time>2026-05-19T13:13:53.283Z</time>
      </trkpt>
      <trkpt lat="49.48591" lon="1.16384">
        <ele>128</ele>
        <time>2026-05-19T13:13:57.662Z</time>
      </trkpt>
      <trkpt lat="49.48593" lon="1.16394">
        <ele>128</ele>
        <time>2026-05-19T13:14:01.783Z</time>
      </trkpt>
      <trkpt lat="49.48597" lon="1.164">
        <ele>128</ele>
        <time>2026-05-19T13:14:06.187Z</time>
      </trkpt>
      <trkpt lat="49.48599" lon="1.16404">
        <ele>122</ele>
        <time>2026-05-19T13:14:10.530Z</time>
      </trkpt>
      <trkpt lat="49.48602" lon="1.16405">
        <ele>122</ele>
        <time>2026-05-19T13:14:14.909Z</time>
      </trkpt>
      <trkpt lat="49.48603" lon="1.16408">
        <ele>122</ele>
        <time>2026-05-19T13:14:19.150Z</time>
      </trkpt>
      <trkpt lat="49.48606" lon="1.16412">
        <ele>122</ele>
        <time>2026-05-19T13:14:23.521Z</time>
      </trkpt>
      <trkpt lat="49.48609" lon="1.16418">
        <ele>122</ele>
        <time>2026-05-19T13:14:27.909Z</time>
      </trkpt>
      <trkpt lat="49.48613" lon="1.16424">
        <ele>122</ele>
        <time>2026-05-19T13:14:32.414Z</time>
      </trkpt>
      <trkpt lat="49.48615" lon="1.16427">
        <ele>122</ele>
        <time>2026-05-19T13:14:36.664Z</time>
      </trkpt>
      <trkpt lat="49.48616" lon="1.16433">
        <ele>120</ele>
        <time>2026-05-19T13:14:40.905Z</time>
      </trkpt>
      <trkpt lat="49.48614" lon="1.16442">
        <ele>120</ele>
        <time>2026-05-19T13:14:45.402Z</time>
      </trkpt>
      <trkpt lat="49.48614" lon="1.16449">
        <ele>120</ele>
        <time>2026-05-19T13:14:49.661Z</time>
      </trkpt>
      <trkpt lat="49.48617" lon="1.16453">
        <ele>120</ele>
        <time>2026-05-19T13:14:53.907Z</time>
      </trkpt>
      <trkpt lat="49.48622" lon="1.16456">
        <ele>120</ele>
        <time>2026-05-19T13:14:58.346Z</time>
      </trkpt>
      <trkpt lat="49.48623" lon="1.16464">
        <ele>116</ele>
        <time>2026-05-19T13:15:02.840Z</time>
      </trkpt>
      <trkpt lat="49.48623" lon="1.16474">
        <ele>116</ele>
        <time>2026-05-19T13:15:07.400Z</time>
      </trkpt>
      <trkpt lat="49.48624" lon="1.16479">
        <ele>116</ele>
        <time>2026-05-19T13:15:11.732Z</time>
      </trkpt>
      <trkpt lat="49.48626" lon="1.16482">
        <ele>113</ele>
        <time>2026-05-19T13:15:16.150Z</time>
      </trkpt>
      <trkpt lat="49.48629" lon="1.16487">
        <ele>111</ele>
        <time>2026-05-19T13:15:20.448Z</time>
      </trkpt>
      <trkpt lat="49.48631" lon="1.16491">
        <ele>111</ele>
        <time>2026-05-19T13:15:24.803Z</time>
      </trkpt>
      <trkpt lat="49.48634" lon="1.16493">
        <ele>111</ele>
        <time>2026-05-19T13:15:29.008Z</time>
      </trkpt>
      <trkpt lat="49.48638" lon="1.16497">
        <ele>111</ele>
        <time>2026-05-19T13:15:33.488Z</time>
      </trkpt>
      <trkpt lat="49.4864" lon="1.16503">
        <ele>111</ele>
        <time>2026-05-19T13:15:37.853Z</time>
      </trkpt>
      <trkpt lat="49.48644" lon="1.16508">
        <ele>111</ele>
        <time>2026-05-19T13:15:42.344Z</time>
      </trkpt>
      <trkpt lat="49.48647" lon="1.16514">
        <ele>111</ele>
        <time>2026-05-19T13:15:46.750Z</time>
      </trkpt>
      <trkpt lat="49.48649" lon="1.16518">
        <ele>105</ele>
        <time>2026-05-19T13:15:50.912Z</time>
      </trkpt>
      <trkpt lat="49.48653" lon="1.16524">
        <ele>105</ele>
        <time>2026-05-19T13:15:55.127Z</time>
      </trkpt>
      <trkpt lat="49.48656" lon="1.16526">
        <ele>103</ele>
        <time>2026-05-19T13:15:59.561Z</time>
      </trkpt>
      <trkpt lat="49.4866" lon="1.16529">
        <ele>103</ele>
        <time>2026-05-19T13:16:03.627Z</time>
      </trkpt>
      <trkpt lat="49.48663" lon="1.16532">
        <ele>103</ele>
        <time>2026-05-19T13:16:07.909Z</time>
      </trkpt>
      <trkpt lat="49.48667" lon="1.16539">
        <ele>103</ele>
        <time>2026-05-19T13:16:12.149Z</time>
      </trkpt>
      <trkpt lat="49.4867" lon="1.16545">
        <ele>98</ele>
        <time>2026-05-19T13:16:16.475Z</time>
      </trkpt>
      <trkpt lat="49.48675" lon="1.16549">
        <ele>98</ele>
        <time>2026-05-19T13:16:20.661Z</time>
      </trkpt>
      <trkpt lat="49.48679" lon="1.16551">
        <ele>98</ele>
        <time>2026-05-19T13:16:24.908Z</time>
      </trkpt>
      <trkpt lat="49.48682" lon="1.16556">
        <ele>99</ele>
        <time>2026-05-19T13:16:29.078Z</time>
      </trkpt>
      <trkpt lat="49.48686" lon="1.16563">
        <ele>99</ele>
        <time>2026-05-19T13:16:33.460Z</time>
      </trkpt>
      <trkpt lat="49.48689" lon="1.16569">
        <ele>99</ele>
        <time>2026-05-19T13:16:37.733Z</time>
      </trkpt>
      <trkpt lat="49.48691" lon="1.16574">
        <ele>95</ele>
        <time>2026-05-19T13:16:41.905Z</time>
      </trkpt>
      <trkpt lat="49.48695" lon="1.16577">
        <ele>95</ele>
        <time>2026-05-19T13:16:46.270Z</time>
      </trkpt>
      <trkpt lat="49.48699" lon="1.16578">
        <ele>95</ele>
        <time>2026-05-19T13:16:50.426Z</time>
      </trkpt>
      <trkpt lat="49.48702" lon="1.16582">
        <ele>95</ele>
        <time>2026-05-19T13:16:54.601Z</time>
      </trkpt>
      <trkpt lat="49.48706" lon="1.16585">
        <ele>95</ele>
        <time>2026-05-19T13:16:58.919Z</time>
      </trkpt>
      <trkpt lat="49.4871" lon="1.16587">
        <ele>95</ele>
        <time>2026-05-19T13:17:03.105Z</time>
      </trkpt>
      <trkpt lat="49.48714" lon="1.16591">
        <ele>95</ele>
        <time>2026-05-19T13:17:07.425Z</time>
      </trkpt>
      <trkpt lat="49.48717" lon="1.16594">
        <ele>95</ele>
        <time>2026-05-19T13:17:11.872Z</time>
      </trkpt>
      <trkpt lat="49.48722" lon="1.16597">
        <ele>95</ele>
        <time>2026-05-19T13:17:16.213Z</time>
      </trkpt>
      <trkpt lat="49.48725" lon="1.16601">
        <ele>92</ele>
        <time>2026-05-19T13:17:20.364Z</time>
      </trkpt>
      <trkpt lat="49.48728" lon="1.16603">
        <ele>92</ele>
        <time>2026-05-19T13:17:24.531Z</time>
      </trkpt>
      <trkpt lat="49.48732" lon="1.16605">
        <ele>92</ele>
        <time>2026-05-19T13:17:28.770Z</time>
      </trkpt>
      <trkpt lat="49.48736" lon="1.16608">
        <ele>91</ele>
        <time>2026-05-19T13:17:32.910Z</time>
      </trkpt>
      <trkpt lat="49.48741" lon="1.16612">
        <ele>91</ele>
        <time>2026-05-19T13:17:37.270Z</time>
      </trkpt>
      <trkpt lat="49.48745" lon="1.16614">
        <ele>91</ele>
        <time>2026-05-19T13:17:41.546Z</time>
      </trkpt>
      <trkpt lat="49.4875" lon="1.16613">
        <ele>91</ele>
        <time>2026-05-19T13:17:45.725Z</time>
      </trkpt>
      <trkpt lat="49.48756" lon="1.16614">
        <ele>91</ele>
        <time>2026-05-19T13:17:49.924Z</time>
      </trkpt>
      <trkpt lat="49.4876" lon="1.16617">
        <ele>91</ele>
        <time>2026-05-19T13:17:54.304Z</time>
      </trkpt>
      <trkpt lat="49.48764" lon="1.16619">
        <ele>89</ele>
        <time>2026-05-19T13:17:58.771Z</time>
      </trkpt>
      <trkpt lat="49.48768" lon="1.16622">
        <ele>89</ele>
        <time>2026-05-19T13:18:03.065Z</time>
      </trkpt>
      <trkpt lat="49.48774" lon="1.16624">
        <ele>89</ele>
        <time>2026-05-19T13:18:07.460Z</time>
      </trkpt>
      <trkpt lat="49.48779" lon="1.16626">
        <ele>87</ele>
        <time>2026-05-19T13:18:11.793Z</time>
      </trkpt>
      <trkpt lat="49.48783" lon="1.16626">
        <ele>87</ele>
        <time>2026-05-19T13:18:15.908Z</time>
      </trkpt>
      <trkpt lat="49.48788" lon="1.16627">
        <ele>87</ele>
        <time>2026-05-19T13:18:20.208Z</time>
      </trkpt>
      <trkpt lat="49.48792" lon="1.16627">
        <ele>88</ele>
        <time>2026-05-19T13:18:24.649Z</time>
      </trkpt>
      <trkpt lat="49.48796" lon="1.16629">
        <ele>88</ele>
        <time>2026-05-19T13:18:28.911Z</time>
      </trkpt>
      <trkpt lat="49.488" lon="1.16631">
        <ele>88</ele>
        <time>2026-05-19T13:18:33.348Z</time>
      </trkpt>
      <trkpt lat="49.48805" lon="1.16633">
        <ele>88</ele>
        <time>2026-05-19T13:18:37.638Z</time>
      </trkpt>
      <trkpt lat="49.48808" lon="1.16637">
        <ele>88</ele>
        <time>2026-05-19T13:18:41.908Z</time>
      </trkpt>
      <trkpt lat="49.4881" lon="1.16643">
        <ele>88</ele>
        <time>2026-05-19T13:18:46.151Z</time>
      </trkpt>
      <trkpt lat="49.48809" lon="1.16651">
        <ele>88</ele>
        <time>2026-05-19T13:18:50.448Z</time>
      </trkpt>
      <trkpt lat="49.48807" lon="1.16656">
        <ele>88</ele>
        <time>2026-05-19T13:18:54.655Z</time>
      </trkpt>
      <trkpt lat="49.48804" lon="1.16662">
        <ele>88</ele>
        <time>2026-05-19T13:18:58.909Z</time>
      </trkpt>
      <trkpt lat="49.48801" lon="1.16668">
        <ele>88</ele>
        <time>2026-05-19T13:19:03.401Z</time>
      </trkpt>
      <trkpt lat="49.488" lon="1.16676">
        <ele>88</ele>
        <time>2026-05-19T13:19:07.795Z</time>
      </trkpt>
      <trkpt lat="49.48803" lon="1.1669">
        <ele>88</ele>
        <time>2026-05-19T13:19:12.425Z</time>
      </trkpt>
      <trkpt lat="49.48798" lon="1.16696">
        <ele>88</ele>
        <time>2026-05-19T13:19:16.767Z</time>
      </trkpt>
      <trkpt lat="49.48793" lon="1.16701">
        <ele>88</ele>
        <time>2026-05-19T13:19:21.185Z</time>
      </trkpt>
      <trkpt lat="49.48789" lon="1.16709">
        <ele>84</ele>
        <time>2026-05-19T13:19:25.530Z</time>
      </trkpt>
      <trkpt lat="49.48786" lon="1.16717">
        <ele>84</ele>
        <time>2026-05-19T13:19:29.926Z</time>
      </trkpt>
      <trkpt lat="49.48783" lon="1.16723">
        <ele>84</ele>
        <time>2026-05-19T13:19:34.210Z</time>
      </trkpt>
      <trkpt lat="49.48779" lon="1.16725">
        <ele>84</ele>
        <time>2026-05-19T13:19:38.350Z</time>
      </trkpt>
      <trkpt lat="49.48775" lon="1.16721">
        <ele>84</ele>
        <time>2026-05-19T13:19:42.703Z</time>
      </trkpt>
      <trkpt lat="49.48772" lon="1.16719">
        <ele>84</ele>
        <time>2026-05-19T13:19:46.865Z</time>
      </trkpt>
      <trkpt lat="49.48767" lon="1.16714">
        <ele>84</ele>
        <time>2026-05-19T13:19:51.354Z</time>
      </trkpt>
      <trkpt lat="49.48764" lon="1.1671">
        <ele>84</ele>
        <time>2026-05-19T13:19:55.629Z</time>
      </trkpt>
      <trkpt lat="49.4876" lon="1.16706">
        <ele>83</ele>
        <time>2026-05-19T13:19:59.733Z</time>
      </trkpt>
      <trkpt lat="49.48756" lon="1.16703">
        <ele>83</ele>
        <time>2026-05-19T13:20:03.747Z</time>
      </trkpt>
      <trkpt lat="49.48751" lon="1.16699">
        <ele>83</ele>
        <time>2026-05-19T13:20:08.008Z</time>
      </trkpt>
      <trkpt lat="49.48747" lon="1.16695">
        <ele>83</ele>
        <time>2026-05-19T13:20:12.367Z</time>
      </trkpt>
      <trkpt lat="49.48744" lon="1.16691">
        <ele>83</ele>
        <time>2026-05-19T13:20:16.532Z</time>
      </trkpt>
      <trkpt lat="49.4874" lon="1.16689">
        <ele>83</ele>
        <time>2026-05-19T13:20:20.783Z</time>
      </trkpt>
      <trkpt lat="49.48737" lon="1.16685">
        <ele>83</ele>
        <time>2026-05-19T13:20:24.907Z</time>
      </trkpt>
      <trkpt lat="49.48732" lon="1.16681">
        <ele>82</ele>
        <time>2026-05-19T13:20:29.199Z</time>
      </trkpt>
      <trkpt lat="49.48728" lon="1.16678">
        <ele>84</ele>
        <time>2026-05-19T13:20:33.606Z</time>
      </trkpt>
      <trkpt lat="49.48724" lon="1.16674">
        <ele>84</ele>
        <time>2026-05-19T13:20:37.889Z</time>
      </trkpt>
      <trkpt lat="49.48719" lon="1.16671">
        <ele>84</ele>
        <time>2026-05-19T13:20:42.068Z</time>
      </trkpt>
      <trkpt lat="49.48714" lon="1.16668">
        <ele>84</ele>
        <time>2026-05-19T13:20:46.472Z</time>
      </trkpt>
      <trkpt lat="49.48708" lon="1.16666">
        <ele>84</ele>
        <time>2026-05-19T13:20:50.745Z</time>
      </trkpt>
      <trkpt lat="49.48703" lon="1.16665">
        <ele>84</ele>
        <time>2026-05-19T13:20:54.913Z</time>
      </trkpt>
      <trkpt lat="49.48698" lon="1.16664">
        <ele>84</ele>
        <time>2026-05-19T13:20:59.162Z</time>
      </trkpt>
      <trkpt lat="49.48693" lon="1.16663">
        <ele>84</ele>
        <time>2026-05-19T13:21:03.606Z</time>
      </trkpt>
      <trkpt lat="49.48689" lon="1.16662">
        <ele>84</ele>
        <time>2026-05-19T13:21:07.905Z</time>
      </trkpt>
      <trkpt lat="49.48685" lon="1.16661">
        <ele>84</ele>
        <time>2026-05-19T13:21:12.268Z</time>
      </trkpt>
      <trkpt lat="49.48672" lon="1.16661">
        <ele>84</ele>
        <time>2026-05-19T13:21:16.589Z</time>
      </trkpt>
      <trkpt lat="49.48672" lon="1.16661">
        <ele>84</ele>
        <time>2026-05-19T13:21:20.913Z</time>
      </trkpt>
      <trkpt lat="49.4867" lon="1.16662">
        <ele>84</ele>
        <time>2026-05-19T13:21:24.916Z</time>
      </trkpt>
      <trkpt lat="49.48664" lon="1.16658">
        <ele>84</ele>
        <time>2026-05-19T13:21:28.913Z</time>
      </trkpt>
      <trkpt lat="49.48658" lon="1.16654">
        <ele>84</ele>
        <time>2026-05-19T13:21:33.346Z</time>
      </trkpt>
      <trkpt lat="49.48645" lon="1.16648">
        <ele>84</ele>
        <time>2026-05-19T13:21:37.665Z</time>
      </trkpt>
      <trkpt lat="49.48643" lon="1.16649">
        <ele>84</ele>
        <time>2026-05-19T13:21:41.906Z</time>
      </trkpt>
      <trkpt lat="49.48638" lon="1.16649">
        <ele>84</ele>
        <time>2026-05-19T13:21:46.534Z</time>
      </trkpt>
      <trkpt lat="49.48635" lon="1.16649">
        <ele>84</ele>
        <time>2026-05-19T13:21:50.914Z</time>
      </trkpt>
      <trkpt lat="49.4863" lon="1.16648">
        <ele>84</ele>
        <time>2026-05-19T13:21:55.675Z</time>
      </trkpt>
      <trkpt lat="49.48625" lon="1.16646">
        <ele>80</ele>
        <time>2026-05-19T13:22:00.282Z</time>
      </trkpt>
      <trkpt lat="49.4862" lon="1.16644">
        <ele>80</ele>
        <time>2026-05-19T13:25:58.904Z</time>
      </trkpt>
      <trkpt lat="49.48616" lon="1.16643">
        <ele>80</ele>
        <time>2026-05-19T13:26:02.912Z</time>
      </trkpt>
      <trkpt lat="49.48611" lon="1.16641">
        <ele>80</ele>
        <time>2026-05-19T13:26:06.906Z</time>
      </trkpt>
      <trkpt lat="49.48606" lon="1.1664">
        <ele>80</ele>
        <time>2026-05-19T13:26:10.918Z</time>
      </trkpt>
      <trkpt lat="49.48602" lon="1.1664">
        <ele>80</ele>
        <time>2026-05-19T13:26:15.909Z</time>
      </trkpt>
      <trkpt lat="49.48599" lon="1.16637">
        <ele>80</ele>
        <time>2026-05-19T13:27:01.910Z</time>
      </trkpt>
      <trkpt lat="49.48596" lon="1.16631">
        <ele>79</ele>
        <time>2026-05-19T13:27:06.908Z</time>
      </trkpt>
      <trkpt lat="49.48591" lon="1.1663">
        <ele>79</ele>
        <time>2026-05-19T13:27:10.916Z</time>
      </trkpt>
      <trkpt lat="49.48587" lon="1.16627">
        <ele>79</ele>
        <time>2026-05-19T13:27:15.917Z</time>
      </trkpt>
      <trkpt lat="49.48583" lon="1.16625">
        <ele>81</ele>
        <time>2026-05-19T13:27:20.911Z</time>
      </trkpt>
      <trkpt lat="49.48579" lon="1.16622">
        <ele>81</ele>
        <time>2026-05-19T13:27:24.910Z</time>
      </trkpt>
      <trkpt lat="49.48575" lon="1.16621">
        <ele>81</ele>
        <time>2026-05-19T13:27:29.913Z</time>
      </trkpt>
      <trkpt lat="49.48571" lon="1.16618">
        <ele>81</ele>
        <time>2026-05-19T13:27:34.920Z</time>
      </trkpt>
      <trkpt lat="49.48566" lon="1.16615">
        <ele>79</ele>
        <time>2026-05-19T13:27:39.267Z</time>
      </trkpt>
      <trkpt lat="49.48562" lon="1.16613">
        <ele>79</ele>
        <time>2026-05-19T13:27:43.540Z</time>
      </trkpt>
      <trkpt lat="49.48558" lon="1.1661">
        <ele>79</ele>
        <time>2026-05-19T13:27:47.912Z</time>
      </trkpt>
      <trkpt lat="49.48554" lon="1.16608">
        <ele>79</ele>
        <time>2026-05-19T13:27:52.367Z</time>
      </trkpt>
      <trkpt lat="49.48549" lon="1.16606">
        <ele>79</ele>
        <time>2026-05-19T13:27:56.790Z</time>
      </trkpt>
      <trkpt lat="49.48544" lon="1.16604">
        <ele>79</ele>
        <time>2026-05-19T13:28:01.139Z</time>
      </trkpt>
      <trkpt lat="49.48539" lon="1.16603">
        <ele>76</ele>
        <time>2026-05-19T13:28:05.563Z</time>
      </trkpt>
      <trkpt lat="49.48534" lon="1.16602">
        <ele>76</ele>
        <time>2026-05-19T13:28:09.883Z</time>
      </trkpt>
      <trkpt lat="49.4853" lon="1.166">
        <ele>76</ele>
        <time>2026-05-19T13:28:14.270Z</time>
      </trkpt>
      <trkpt lat="49.48525" lon="1.16596">
        <ele>79</ele>
        <time>2026-05-19T13:28:18.390Z</time>
      </trkpt>
      <trkpt lat="49.48521" lon="1.16595">
        <ele>79</ele>
        <time>2026-05-19T13:28:22.804Z</time>
      </trkpt>
      <trkpt lat="49.48516" lon="1.16594">
        <ele>79</ele>
        <time>2026-05-19T13:28:26.907Z</time>
      </trkpt>
      <trkpt lat="49.4851" lon="1.16593">
        <ele>75</ele>
        <time>2026-05-19T13:28:31.343Z</time>
      </trkpt>
      <trkpt lat="49.48504" lon="1.16591">
        <ele>75</ele>
        <time>2026-05-19T13:28:35.507Z</time>
      </trkpt>
      <trkpt lat="49.48499" lon="1.1659">
        <ele>75</ele>
        <time>2026-05-19T13:28:39.759Z</time>
      </trkpt>
      <trkpt lat="49.48496" lon="1.16589">
        <ele>75</ele>
        <time>2026-05-19T13:28:43.916Z</time>
      </trkpt>
      <trkpt lat="49.48491" lon="1.16587">
        <ele>75</ele>
        <time>2026-05-19T13:28:48.413Z</time>
      </trkpt>
      <trkpt lat="49.48487" lon="1.16585">
        <ele>75</ele>
        <time>2026-05-19T13:29:05.909Z</time>
      </trkpt>
      <trkpt lat="49.48483" lon="1.16583">
        <ele>72</ele>
        <time>2026-05-19T13:29:10.424Z</time>
      </trkpt>
      <trkpt lat="49.48478" lon="1.16581">
        <ele>72</ele>
        <time>2026-05-19T13:29:14.744Z</time>
      </trkpt>
      <trkpt lat="49.48474" lon="1.16579">
        <ele>72</ele>
        <time>2026-05-19T13:29:18.905Z</time>
      </trkpt>
      <trkpt lat="49.48469" lon="1.16578">
        <ele>72</ele>
        <time>2026-05-19T13:29:23.401Z</time>
      </trkpt>
      <trkpt lat="49.48465" lon="1.16577">
        <ele>72</ele>
        <time>2026-05-19T13:29:27.780Z</time>
      </trkpt>
      <trkpt lat="49.4846" lon="1.16575">
        <ele>72</ele>
        <time>2026-05-19T13:29:31.907Z</time>
      </trkpt>
      <trkpt lat="49.48456" lon="1.16574">
        <ele>71</ele>
        <time>2026-05-19T13:29:36.412Z</time>
      </trkpt>
      <trkpt lat="49.4845" lon="1.16573">
        <ele>71</ele>
        <time>2026-05-19T13:29:40.745Z</time>
      </trkpt>
      <trkpt lat="49.48445" lon="1.16571">
        <ele>71</ele>
        <time>2026-05-19T13:29:44.845Z</time>
      </trkpt>
      <trkpt lat="49.48439" lon="1.1657">
        <ele>71</ele>
        <time>2026-05-19T13:29:48.912Z</time>
      </trkpt>
      <trkpt lat="49.48434" lon="1.1657">
        <ele>71</ele>
        <time>2026-05-19T13:29:53.245Z</time>
      </trkpt>
      <trkpt lat="49.48429" lon="1.1657">
        <ele>71</ele>
        <time>2026-05-19T13:29:57.540Z</time>
      </trkpt>
      <trkpt lat="49.48427" lon="1.16576">
        <ele>71</ele>
        <time>2026-05-19T13:30:01.772Z</time>
      </trkpt>
      <trkpt lat="49.48424" lon="1.16581">
        <ele>71</ele>
        <time>2026-05-19T13:30:05.907Z</time>
      </trkpt>
      <trkpt lat="49.48422" lon="1.16586">
        <ele>71</ele>
        <time>2026-05-19T13:30:10.186Z</time>
      </trkpt>
      <trkpt lat="49.4842" lon="1.16591">
        <ele>71</ele>
        <time>2026-05-19T13:30:14.379Z</time>
      </trkpt>
      <trkpt lat="49.48417" lon="1.16597">
        <ele>71</ele>
        <time>2026-05-19T13:30:18.607Z</time>
      </trkpt>
      <trkpt lat="49.48412" lon="1.16603">
        <ele>71</ele>
        <time>2026-05-19T13:30:22.790Z</time>
      </trkpt>
      <trkpt lat="49.48408" lon="1.16609">
        <ele>71</ele>
        <time>2026-05-19T13:30:26.902Z</time>
      </trkpt>
      <trkpt lat="49.48405" lon="1.16612">
        <ele>71</ele>
        <time>2026-05-19T13:30:31.209Z</time>
      </trkpt>
      <trkpt lat="49.48401" lon="1.16622">
        <ele>73</ele>
        <time>2026-05-19T13:30:35.529Z</time>
      </trkpt>
      <trkpt lat="49.48401" lon="1.16629">
        <ele>71</ele>
        <time>2026-05-19T13:30:39.767Z</time>
      </trkpt>
      <trkpt lat="49.48404" lon="1.16634">
        <ele>71</ele>
        <time>2026-05-19T13:30:44.085Z</time>
      </trkpt>
      <trkpt lat="49.48407" lon="1.16637">
        <ele>71</ele>
        <time>2026-05-19T13:30:48.458Z</time>
      </trkpt>
      <trkpt lat="49.48407" lon="1.16646">
        <ele>71</ele>
        <time>2026-05-19T13:30:52.701Z</time>
      </trkpt>
      <trkpt lat="49.48405" lon="1.16654">
        <ele>70</ele>
        <time>2026-05-19T13:30:56.867Z</time>
      </trkpt>
      <trkpt lat="49.48404" lon="1.16662">
        <ele>70</ele>
        <time>2026-05-19T13:31:01.105Z</time>
      </trkpt>
      <trkpt lat="49.48404" lon="1.16669">
        <ele>70</ele>
        <time>2026-05-19T13:31:05.222Z</time>
      </trkpt>
      <trkpt lat="49.48402" lon="1.16676">
        <ele>71</ele>
        <time>2026-05-19T13:31:09.391Z</time>
      </trkpt>
      <trkpt lat="49.48399" lon="1.16682">
        <ele>71</ele>
        <time>2026-05-19T13:31:13.629Z</time>
      </trkpt>
      <trkpt lat="49.48396" lon="1.16688">
        <ele>71</ele>
        <time>2026-05-19T13:31:17.843Z</time>
      </trkpt>
      <trkpt lat="49.48394" lon="1.16694">
        <ele>71</ele>
        <time>2026-05-19T13:31:21.919Z</time>
      </trkpt>
      <trkpt lat="49.48391" lon="1.167">
        <ele>71</ele>
        <time>2026-05-19T13:31:26.367Z</time>
      </trkpt>
      <trkpt lat="49.48388" lon="1.16705">
        <ele>71</ele>
        <time>2026-05-19T13:31:30.640Z</time>
      </trkpt>
      <trkpt lat="49.48385" lon="1.1671">
        <ele>73</ele>
        <time>2026-05-19T13:31:34.902Z</time>
      </trkpt>
      <trkpt lat="49.48382" lon="1.16716">
        <ele>73</ele>
        <time>2026-05-19T13:31:39.163Z</time>
      </trkpt>
      <trkpt lat="49.48379" lon="1.16723">
        <ele>73</ele>
        <time>2026-05-19T13:31:43.402Z</time>
      </trkpt>
      <trkpt lat="49.48377" lon="1.16729">
        <ele>73</ele>
        <time>2026-05-19T13:31:47.619Z</time>
      </trkpt>
      <trkpt lat="49.48375" lon="1.16737">
        <ele>76</ele>
        <time>2026-05-19T13:31:51.930Z</time>
      </trkpt>
      <trkpt lat="49.48374" lon="1.16743">
        <ele>75</ele>
        <time>2026-05-19T13:31:56.128Z</time>
      </trkpt>
      <trkpt lat="49.48372" lon="1.16749">
        <ele>75</ele>
        <time>2026-05-19T13:32:00.367Z</time>
      </trkpt>
      <trkpt lat="49.48371" lon="1.16755">
        <ele>75</ele>
        <time>2026-05-19T13:32:04.471Z</time>
      </trkpt>
      <trkpt lat="49.4837" lon="1.16763">
        <ele>75</ele>
        <time>2026-05-19T13:32:08.650Z</time>
      </trkpt>
      <trkpt lat="49.48369" lon="1.1677">
        <ele>76</ele>
        <time>2026-05-19T13:32:12.713Z</time>
      </trkpt>
      <trkpt lat="49.48368" lon="1.16777">
        <ele>76</ele>
        <time>2026-05-19T13:32:16.845Z</time>
      </trkpt>
      <trkpt lat="49.48366" lon="1.16784">
        <ele>76</ele>
        <time>2026-05-19T13:32:20.910Z</time>
      </trkpt>
      <trkpt lat="49.48364" lon="1.1679">
        <ele>76</ele>
        <time>2026-05-19T13:32:25.208Z</time>
      </trkpt>
      <trkpt lat="49.48363" lon="1.16796">
        <ele>77</ele>
        <time>2026-05-19T13:32:29.366Z</time>
      </trkpt>
      <trkpt lat="49.48363" lon="1.16803">
        <ele>77</ele>
        <time>2026-05-19T13:32:33.508Z</time>
      </trkpt>
      <trkpt lat="49.48362" lon="1.16808">
        <ele>77</ele>
        <time>2026-05-19T13:32:37.667Z</time>
      </trkpt>
      <trkpt lat="49.4836" lon="1.16812">
        <ele>77</ele>
        <time>2026-05-19T13:32:41.791Z</time>
      </trkpt>
      <trkpt lat="49.48359" lon="1.16817">
        <ele>77</ele>
        <time>2026-05-19T13:32:45.868Z</time>
      </trkpt>
      <trkpt lat="49.48358" lon="1.16822">
        <ele>78</ele>
        <time>2026-05-19T13:32:49.908Z</time>
      </trkpt>
      <trkpt lat="49.48359" lon="1.16827">
        <ele>78</ele>
        <time>2026-05-19T13:32:54.184Z</time>
      </trkpt>
      <trkpt lat="49.48361" lon="1.1683">
        <ele>78</ele>
        <time>2026-05-19T13:32:58.402Z</time>
      </trkpt>
      <trkpt lat="49.48365" lon="1.16832">
        <ele>78</ele>
        <time>2026-05-19T13:33:02.569Z</time>
      </trkpt>
      <trkpt lat="49.48369" lon="1.16837">
        <ele>78</ele>
        <time>2026-05-19T13:33:06.681Z</time>
      </trkpt>
      <trkpt lat="49.48372" lon="1.16843">
        <ele>78</ele>
        <time>2026-05-19T13:33:10.845Z</time>
      </trkpt>
      <trkpt lat="49.48376" lon="1.16847">
        <ele>78</ele>
        <time>2026-05-19T13:33:15.297Z</time>
      </trkpt>
      <trkpt lat="49.4838" lon="1.1685">
        <ele>79</ele>
        <time>2026-05-19T13:33:19.778Z</time>
      </trkpt>
      <trkpt lat="49.48385" lon="1.16854">
        <ele>79</ele>
        <time>2026-05-19T13:33:24.144Z</time>
      </trkpt>
      <trkpt lat="49.48395" lon="1.16854">
        <ele>79</ele>
        <time>2026-05-19T13:33:28.584Z</time>
      </trkpt>
      <trkpt lat="49.48399" lon="1.16856">
        <ele>79</ele>
        <time>2026-05-19T13:33:32.901Z</time>
      </trkpt>
      <trkpt lat="49.48403" lon="1.16855">
        <ele>79</ele>
        <time>2026-05-19T13:33:37.263Z</time>
      </trkpt>
      <trkpt lat="49.48407" lon="1.16853">
        <ele>80</ele>
        <time>2026-05-19T13:33:50.170Z</time>
      </trkpt>
      <trkpt lat="49.48411" lon="1.16852">
        <ele>80</ele>
        <time>2026-05-19T13:33:54.348Z</time>
      </trkpt>
      <trkpt lat="49.48416" lon="1.16854">
        <ele>80</ele>
        <time>2026-05-19T13:33:58.643Z</time>
      </trkpt>
      <trkpt lat="49.48421" lon="1.16857">
        <ele>80</ele>
        <time>2026-05-19T13:34:02.869Z</time>
      </trkpt>
      <trkpt lat="49.48424" lon="1.1686">
        <ele>80</ele>
        <time>2026-05-19T13:34:07.125Z</time>
      </trkpt>
      <trkpt lat="49.48429" lon="1.16865">
        <ele>80</ele>
        <time>2026-05-19T13:34:11.408Z</time>
      </trkpt>
      <trkpt lat="49.48432" lon="1.16871">
        <ele>81</ele>
        <time>2026-05-19T13:34:15.759Z</time>
      </trkpt>
      <trkpt lat="49.48433" lon="1.16876">
        <ele>82</ele>
        <time>2026-05-19T13:34:20.153Z</time>
      </trkpt>
      <trkpt lat="49.48433" lon="1.16882">
        <ele>82</ele>
        <time>2026-05-19T13:34:24.652Z</time>
      </trkpt>
      <trkpt lat="49.48434" lon="1.16889">
        <ele>82</ele>
        <time>2026-05-19T13:34:29.127Z</time>
      </trkpt>
      <trkpt lat="49.48433" lon="1.16898">
        <ele>82</ele>
        <time>2026-05-19T13:34:33.557Z</time>
      </trkpt>
      <trkpt lat="49.48433" lon="1.16899">
        <ele>82</ele>
        <time>2026-05-19T13:34:37.905Z</time>
      </trkpt>
      <trkpt lat="49.48433" lon="1.169">
        <ele>82</ele>
        <time>2026-05-19T13:34:42.532Z</time>
      </trkpt>
      <trkpt lat="49.48434" lon="1.16905">
        <ele>85</ele>
        <time>2026-05-19T13:34:46.899Z</time>
      </trkpt>
      <trkpt lat="49.48432" lon="1.1691">
        <ele>85</ele>
        <time>2026-05-19T13:34:51.475Z</time>
      </trkpt>
      <trkpt lat="49.48432" lon="1.16916">
        <ele>85</ele>
        <time>2026-05-19T13:34:55.860Z</time>
      </trkpt>
      <trkpt lat="49.48432" lon="1.16919">
        <ele>85</ele>
        <time>2026-05-19T13:35:00.463Z</time>
      </trkpt>
      <trkpt lat="49.48433" lon="1.16924">
        <ele>85</ele>
        <time>2026-05-19T13:35:04.820Z</time>
      </trkpt>
      <trkpt lat="49.48432" lon="1.16928">
        <ele>85</ele>
        <time>2026-05-19T13:35:09.223Z</time>
      </trkpt>
      <trkpt lat="49.48433" lon="1.16933">
        <ele>89</ele>
        <time>2026-05-19T13:35:13.511Z</time>
      </trkpt>
      <trkpt lat="49.48433" lon="1.16939">
        <ele>89</ele>
        <time>2026-05-19T13:35:17.896Z</time>
      </trkpt>
      <trkpt lat="49.48434" lon="1.16944">
        <ele>89</ele>
        <time>2026-05-19T13:35:22.224Z</time>
      </trkpt>
      <trkpt lat="49.48436" lon="1.16949">
        <ele>89</ele>
        <time>2026-05-19T13:35:26.603Z</time>
      </trkpt>
      <trkpt lat="49.48438" lon="1.16955">
        <ele>89</ele>
        <time>2026-05-19T13:35:30.902Z</time>
      </trkpt>
      <trkpt lat="49.4844" lon="1.16959">
        <ele>91</ele>
        <time>2026-05-19T13:35:35.283Z</time>
      </trkpt>
      <trkpt lat="49.48443" lon="1.16965">
        <ele>91</ele>
        <time>2026-05-19T13:35:39.567Z</time>
      </trkpt>
      <trkpt lat="49.48445" lon="1.16968">
        <ele>91</ele>
        <time>2026-05-19T13:35:43.774Z</time>
      </trkpt>
      <trkpt lat="49.48447" lon="1.16972">
        <ele>91</ele>
        <time>2026-05-19T13:35:47.905Z</time>
      </trkpt>
      <trkpt lat="49.48447" lon="1.16977">
        <ele>91</ele>
        <time>2026-05-19T13:35:52.392Z</time>
      </trkpt>
      <trkpt lat="49.48447" lon="1.16981">
        <ele>91</ele>
        <time>2026-05-19T13:36:10.901Z</time>
      </trkpt>
      <trkpt lat="49.48445" lon="1.16985">
        <ele>91</ele>
        <time>2026-05-19T13:36:15.784Z</time>
      </trkpt>
      <trkpt lat="49.48443" lon="1.16988">
        <ele>93</ele>
        <time>2026-05-19T13:36:19.898Z</time>
      </trkpt>
      <trkpt lat="49.48443" lon="1.16993">
        <ele>93</ele>
        <time>2026-05-19T13:36:24.070Z</time>
      </trkpt>
      <trkpt lat="49.48443" lon="1.16996">
        <ele>93</ele>
        <time>2026-05-19T13:36:28.606Z</time>
      </trkpt>
      <trkpt lat="49.48442" lon="1.17003">
        <ele>93</ele>
        <time>2026-05-19T13:36:49.908Z</time>
      </trkpt>
      <trkpt lat="49.48441" lon="1.17009">
        <ele>93</ele>
        <time>2026-05-19T13:36:54.568Z</time>
      </trkpt>
      <trkpt lat="49.48442" lon="1.17012">
        <ele>93</ele>
        <time>2026-05-19T13:36:58.909Z</time>
      </trkpt>
      <trkpt lat="49.48445" lon="1.17015">
        <ele>94</ele>
        <time>2026-05-19T13:37:03.127Z</time>
      </trkpt>
      <trkpt lat="49.48447" lon="1.17018">
        <ele>94</ele>
        <time>2026-05-19T13:37:07.246Z</time>
      </trkpt>
      <trkpt lat="49.48449" lon="1.17022">
        <ele>94</ele>
        <time>2026-05-19T13:37:11.427Z</time>
      </trkpt>
      <trkpt lat="49.48451" lon="1.17027">
        <ele>94</ele>
        <time>2026-05-19T13:37:15.582Z</time>
      </trkpt>
      <trkpt lat="49.48454" lon="1.17031">
        <ele>94</ele>
        <time>2026-05-19T13:37:19.762Z</time>
      </trkpt>
      <trkpt lat="49.48458" lon="1.17034">
        <ele>97</ele>
        <time>2026-05-19T13:37:23.912Z</time>
      </trkpt>
      <trkpt lat="49.48462" lon="1.17036">
        <ele>97</ele>
        <time>2026-05-19T13:37:28.426Z</time>
      </trkpt>
      <trkpt lat="49.48464" lon="1.1704">
        <ele>97</ele>
        <time>2026-05-19T13:37:32.915Z</time>
      </trkpt>
      <trkpt lat="49.48466" lon="1.17043">
        <ele>99</ele>
        <time>2026-05-19T13:37:37.152Z</time>
      </trkpt>
      <trkpt lat="49.48468" lon="1.17047">
        <ele>99</ele>
        <time>2026-05-19T13:37:41.354Z</time>
      </trkpt>
      <trkpt lat="49.4847" lon="1.17049">
        <ele>99</ele>
        <time>2026-05-19T13:37:45.486Z</time>
      </trkpt>
      <trkpt lat="49.48473" lon="1.17053">
        <ele>99</ele>
        <time>2026-05-19T13:37:49.655Z</time>
      </trkpt>
      <trkpt lat="49.48474" lon="1.17058">
        <ele>99</ele>
        <time>2026-05-19T13:37:54.247Z</time>
      </trkpt>
      <trkpt lat="49.48477" lon="1.17062">
        <ele>99</ele>
        <time>2026-05-19T13:37:58.402Z</time>
      </trkpt>
      <trkpt lat="49.4848" lon="1.17066">
        <ele>99</ele>
        <time>2026-05-19T13:38:02.580Z</time>
      </trkpt>
      <trkpt lat="49.48483" lon="1.17071">
        <ele>102</ele>
        <time>2026-05-19T13:38:06.807Z</time>
      </trkpt>
      <trkpt lat="49.48485" lon="1.17075">
        <ele>102</ele>
        <time>2026-05-19T13:38:11.047Z</time>
      </trkpt>
      <trkpt lat="49.48487" lon="1.17079">
        <ele>105</ele>
        <time>2026-05-19T13:38:15.364Z</time>
      </trkpt>
      <trkpt lat="49.48489" lon="1.17082">
        <ele>105</ele>
        <time>2026-05-19T13:38:19.520Z</time>
      </trkpt>
      <trkpt lat="49.48492" lon="1.17086">
        <ele>105</ele>
        <time>2026-05-19T13:38:23.544Z</time>
      </trkpt>
      <trkpt lat="49.48495" lon="1.17088">
        <ele>105</ele>
        <time>2026-05-19T13:38:27.748Z</time>
      </trkpt>
      <trkpt lat="49.48498" lon="1.17092">
        <ele>105</ele>
        <time>2026-05-19T13:38:31.903Z</time>
      </trkpt>
      <trkpt lat="49.485" lon="1.17096">
        <ele>105</ele>
        <time>2026-05-19T13:38:36.174Z</time>
      </trkpt>
      <trkpt lat="49.48501" lon="1.17101">
        <ele>108</ele>
        <time>2026-05-19T13:38:40.391Z</time>
      </trkpt>
      <trkpt lat="49.485" lon="1.17106">
        <ele>108</ele>
        <time>2026-05-19T13:38:44.593Z</time>
      </trkpt>
      <trkpt lat="49.48499" lon="1.1711">
        <ele>108</ele>
        <time>2026-05-19T13:38:48.666Z</time>
      </trkpt>
      <trkpt lat="49.48498" lon="1.17116">
        <ele>108</ele>
        <time>2026-05-19T13:38:52.867Z</time>
      </trkpt>
      <trkpt lat="49.48497" lon="1.17121">
        <ele>108</ele>
        <time>2026-05-19T13:38:56.905Z</time>
      </trkpt>
      <trkpt lat="49.48496" lon="1.17125">
        <ele>108</ele>
        <time>2026-05-19T13:39:01.126Z</time>
      </trkpt>
      <trkpt lat="49.48493" lon="1.1713">
        <ele>112</ele>
        <time>2026-05-19T13:39:05.367Z</time>
      </trkpt>
      <trkpt lat="49.4849" lon="1.17135">
        <ele>112</ele>
        <time>2026-05-19T13:39:09.534Z</time>
      </trkpt>
      <trkpt lat="49.48488" lon="1.1714">
        <ele>112</ele>
        <time>2026-05-19T13:39:13.664Z</time>
      </trkpt>
      <trkpt lat="49.48486" lon="1.17147">
        <ele>112</ele>
        <time>2026-05-19T13:39:17.843Z</time>
      </trkpt>
      <trkpt lat="49.48486" lon="1.17153">
        <ele>112</ele>
        <time>2026-05-19T13:39:21.909Z</time>
      </trkpt>
      <trkpt lat="49.48489" lon="1.17158">
        <ele>114</ele>
        <time>2026-05-19T13:39:26.187Z</time>
      </trkpt>
      <trkpt lat="49.48493" lon="1.17164">
        <ele>114</ele>
        <time>2026-05-19T13:39:30.452Z</time>
      </trkpt>
      <trkpt lat="49.48496" lon="1.17169">
        <ele>114</ele>
        <time>2026-05-19T13:39:34.664Z</time>
      </trkpt>
      <trkpt lat="49.48498" lon="1.17173">
        <ele>114</ele>
        <time>2026-05-19T13:39:38.724Z</time>
      </trkpt>
      <trkpt lat="49.485" lon="1.17176">
        <ele>114</ele>
        <time>2026-05-19T13:39:42.910Z</time>
      </trkpt>
      <trkpt lat="49.48502" lon="1.17181">
        <ele>115</ele>
        <time>2026-05-19T13:39:47.047Z</time>
      </trkpt>
      <trkpt lat="49.48505" lon="1.17184">
        <ele>115</ele>
        <time>2026-05-19T13:39:51.155Z</time>
      </trkpt>
      <trkpt lat="49.48509" lon="1.17186">
        <ele>115</ele>
        <time>2026-05-19T13:39:55.251Z</time>
      </trkpt>
      <trkpt lat="49.48512" lon="1.17188">
        <ele>115</ele>
        <time>2026-05-19T13:39:59.342Z</time>
      </trkpt>
      <trkpt lat="49.48515" lon="1.17192">
        <ele>118</ele>
        <time>2026-05-19T13:40:03.404Z</time>
      </trkpt>
      <trkpt lat="49.48518" lon="1.17195">
        <ele>118</ele>
        <time>2026-05-19T13:40:07.544Z</time>
      </trkpt>
      <trkpt lat="49.4852" lon="1.17197">
        <ele>118</ele>
        <time>2026-05-19T13:40:12.148Z</time>
      </trkpt>
      <trkpt lat="49.48523" lon="1.17199">
        <ele>118</ele>
        <time>2026-05-19T13:40:16.558Z</time>
      </trkpt>
      <trkpt lat="49.48526" lon="1.17199">
        <ele>118</ele>
        <time>2026-05-19T13:40:21.150Z</time>
      </trkpt>
      <trkpt lat="49.48528" lon="1.172">
        <ele>118</ele>
        <time>2026-05-19T13:40:25.347Z</time>
      </trkpt>
      <trkpt lat="49.48531" lon="1.172">
        <ele>118</ele>
        <time>2026-05-19T13:40:29.689Z</time>
      </trkpt>
      <trkpt lat="49.48534" lon="1.17202">
        <ele>118</ele>
        <time>2026-05-19T13:40:33.890Z</time>
      </trkpt>
      <trkpt lat="49.48537" lon="1.17205">
        <ele>118</ele>
        <time>2026-05-19T13:40:38.265Z</time>
      </trkpt>
      <trkpt lat="49.48539" lon="1.17208">
        <ele>120</ele>
        <time>2026-05-19T13:40:42.723Z</time>
      </trkpt>
      <trkpt lat="49.48542" lon="1.17212">
        <ele>124</ele>
        <time>2026-05-19T13:40:46.904Z</time>
      </trkpt>
      <trkpt lat="49.48543" lon="1.17215">
        <ele>124</ele>
        <time>2026-05-19T13:43:39.903Z</time>
      </trkpt>
      <trkpt lat="49.48545" lon="1.17218">
        <ele>124</ele>
        <time>2026-05-19T13:43:44.906Z</time>
      </trkpt>
      <trkpt lat="49.48547" lon="1.1722">
        <ele>124</ele>
        <time>2026-05-19T13:43:49.907Z</time>
      </trkpt>
      <trkpt lat="49.48549" lon="1.17223">
        <ele>124</ele>
        <time>2026-05-19T13:43:54.910Z</time>
      </trkpt>
      <trkpt lat="49.48552" lon="1.17226">
        <ele>124</ele>
        <time>2026-05-19T13:43:59.637Z</time>
      </trkpt>
      <trkpt lat="49.48554" lon="1.1723">
        <ele>124</ele>
        <time>2026-05-19T13:44:03.853Z</time>
      </trkpt>
      <trkpt lat="49.48555" lon="1.17233">
        <ele>124</ele>
        <time>2026-05-19T13:44:08.254Z</time>
      </trkpt>
      <trkpt lat="49.48556" lon="1.17237">
        <ele>128</ele>
        <time>2026-05-19T13:44:12.454Z</time>
      </trkpt>
      <trkpt lat="49.48556" lon="1.17243">
        <ele>128</ele>
        <time>2026-05-19T13:44:16.905Z</time>
      </trkpt>
      <trkpt lat="49.48556" lon="1.17247">
        <ele>128</ele>
        <time>2026-05-19T13:44:21.405Z</time>
      </trkpt>
      <trkpt lat="49.48555" lon="1.17251">
        <ele>128</ele>
        <time>2026-05-19T13:44:25.807Z</time>
      </trkpt>
      <trkpt lat="49.48555" lon="1.17256">
        <ele>128</ele>
        <time>2026-05-19T13:44:30.140Z</time>
      </trkpt>
      <trkpt lat="49.48556" lon="1.17261">
        <ele>128</ele>
        <time>2026-05-19T13:44:34.707Z</time>
      </trkpt>
      <trkpt lat="49.48558" lon="1.17267">
        <ele>130</ele>
        <time>2026-05-19T13:44:39.118Z</time>
      </trkpt>
      <trkpt lat="49.48561" lon="1.17273">
        <ele>130</ele>
        <time>2026-05-19T13:44:43.722Z</time>
      </trkpt>
      <trkpt lat="49.48564" lon="1.17277">
        <ele>130</ele>
        <time>2026-05-19T13:44:48.317Z</time>
      </trkpt>
      <trkpt lat="49.48566" lon="1.17282">
        <ele>130</ele>
        <time>2026-05-19T13:44:52.930Z</time>
      </trkpt>
      <trkpt lat="49.48567" lon="1.17286">
        <ele>130</ele>
        <time>2026-05-19T13:44:57.392Z</time>
      </trkpt>
      <trkpt lat="49.48569" lon="1.1729">
        <ele>130</ele>
        <time>2026-05-19T13:45:01.785Z</time>
      </trkpt>
      <trkpt lat="49.48572" lon="1.17293">
        <ele>138</ele>
        <time>2026-05-19T13:45:06.175Z</time>
      </trkpt>
      <trkpt lat="49.48575" lon="1.17295">
        <ele>138</ele>
        <time>2026-05-19T13:45:10.831Z</time>
      </trkpt>
      <trkpt lat="49.48578" lon="1.17297">
        <ele>138</ele>
        <time>2026-05-19T13:45:15.426Z</time>
      </trkpt>
      <trkpt lat="49.48581" lon="1.17298">
        <ele>138</ele>
        <time>2026-05-19T13:45:19.428Z</time>
      </trkpt>
      <trkpt lat="49.48585" lon="1.17299">
        <ele>138</ele>
        <time>2026-05-19T13:45:23.903Z</time>
      </trkpt>
      <trkpt lat="49.48589" lon="1.173">
        <ele>138</ele>
        <time>2026-05-19T13:45:28.628Z</time>
      </trkpt>
      <trkpt lat="49.48591" lon="1.17302">
        <ele>138</ele>
        <time>2026-05-19T13:45:33.365Z</time>
      </trkpt>
      <trkpt lat="49.48594" lon="1.17304">
        <ele>138</ele>
        <time>2026-05-19T13:45:37.511Z</time>
      </trkpt>
      <trkpt lat="49.48597" lon="1.17307">
        <ele>138</ele>
        <time>2026-05-19T13:45:41.896Z</time>
      </trkpt>
      <trkpt lat="49.486" lon="1.17311">
        <ele>142</ele>
        <time>2026-05-19T13:45:45.911Z</time>
      </trkpt>
      <trkpt lat="49.48603" lon="1.17314">
        <ele>142</ele>
        <time>2026-05-19T13:45:50.188Z</time>
      </trkpt>
      <trkpt lat="49.48605" lon="1.17317">
        <ele>142</ele>
        <time>2026-05-19T13:45:54.271Z</time>
      </trkpt>
      <trkpt lat="49.48608" lon="1.17321">
        <ele>143</ele>
        <time>2026-05-19T13:45:58.464Z</time>
      </trkpt>
      <trkpt lat="49.48611" lon="1.17325">
        <ele>143</ele>
        <time>2026-05-19T13:46:02.909Z</time>
      </trkpt>
      <trkpt lat="49.48614" lon="1.17328">
        <ele>143</ele>
        <time>2026-05-19T13:46:07.414Z</time>
      </trkpt>
      <trkpt lat="49.48617" lon="1.1733">
        <ele>143</ele>
        <time>2026-05-19T13:46:11.772Z</time>
      </trkpt>
      <trkpt lat="49.4862" lon="1.17332">
        <ele>143</ele>
        <time>2026-05-19T13:46:15.901Z</time>
      </trkpt>
      <trkpt lat="49.48622" lon="1.17333">
        <ele>143</ele>
        <time>2026-05-19T13:46:20.428Z</time>
      </trkpt>
      <trkpt lat="49.48627" lon="1.17338">
        <ele>145</ele>
        <time>2026-05-19T13:46:24.690Z</time>
      </trkpt>
      <trkpt lat="49.48629" lon="1.1734">
        <ele>145</ele>
        <time>2026-05-19T13:46:28.866Z</time>
      </trkpt>
      <trkpt lat="49.4863" lon="1.17341">
        <ele>145</ele>
        <time>2026-05-19T13:46:32.890Z</time>
      </trkpt>
      <trkpt lat="49.48631" lon="1.17346">
        <ele>145</ele>
        <time>2026-05-19T13:46:37.890Z</time>
      </trkpt>
      <trkpt lat="49.48633" lon="1.17349">
        <ele>146</ele>
        <time>2026-05-19T13:46:50.907Z</time>
      </trkpt>
      <trkpt lat="49.48635" lon="1.17354">
        <ele>146</ele>
        <time>2026-05-19T13:46:55.900Z</time>
      </trkpt>
      <trkpt lat="49.48636" lon="1.17357">
        <ele>146</ele>
        <time>2026-05-19T13:47:00.605Z</time>
      </trkpt>
      <trkpt lat="49.48638" lon="1.1736">
        <ele>146</ele>
        <time>2026-05-19T13:47:04.712Z</time>
      </trkpt>
      <trkpt lat="49.4864" lon="1.17362">
        <ele>146</ele>
        <time>2026-05-19T13:47:09.069Z</time>
      </trkpt>
      <trkpt lat="49.48642" lon="1.17366">
        <ele>146</ele>
        <time>2026-05-19T13:47:13.677Z</time>
      </trkpt>
      <trkpt lat="49.48644" lon="1.17368">
        <ele>146</ele>
        <time>2026-05-19T13:47:17.903Z</time>
      </trkpt>
      <trkpt lat="49.48646" lon="1.1737">
        <ele>146</ele>
        <time>2026-05-19T13:47:21.916Z</time>
      </trkpt>
      <trkpt lat="49.48648" lon="1.17373">
        <ele>146</ele>
        <time>2026-05-19T13:47:26.477Z</time>
      </trkpt>
      <trkpt lat="49.4865" lon="1.17376">
        <ele>146</ele>
        <time>2026-05-19T13:47:31.186Z</time>
      </trkpt>
      <trkpt lat="49.48651" lon="1.17381">
        <ele>146</ele>
        <time>2026-05-19T13:47:35.270Z</time>
      </trkpt>
      <trkpt lat="49.48649" lon="1.17386">
        <ele>146</ele>
        <time>2026-05-19T13:47:39.629Z</time>
      </trkpt>
      <trkpt lat="49.4865" lon="1.17391">
        <ele>146</ele>
        <time>2026-05-19T13:47:43.903Z</time>
      </trkpt>
      <trkpt lat="49.48653" lon="1.17395">
        <ele>146</ele>
        <time>2026-05-19T13:48:12.905Z</time>
      </trkpt>
      <trkpt lat="49.48657" lon="1.17398">
        <ele>146</ele>
        <time>2026-05-19T13:48:19.904Z</time>
      </trkpt>
      <trkpt lat="49.48658" lon="1.17403">
        <ele>146</ele>
        <time>2026-05-19T13:48:24.604Z</time>
      </trkpt>
      <trkpt lat="49.48662" lon="1.17405">
        <ele>146</ele>
        <time>2026-05-19T13:48:29.364Z</time>
      </trkpt>
      <trkpt lat="49.48666" lon="1.17407">
        <ele>146</ele>
        <time>2026-05-19T13:48:33.605Z</time>
      </trkpt>
      <trkpt lat="49.4867" lon="1.17411">
        <ele>146</ele>
        <time>2026-05-19T13:48:38.349Z</time>
      </trkpt>
      <trkpt lat="49.48673" lon="1.17416">
        <ele>146</ele>
        <time>2026-05-19T13:48:42.652Z</time>
      </trkpt>
      <trkpt lat="49.48676" lon="1.17422">
        <ele>146</ele>
        <time>2026-05-19T13:48:46.900Z</time>
      </trkpt>
      <trkpt lat="49.4868" lon="1.17426">
        <ele>146</ele>
        <time>2026-05-19T13:48:50.902Z</time>
      </trkpt>
      <trkpt lat="49.48682" lon="1.17429">
        <ele>145</ele>
        <time>2026-05-19T13:48:55.427Z</time>
      </trkpt>
      <trkpt lat="49.48686" lon="1.17433">
        <ele>146</ele>
        <time>2026-05-19T13:48:59.902Z</time>
      </trkpt>
      <trkpt lat="49.48689" lon="1.17437">
        <ele>146</ele>
        <time>2026-05-19T13:49:04.901Z</time>
      </trkpt>
      <trkpt lat="49.48692" lon="1.1744">
        <ele>146</ele>
        <time>2026-05-19T13:49:09.424Z</time>
      </trkpt>
      <trkpt lat="49.48695" lon="1.17443">
        <ele>146</ele>
        <time>2026-05-19T13:49:13.903Z</time>
      </trkpt>
      <trkpt lat="49.48698" lon="1.17447">
        <ele>146</ele>
        <time>2026-05-19T13:49:17.910Z</time>
      </trkpt>
      <trkpt lat="49.48702" lon="1.17451">
        <ele>146</ele>
        <time>2026-05-19T13:49:22.830Z</time>
      </trkpt>
      <trkpt lat="49.48706" lon="1.17455">
        <ele>146</ele>
        <time>2026-05-19T13:49:26.896Z</time>
      </trkpt>
      <trkpt lat="49.48709" lon="1.1746">
        <ele>147</ele>
        <time>2026-05-19T13:49:31.607Z</time>
      </trkpt>
      <trkpt lat="49.48711" lon="1.17464">
        <ele>147</ele>
        <time>2026-05-19T13:49:35.903Z</time>
      </trkpt>
      <trkpt lat="49.48713" lon="1.17469">
        <ele>147</ele>
        <time>2026-05-19T13:49:40.348Z</time>
      </trkpt>
      <trkpt lat="49.48715" lon="1.17476">
        <ele>147</ele>
        <time>2026-05-19T13:49:44.855Z</time>
      </trkpt>
      <trkpt lat="49.48718" lon="1.17482">
        <ele>147</ele>
        <time>2026-05-19T13:49:48.906Z</time>
      </trkpt>
      <trkpt lat="49.48721" lon="1.17486">
        <ele>147</ele>
        <time>2026-05-19T13:49:53.451Z</time>
      </trkpt>
      <trkpt lat="49.48725" lon="1.1749">
        <ele>148</ele>
        <time>2026-05-19T13:49:57.903Z</time>
      </trkpt>
      <trkpt lat="49.48728" lon="1.17493">
        <ele>148</ele>
        <time>2026-05-19T13:50:02.806Z</time>
      </trkpt>
      <trkpt lat="49.48732" lon="1.17497">
        <ele>148</ele>
        <time>2026-05-19T13:50:07.709Z</time>
      </trkpt>
      <trkpt lat="49.48735" lon="1.175">
        <ele>148</ele>
        <time>2026-05-19T13:50:11.831Z</time>
      </trkpt>
      <trkpt lat="49.48737" lon="1.17503">
        <ele>147</ele>
        <time>2026-05-19T13:50:15.902Z</time>
      </trkpt>
      <trkpt lat="49.4874" lon="1.17505">
        <ele>147</ele>
        <time>2026-05-19T13:50:20.477Z</time>
      </trkpt>
      <trkpt lat="49.48742" lon="1.17508">
        <ele>147</ele>
        <time>2026-05-19T13:50:24.832Z</time>
      </trkpt>
      <trkpt lat="49.48745" lon="1.1751">
        <ele>147</ele>
        <time>2026-05-19T13:50:28.899Z</time>
      </trkpt>
      <trkpt lat="49.48748" lon="1.17515">
        <ele>148</ele>
        <time>2026-05-19T13:50:32.904Z</time>
      </trkpt>
      <trkpt lat="49.48752" lon="1.17519">
        <ele>148</ele>
        <time>2026-05-19T13:50:37.895Z</time>
      </trkpt>
      <trkpt lat="49.48754" lon="1.17523">
        <ele>148</ele>
        <time>2026-05-19T13:50:42.901Z</time>
      </trkpt>
      <trkpt lat="49.48756" lon="1.17527">
        <ele>148</ele>
        <time>2026-05-19T13:50:47.332Z</time>
      </trkpt>
      <trkpt lat="49.48761" lon="1.1753">
        <ele>148</ele>
        <time>2026-05-19T13:50:51.713Z</time>
      </trkpt>
      <trkpt lat="49.48765" lon="1.17533">
        <ele>147</ele>
        <time>2026-05-19T13:50:55.903Z</time>
      </trkpt>
      <trkpt lat="49.48769" lon="1.17536">
        <ele>147</ele>
        <time>2026-05-19T13:51:00.510Z</time>
      </trkpt>
      <trkpt lat="49.48772" lon="1.17538">
        <ele>147</ele>
        <time>2026-05-19T13:51:04.560Z</time>
      </trkpt>
      <trkpt lat="49.48776" lon="1.17542">
        <ele>149</ele>
        <time>2026-05-19T13:51:08.898Z</time>
      </trkpt>
      <trkpt lat="49.4878" lon="1.17547">
        <ele>149</ele>
        <time>2026-05-19T13:51:13.909Z</time>
      </trkpt>
      <trkpt lat="49.48784" lon="1.17553">
        <ele>149</ele>
        <time>2026-05-19T13:51:18.893Z</time>
      </trkpt>
      <trkpt lat="49.48786" lon="1.17558">
        <ele>149</ele>
        <time>2026-05-19T13:51:23.902Z</time>
      </trkpt>
      <trkpt lat="49.4879" lon="1.17562">
        <ele>149</ele>
        <time>2026-05-19T13:51:28.897Z</time>
      </trkpt>
      <trkpt lat="49.48793" lon="1.17566">
        <ele>148</ele>
        <time>2026-05-19T13:51:33.108Z</time>
      </trkpt>
      <trkpt lat="49.48798" lon="1.1757">
        <ele>150</ele>
        <time>2026-05-19T13:51:37.907Z</time>
      </trkpt>
      <trkpt lat="49.48802" lon="1.17572">
        <ele>150</ele>
        <time>2026-05-19T13:51:42.615Z</time>
      </trkpt>
      <trkpt lat="49.48806" lon="1.17574">
        <ele>150</ele>
        <time>2026-05-19T13:51:46.690Z</time>
      </trkpt>
      <trkpt lat="49.48812" lon="1.17575">
        <ele>150</ele>
        <time>2026-05-19T13:51:51.461Z</time>
      </trkpt>
      <trkpt lat="49.48816" lon="1.17577">
        <ele>150</ele>
        <time>2026-05-19T13:51:55.905Z</time>
      </trkpt>
      <trkpt lat="49.48821" lon="1.1758">
        <ele>153</ele>
        <time>2026-05-19T13:51:59.900Z</time>
      </trkpt>
      <trkpt lat="49.48824" lon="1.17584">
        <ele>153</ele>
        <time>2026-05-19T13:52:04.666Z</time>
      </trkpt>
      <trkpt lat="49.48828" lon="1.17588">
        <ele>153</ele>
        <time>2026-05-19T13:52:08.836Z</time>
      </trkpt>
      <trkpt lat="49.48831" lon="1.17592">
        <ele>153</ele>
        <time>2026-05-19T13:52:13.630Z</time>
      </trkpt>
      <trkpt lat="49.48834" lon="1.17596">
        <ele>153</ele>
        <time>2026-05-19T13:52:18.347Z</time>
      </trkpt>
      <trkpt lat="49.48838" lon="1.176">
        <ele>154</ele>
        <time>2026-05-19T13:52:22.897Z</time>
      </trkpt>
      <trkpt lat="49.48841" lon="1.17603">
        <ele>154</ele>
        <time>2026-05-19T13:52:27.678Z</time>
      </trkpt>
      <trkpt lat="49.48845" lon="1.17606">
        <ele>154</ele>
        <time>2026-05-19T13:52:32.367Z</time>
      </trkpt>
      <trkpt lat="49.48849" lon="1.17609">
        <ele>156</ele>
        <time>2026-05-19T13:52:36.900Z</time>
      </trkpt>
      <trkpt lat="49.48854" lon="1.17608">
        <ele>156</ele>
        <time>2026-05-19T13:52:41.748Z</time>
      </trkpt>
      <trkpt lat="49.48858" lon="1.17609">
        <ele>156</ele>
        <time>2026-05-19T13:52:46.271Z</time>
      </trkpt>
      <trkpt lat="49.48861" lon="1.17613">
        <ele>156</ele>
        <time>2026-05-19T13:52:50.848Z</time>
      </trkpt>
      <trkpt lat="49.48865" lon="1.17617">
        <ele>156</ele>
        <time>2026-05-19T13:52:55.597Z</time>
      </trkpt>
      <trkpt lat="49.48869" lon="1.1762">
        <ele>156</ele>
        <time>2026-05-19T13:53:00.450Z</time>
      </trkpt>
      <trkpt lat="49.48874" lon="1.17622">
        <ele>156</ele>
        <time>2026-05-19T13:53:04.904Z</time>
      </trkpt>
      <trkpt lat="49.48879" lon="1.17625">
        <ele>156</ele>
        <time>2026-05-19T13:53:09.155Z</time>
      </trkpt>
      <trkpt lat="49.48884" lon="1.17629">
        <ele>156</ele>
        <time>2026-05-19T13:53:13.900Z</time>
      </trkpt>
      <trkpt lat="49.48887" lon="1.17632">
        <ele>156</ele>
        <time>2026-05-19T13:53:17.897Z</time>
      </trkpt>
      <trkpt lat="49.4889" lon="1.17634">
        <ele>156</ele>
        <time>2026-05-19T13:53:22.898Z</time>
      </trkpt>
      <trkpt lat="49.48894" lon="1.17636">
        <ele>156</ele>
        <time>2026-05-19T13:53:27.747Z</time>
      </trkpt>
      <trkpt lat="49.48898" lon="1.17637">
        <ele>156</ele>
        <time>2026-05-19T13:53:31.832Z</time>
      </trkpt>
      <trkpt lat="49.48902" lon="1.17638">
        <ele>156</ele>
        <time>2026-05-19T13:53:35.898Z</time>
      </trkpt>
      <trkpt lat="49.48906" lon="1.1764">
        <ele>155</ele>
        <time>2026-05-19T13:53:39.901Z</time>
      </trkpt>
      <trkpt lat="49.48911" lon="1.17644">
        <ele>155</ele>
        <time>2026-05-19T13:53:44.898Z</time>
      </trkpt>
      <trkpt lat="49.48914" lon="1.17647">
        <ele>155</ele>
        <time>2026-05-19T13:53:49.867Z</time>
      </trkpt>
      <trkpt lat="49.48917" lon="1.1765">
        <ele>155</ele>
        <time>2026-05-19T13:53:54.854Z</time>
      </trkpt>
      <trkpt lat="49.4892" lon="1.17653">
        <ele>155</ele>
        <time>2026-05-19T13:53:58.900Z</time>
      </trkpt>
      <trkpt lat="49.48924" lon="1.17655">
        <ele>155</ele>
        <time>2026-05-19T13:54:03.907Z</time>
      </trkpt>
      <trkpt lat="49.48928" lon="1.17659">
        <ele>155</ele>
        <time>2026-05-19T13:54:08.903Z</time>
      </trkpt>
      <trkpt lat="49.48933" lon="1.17662">
        <ele>154</ele>
        <time>2026-05-19T13:54:13.365Z</time>
      </trkpt>
      <trkpt lat="49.48937" lon="1.17665">
        <ele>154</ele>
        <time>2026-05-19T13:54:21.653Z</time>
      </trkpt>
      <trkpt lat="49.48941" lon="1.17668">
        <ele>154</ele>
        <time>2026-05-19T13:54:25.898Z</time>
      </trkpt>
      <trkpt lat="49.48946" lon="1.17672">
        <ele>154</ele>
        <time>2026-05-19T13:54:30.465Z</time>
      </trkpt>
      <trkpt lat="49.48951" lon="1.17675">
        <ele>154</ele>
        <time>2026-05-19T13:54:34.722Z</time>
      </trkpt>
      <trkpt lat="49.48953" lon="1.1768">
        <ele>154</ele>
        <time>2026-05-19T13:54:38.906Z</time>
      </trkpt>
      <trkpt lat="49.48953" lon="1.17687">
        <ele>155</ele>
        <time>2026-05-19T13:54:43.379Z</time>
      </trkpt>
      <trkpt lat="49.48953" lon="1.17693">
        <ele>155</ele>
        <time>2026-05-19T13:54:47.807Z</time>
      </trkpt>
      <trkpt lat="49.48954" lon="1.17698">
        <ele>155</ele>
        <time>2026-05-19T13:54:51.901Z</time>
      </trkpt>
      <trkpt lat="49.48955" lon="1.17703">
        <ele>155</ele>
        <time>2026-05-19T13:54:55.892Z</time>
      </trkpt>
      <trkpt lat="49.48956" lon="1.17709">
        <ele>156</ele>
        <time>2026-05-19T13:55:00.913Z</time>
      </trkpt>
      <trkpt lat="49.48958" lon="1.17714">
        <ele>156</ele>
        <time>2026-05-19T13:55:05.631Z</time>
      </trkpt>
      <trkpt lat="49.48958" lon="1.17719">
        <ele>156</ele>
        <time>2026-05-19T13:55:09.905Z</time>
      </trkpt>
      <trkpt lat="49.48958" lon="1.17725">
        <ele>156</ele>
        <time>2026-05-19T13:55:14.511Z</time>
      </trkpt>
      <trkpt lat="49.48959" lon="1.17729">
        <ele>156</ele>
        <time>2026-05-19T13:55:18.783Z</time>
      </trkpt>
      <trkpt lat="49.48959" lon="1.17733">
        <ele>156</ele>
        <time>2026-05-19T13:55:22.901Z</time>
      </trkpt>
      <trkpt lat="49.48958" lon="1.17736">
        <ele>156</ele>
        <time>2026-05-19T13:55:27.900Z</time>
      </trkpt>
      <trkpt lat="49.48959" lon="1.17741">
        <ele>156</ele>
        <time>2026-05-19T13:55:32.901Z</time>
      </trkpt>
      <trkpt lat="49.4896" lon="1.17748">
        <ele>156</ele>
        <time>2026-05-19T13:55:36.904Z</time>
      </trkpt>
      <trkpt lat="49.48961" lon="1.17755">
        <ele>156</ele>
        <time>2026-05-19T13:55:40.907Z</time>
      </trkpt>
      <trkpt lat="49.48965" lon="1.17761">
        <ele>156</ele>
        <time>2026-05-19T13:55:45.477Z</time>
      </trkpt>
      <trkpt lat="49.48967" lon="1.17765">
        <ele>155</ele>
        <time>2026-05-19T13:55:49.653Z</time>
      </trkpt>
      <trkpt lat="49.48973" lon="1.17769">
        <ele>155</ele>
        <time>2026-05-19T13:55:53.712Z</time>
      </trkpt>
      <trkpt lat="49.48977" lon="1.17773">
        <ele>155</ele>
        <time>2026-05-19T13:55:57.891Z</time>
      </trkpt>
      <trkpt lat="49.4898" lon="1.17778">
        <ele>155</ele>
        <time>2026-05-19T13:56:02.907Z</time>
      </trkpt>
      <trkpt lat="49.48981" lon="1.17779">
        <ele>155</ele>
        <time>2026-05-19T13:56:07.906Z</time>
      </trkpt>
      <trkpt lat="49.48982" lon="1.17786">
        <ele>155</ele>
        <time>2026-05-19T13:56:12.900Z</time>
      </trkpt>
      <trkpt lat="49.48984" lon="1.17792">
        <ele>155</ele>
        <time>2026-05-19T13:56:17.905Z</time>
      </trkpt>
      <trkpt lat="49.48987" lon="1.17797">
        <ele>155</ele>
        <time>2026-05-19T13:56:22.246Z</time>
      </trkpt>
      <trkpt lat="49.48989" lon="1.17802">
        <ele>155</ele>
        <time>2026-05-19T13:56:26.427Z</time>
      </trkpt>
      <trkpt lat="49.48988" lon="1.17806">
        <ele>155</ele>
        <time>2026-05-19T13:56:30.702Z</time>
      </trkpt>
      <trkpt lat="49.48985" lon="1.17812">
        <ele>155</ele>
        <time>2026-05-19T13:56:34.889Z</time>
      </trkpt>
      <trkpt lat="49.48987" lon="1.17822">
        <ele>155</ele>
        <time>2026-05-19T13:56:38.907Z</time>
      </trkpt>
      <trkpt lat="49.48985" lon="1.17828">
        <ele>154</ele>
        <time>2026-05-19T13:56:43.347Z</time>
      </trkpt>
      <trkpt lat="49.48982" lon="1.17832">
        <ele>154</ele>
        <time>2026-05-19T13:56:47.547Z</time>
      </trkpt>
      <trkpt lat="49.48978" lon="1.17837">
        <ele>154</ele>
        <time>2026-05-19T13:56:51.713Z</time>
      </trkpt>
      <trkpt lat="49.48975" lon="1.1784">
        <ele>154</ele>
        <time>2026-05-19T13:56:55.912Z</time>
      </trkpt>
      <trkpt lat="49.48972" lon="1.17845">
        <ele>154</ele>
        <time>2026-05-19T13:57:00.854Z</time>
      </trkpt>
      <trkpt lat="49.48969" lon="1.1785">
        <ele>154</ele>
        <time>2026-05-19T13:57:04.901Z</time>
      </trkpt>
      <trkpt lat="49.48967" lon="1.17855">
        <ele>154</ele>
        <time>2026-05-19T13:57:13.511Z</time>
      </trkpt>
      <trkpt lat="49.48964" lon="1.17855">
        <ele>154</ele>
        <time>2026-05-19T13:57:17.784Z</time>
      </trkpt>
      <trkpt lat="49.48959" lon="1.17858">
        <ele>154</ele>
        <time>2026-05-19T13:57:21.866Z</time>
      </trkpt>
      <trkpt lat="49.48956" lon="1.17859">
        <ele>153</ele>
        <time>2026-05-19T13:57:25.902Z</time>
      </trkpt>
      <trkpt lat="49.48951" lon="1.1786">
        <ele>153</ele>
        <time>2026-05-19T13:57:29.912Z</time>
      </trkpt>
      <trkpt lat="49.48946" lon="1.17862">
        <ele>153</ele>
        <time>2026-05-19T13:57:34.569Z</time>
      </trkpt>
      <trkpt lat="49.48942" lon="1.17861">
        <ele>153</ele>
        <time>2026-05-19T13:57:38.700Z</time>
      </trkpt>
      <trkpt lat="49.48938" lon="1.17861">
        <ele>153</ele>
        <time>2026-05-19T13:57:42.897Z</time>
      </trkpt>
      <trkpt lat="49.48933" lon="1.17861">
        <ele>153</ele>
        <time>2026-05-19T13:57:46.908Z</time>
      </trkpt>
      <trkpt lat="49.48928" lon="1.17862">
        <ele>156</ele>
        <time>2026-05-19T13:57:51.596Z</time>
      </trkpt>
      <trkpt lat="49.48923" lon="1.17863">
        <ele>156</ele>
        <time>2026-05-19T13:57:55.835Z</time>
      </trkpt>
      <trkpt lat="49.48919" lon="1.17866">
        <ele>156</ele>
        <time>2026-05-19T13:57:59.903Z</time>
      </trkpt>
      <trkpt lat="49.48916" lon="1.17869">
        <ele>156</ele>
        <time>2026-05-19T13:58:04.897Z</time>
      </trkpt>
      <trkpt lat="49.48913" lon="1.17872">
        <ele>156</ele>
        <time>2026-05-19T13:58:09.905Z</time>
      </trkpt>
      <trkpt lat="49.48908" lon="1.17873">
        <ele>156</ele>
        <time>2026-05-19T13:58:14.643Z</time>
      </trkpt>
      <trkpt lat="49.48902" lon="1.17871">
        <ele>160</ele>
        <time>2026-05-19T13:58:18.906Z</time>
      </trkpt>
      <trkpt lat="49.48898" lon="1.1787">
        <ele>160</ele>
        <time>2026-05-19T13:58:23.900Z</time>
      </trkpt>
      <trkpt lat="49.48895" lon="1.1787">
        <ele>160</ele>
        <time>2026-05-19T13:58:28.349Z</time>
      </trkpt>
      <trkpt lat="49.48892" lon="1.17873">
        <ele>160</ele>
        <time>2026-05-19T13:58:32.714Z</time>
      </trkpt>
      <trkpt lat="49.4889" lon="1.17879">
        <ele>159</ele>
        <time>2026-05-19T13:58:37.387Z</time>
      </trkpt>
      <trkpt lat="49.4889" lon="1.17888">
        <ele>159</ele>
        <time>2026-05-19T13:58:41.574Z</time>
      </trkpt>
      <trkpt lat="49.48891" lon="1.17892">
        <ele>159</ele>
        <time>2026-05-19T13:58:45.907Z</time>
      </trkpt>
      <trkpt lat="49.48894" lon="1.17895">
        <ele>159</ele>
        <time>2026-05-19T13:58:50.548Z</time>
      </trkpt>
      <trkpt lat="49.48893" lon="1.17895">
        <ele>159</ele>
        <time>2026-05-19T13:58:54.831Z</time>
      </trkpt>
      <trkpt lat="49.48892" lon="1.17899">
        <ele>159</ele>
        <time>2026-05-19T13:58:59.270Z</time>
      </trkpt>
      <trkpt lat="49.4889" lon="1.17904">
        <ele>156</ele>
        <time>2026-05-19T13:59:03.666Z</time>
      </trkpt>
      <trkpt lat="49.48886" lon="1.17907">
        <ele>156</ele>
        <time>2026-05-19T13:59:07.905Z</time>
      </trkpt>
      <trkpt lat="49.48881" lon="1.17909">
        <ele>156</ele>
        <time>2026-05-19T13:59:12.351Z</time>
      </trkpt>
      <trkpt lat="49.48877" lon="1.17909">
        <ele>156</ele>
        <time>2026-05-19T13:59:16.523Z</time>
      </trkpt>
      <trkpt lat="49.48873" lon="1.1791">
        <ele>158</ele>
        <time>2026-05-19T13:59:20.785Z</time>
      </trkpt>
      <trkpt lat="49.48869" lon="1.1791">
        <ele>158</ele>
        <time>2026-05-19T13:59:25.103Z</time>
      </trkpt>
      <trkpt lat="49.48865" lon="1.17912">
        <ele>158</ele>
        <time>2026-05-19T13:59:29.391Z</time>
      </trkpt>
      <trkpt lat="49.48863" lon="1.17913">
        <ele>158</ele>
        <time>2026-05-19T13:59:33.712Z</time>
      </trkpt>
      <trkpt lat="49.48861" lon="1.17917">
        <ele>158</ele>
        <time>2026-05-19T13:59:37.910Z</time>
      </trkpt>
      <trkpt lat="49.48857" lon="1.1792">
        <ele>158</ele>
        <time>2026-05-19T13:59:42.174Z</time>
      </trkpt>
      <trkpt lat="49.48855" lon="1.17924">
        <ele>158</ele>
        <time>2026-05-19T13:59:46.295Z</time>
      </trkpt>
      <trkpt lat="49.48851" lon="1.17927">
        <ele>158</ele>
        <time>2026-05-19T13:59:50.428Z</time>
      </trkpt>
      <trkpt lat="49.48847" lon="1.17929">
        <ele>159</ele>
        <time>2026-05-19T13:59:54.738Z</time>
      </trkpt>
      <trkpt lat="49.48842" lon="1.1793">
        <ele>159</ele>
        <time>2026-05-19T13:59:58.898Z</time>
      </trkpt>
      <trkpt lat="49.48837" lon="1.1793">
        <ele>159</ele>
        <time>2026-05-19T14:00:02.901Z</time>
      </trkpt>
      <trkpt lat="49.48832" lon="1.1793">
        <ele>159</ele>
        <time>2026-05-19T14:00:07.152Z</time>
      </trkpt>
      <trkpt lat="49.48827" lon="1.17931">
        <ele>157</ele>
        <time>2026-05-19T14:00:11.353Z</time>
      </trkpt>
      <trkpt lat="49.48823" lon="1.17933">
        <ele>157</ele>
        <time>2026-05-19T14:00:15.605Z</time>
      </trkpt>
      <trkpt lat="49.48819" lon="1.17936">
        <ele>158</ele>
        <time>2026-05-19T14:00:19.909Z</time>
      </trkpt>
      <trkpt lat="49.48816" lon="1.1794">
        <ele>158</ele>
        <time>2026-05-19T14:00:24.573Z</time>
      </trkpt>
      <trkpt lat="49.48814" lon="1.17943">
        <ele>158</ele>
        <time>2026-05-19T14:00:28.605Z</time>
      </trkpt>
      <trkpt lat="49.48811" lon="1.17941">
        <ele>158</ele>
        <time>2026-05-19T14:00:32.785Z</time>
      </trkpt>
      <trkpt lat="49.48808" lon="1.17941">
        <ele>158</ele>
        <time>2026-05-19T14:00:36.898Z</time>
      </trkpt>
      <trkpt lat="49.48804" lon="1.17941">
        <ele>158</ele>
        <time>2026-05-19T14:00:41.294Z</time>
      </trkpt>
      <trkpt lat="49.48797" lon="1.17943">
        <ele>158</ele>
        <time>2026-05-19T14:00:45.455Z</time>
      </trkpt>
      <trkpt lat="49.48794" lon="1.17943">
        <ele>158</ele>
        <time>2026-05-19T14:00:49.640Z</time>
      </trkpt>
      <trkpt lat="49.4879" lon="1.17945">
        <ele>158</ele>
        <time>2026-05-19T14:00:53.918Z</time>
      </trkpt>
      <trkpt lat="49.48786" lon="1.17947">
        <ele>158</ele>
        <time>2026-05-19T14:00:58.865Z</time>
      </trkpt>
      <trkpt lat="49.48781" lon="1.17949">
        <ele>158</ele>
        <time>2026-05-19T14:01:03.368Z</time>
      </trkpt>
      <trkpt lat="49.48777" lon="1.1795">
        <ele>158</ele>
        <time>2026-05-19T14:01:07.533Z</time>
      </trkpt>
      <trkpt lat="49.48772" lon="1.17953">
        <ele>158</ele>
        <time>2026-05-19T14:01:11.664Z</time>
      </trkpt>
      <trkpt lat="49.48768" lon="1.17954">
        <ele>158</ele>
        <time>2026-05-19T14:01:16.391Z</time>
      </trkpt>
      <trkpt lat="49.48763" lon="1.17955">
        <ele>159</ele>
        <time>2026-05-19T14:01:20.918Z</time>
      </trkpt>
      <trkpt lat="49.48758" lon="1.17957">
        <ele>159</ele>
        <time>2026-05-19T14:01:25.594Z</time>
      </trkpt>
      <trkpt lat="49.48753" lon="1.1796">
        <ele>158</ele>
        <time>2026-05-19T14:01:29.677Z</time>
      </trkpt>
      <trkpt lat="49.48749" lon="1.17964">
        <ele>158</ele>
        <time>2026-05-19T14:01:33.689Z</time>
      </trkpt>
      <trkpt lat="49.48745" lon="1.17967">
        <ele>158</ele>
        <time>2026-05-19T14:01:38.318Z</time>
      </trkpt>
      <trkpt lat="49.4874" lon="1.17969">
        <ele>158</ele>
        <time>2026-05-19T14:01:42.905Z</time>
      </trkpt>
      <trkpt lat="49.48736" lon="1.1797">
        <ele>159</ele>
        <time>2026-05-19T14:01:46.905Z</time>
      </trkpt>
      <trkpt lat="49.48731" lon="1.17971">
        <ele>159</ele>
        <time>2026-05-19T14:01:51.630Z</time>
      </trkpt>
      <trkpt lat="49.48726" lon="1.17972">
        <ele>159</ele>
        <time>2026-05-19T14:01:56.294Z</time>
      </trkpt>
      <trkpt lat="49.48721" lon="1.17972">
        <ele>159</ele>
        <time>2026-05-19T14:02:00.899Z</time>
      </trkpt>
      <trkpt lat="49.48717" lon="1.17976">
        <ele>159</ele>
        <time>2026-05-19T14:02:05.593Z</time>
      </trkpt>
      <trkpt lat="49.48714" lon="1.1798">
        <ele>159</ele>
        <time>2026-05-19T14:02:10.175Z</time>
      </trkpt>
      <trkpt lat="49.48709" lon="1.17983">
        <ele>159</ele>
        <time>2026-05-19T14:02:14.772Z</time>
      </trkpt>
      <trkpt lat="49.48705" lon="1.17986">
        <ele>158</ele>
        <time>2026-05-19T14:02:19.284Z</time>
      </trkpt>
      <trkpt lat="49.48702" lon="1.17988">
        <ele>157</ele>
        <time>2026-05-19T14:02:23.348Z</time>
      </trkpt>
      <trkpt lat="49.48698" lon="1.17988">
        <ele>157</ele>
        <time>2026-05-19T14:02:27.891Z</time>
      </trkpt>
      <trkpt lat="49.48702" lon="1.17992">
        <ele>157</ele>
        <time>2026-05-19T14:02:32.511Z</time>
      </trkpt>
      <trkpt lat="49.48702" lon="1.17993">
        <ele>157</ele>
        <time>2026-05-19T14:02:36.898Z</time>
      </trkpt>
      <trkpt lat="49.48702" lon="1.17994">
        <ele>157</ele>
        <time>2026-05-19T14:02:41.630Z</time>
      </trkpt>
      <trkpt lat="49.48702" lon="1.17995">
        <ele>157</ele>
        <time>2026-05-19T14:02:45.916Z</time>
      </trkpt>
      <trkpt lat="49.48702" lon="1.17995">
        <ele>157</ele>
        <time>2026-05-19T14:02:50.475Z</time>
      </trkpt>
      <trkpt lat="49.48696" lon="1.1799">
        <ele>157</ele>
        <time>2026-05-19T14:02:54.452Z</time>
      </trkpt>
      <trkpt lat="49.48696" lon="1.1799">
        <ele>157</ele>
        <time>2026-05-19T14:02:58.537Z</time>
      </trkpt>
      <trkpt lat="49.48696" lon="1.17989">
        <ele>157</ele>
        <time>2026-05-19T14:03:02.902Z</time>
      </trkpt>
      <trkpt lat="49.48696" lon="1.17989">
        <ele>157</ele>
        <time>2026-05-19T14:03:07.151Z</time>
      </trkpt>
      <trkpt lat="49.48692" lon="1.17993">
        <ele>157</ele>
        <time>2026-05-19T14:03:11.713Z</time>
      </trkpt>
      <trkpt lat="49.48688" lon="1.17996">
        <ele>157</ele>
        <time>2026-05-19T14:03:15.725Z</time>
      </trkpt>
      <trkpt lat="49.48685" lon="1.18">
        <ele>157</ele>
        <time>2026-05-19T14:03:20.127Z</time>
      </trkpt>
      <trkpt lat="49.4868" lon="1.18003">
        <ele>154</ele>
        <time>2026-05-19T14:03:24.283Z</time>
      </trkpt>
      <trkpt lat="49.48676" lon="1.18005">
        <ele>154</ele>
        <time>2026-05-19T14:03:28.285Z</time>
      </trkpt>
      <trkpt lat="49.48673" lon="1.18008">
        <ele>154</ele>
        <time>2026-05-19T14:03:32.343Z</time>
      </trkpt>
      <trkpt lat="49.48669" lon="1.1801">
        <ele>154</ele>
        <time>2026-05-19T14:03:36.426Z</time>
      </trkpt>
      <trkpt lat="49.48665" lon="1.18011">
        <ele>154</ele>
        <time>2026-05-19T14:03:40.894Z</time>
      </trkpt>
      <trkpt lat="49.48661" lon="1.18014">
        <ele>154</ele>
        <time>2026-05-19T14:03:45.294Z</time>
      </trkpt>
      <trkpt lat="49.48657" lon="1.18017">
        <ele>154</ele>
        <time>2026-05-19T14:03:49.347Z</time>
      </trkpt>
      <trkpt lat="49.48653" lon="1.18021">
        <ele>154</ele>
        <time>2026-05-19T14:03:53.404Z</time>
      </trkpt>
      <trkpt lat="49.48648" lon="1.18023">
        <ele>153</ele>
        <time>2026-05-19T14:03:57.484Z</time>
      </trkpt>
      <trkpt lat="49.48643" lon="1.18023">
        <ele>153</ele>
        <time>2026-05-19T14:04:01.571Z</time>
      </trkpt>
      <trkpt lat="49.4864" lon="1.18018">
        <ele>153</ele>
        <time>2026-05-19T14:04:05.771Z</time>
      </trkpt>
      <trkpt lat="49.48635" lon="1.18017">
        <ele>153</ele>
        <time>2026-05-19T14:04:10.455Z</time>
      </trkpt>
      <trkpt lat="49.4863" lon="1.1802">
        <ele>153</ele>
        <time>2026-05-19T14:04:14.899Z</time>
      </trkpt>
      <trkpt lat="49.48626" lon="1.18024">
        <ele>153</ele>
        <time>2026-05-19T14:04:18.916Z</time>
      </trkpt>
      <trkpt lat="49.48621" lon="1.18029">
        <ele>150</ele>
        <time>2026-05-19T14:04:23.807Z</time>
      </trkpt>
      <trkpt lat="49.48615" lon="1.18032">
        <ele>150</ele>
        <time>2026-05-19T14:04:28.391Z</time>
      </trkpt>
      <trkpt lat="49.48611" lon="1.18035">
        <ele>150</ele>
        <time>2026-05-19T14:04:32.915Z</time>
      </trkpt>
      <trkpt lat="49.48606" lon="1.18036">
        <ele>150</ele>
        <time>2026-05-19T14:04:36.903Z</time>
      </trkpt>
      <trkpt lat="49.48602" lon="1.18039">
        <ele>150</ele>
        <time>2026-05-19T14:04:40.897Z</time>
      </trkpt>
      <trkpt lat="49.48598" lon="1.18045">
        <ele>150</ele>
        <time>2026-05-19T14:04:45.151Z</time>
      </trkpt>
      <trkpt lat="49.48595" lon="1.18049">
        <ele>149</ele>
        <time>2026-05-19T14:04:49.174Z</time>
      </trkpt>
      <trkpt lat="49.4859" lon="1.18053">
        <ele>149</ele>
        <time>2026-05-19T14:04:53.187Z</time>
      </trkpt>
      <trkpt lat="49.48585" lon="1.18058">
        <ele>149</ele>
        <time>2026-05-19T14:04:57.211Z</time>
      </trkpt>
      <trkpt lat="49.48581" lon="1.18061">
        <ele>149</ele>
        <time>2026-05-19T14:05:01.261Z</time>
      </trkpt>
      <trkpt lat="49.48576" lon="1.18064">
        <ele>149</ele>
        <time>2026-05-19T14:05:05.856Z</time>
      </trkpt>
      <trkpt lat="49.48574" lon="1.1807">
        <ele>149</ele>
        <time>2026-05-19T14:05:10.391Z</time>
      </trkpt>
      <trkpt lat="49.48575" lon="1.18078">
        <ele>149</ele>
        <time>2026-05-19T14:05:14.479Z</time>
      </trkpt>
      <trkpt lat="49.48574" lon="1.18085">
        <ele>149</ele>
        <time>2026-05-19T14:05:18.606Z</time>
      </trkpt>
      <trkpt lat="49.4857" lon="1.18091">
        <ele>149</ele>
        <time>2026-05-19T14:05:22.675Z</time>
      </trkpt>
      <trkpt lat="49.48566" lon="1.18097">
        <ele>150</ele>
        <time>2026-05-19T14:05:26.751Z</time>
      </trkpt>
      <trkpt lat="49.48562" lon="1.181">
        <ele>151</ele>
        <time>2026-05-19T14:05:30.867Z</time>
      </trkpt>
      <trkpt lat="49.48558" lon="1.18101">
        <ele>151</ele>
        <time>2026-05-19T14:05:35.332Z</time>
      </trkpt>
      <trkpt lat="49.48553" lon="1.18101">
        <ele>151</ele>
        <time>2026-05-19T14:05:39.430Z</time>
      </trkpt>
      <trkpt lat="49.48548" lon="1.18101">
        <ele>151</ele>
        <time>2026-05-19T14:05:43.450Z</time>
      </trkpt>
      <trkpt lat="49.48543" lon="1.18104">
        <ele>151</ele>
        <time>2026-05-19T14:05:47.652Z</time>
      </trkpt>
      <trkpt lat="49.48539" lon="1.18107">
        <ele>152</ele>
        <time>2026-05-19T14:05:51.912Z</time>
      </trkpt>
      <trkpt lat="49.48534" lon="1.18108">
        <ele>152</ele>
        <time>2026-05-19T14:05:56.474Z</time>
      </trkpt>
      <trkpt lat="49.48531" lon="1.1811">
        <ele>152</ele>
        <time>2026-05-19T14:06:00.735Z</time>
      </trkpt>
      <trkpt lat="49.48526" lon="1.18113">
        <ele>152</ele>
        <time>2026-05-19T14:06:05.353Z</time>
      </trkpt>
      <trkpt lat="49.48521" lon="1.18117">
        <ele>152</ele>
        <time>2026-05-19T14:06:09.904Z</time>
      </trkpt>
      <trkpt lat="49.48519" lon="1.18121">
        <ele>152</ele>
        <time>2026-05-19T14:06:14.572Z</time>
      </trkpt>
      <trkpt lat="49.48515" lon="1.18123">
        <ele>152</ele>
        <time>2026-05-19T14:06:18.904Z</time>
      </trkpt>
      <trkpt lat="49.48511" lon="1.18125">
        <ele>155</ele>
        <time>2026-05-19T14:06:23.843Z</time>
      </trkpt>
      <trkpt lat="49.48507" lon="1.18127">
        <ele>155</ele>
        <time>2026-05-19T14:07:00.891Z</time>
      </trkpt>
      <trkpt lat="49.48502" lon="1.18128">
        <ele>155</ele>
        <time>2026-05-19T14:07:05.389Z</time>
      </trkpt>
      <trkpt lat="49.48497" lon="1.18131">
        <ele>155</ele>
        <time>2026-05-19T14:07:09.907Z</time>
      </trkpt>
      <trkpt lat="49.48492" lon="1.18132">
        <ele>155</ele>
        <time>2026-05-19T14:07:14.773Z</time>
      </trkpt>
      <trkpt lat="49.48489" lon="1.18135">
        <ele>155</ele>
        <time>2026-05-19T14:07:18.912Z</time>
      </trkpt>
      <trkpt lat="49.48485" lon="1.18142">
        <ele>157</ele>
        <time>2026-05-19T14:07:23.404Z</time>
      </trkpt>
      <trkpt lat="49.48485" lon="1.18148">
        <ele>157</ele>
        <time>2026-05-19T14:07:27.751Z</time>
      </trkpt>
      <trkpt lat="49.48479" lon="1.18152">
        <ele>157</ele>
        <time>2026-05-19T14:07:31.847Z</time>
      </trkpt>
      <trkpt lat="49.48476" lon="1.18155">
        <ele>157</ele>
        <time>2026-05-19T14:07:35.905Z</time>
      </trkpt>
      <trkpt lat="49.48472" lon="1.18159">
        <ele>157</ele>
        <time>2026-05-19T14:07:58.551Z</time>
      </trkpt>
      <trkpt lat="49.48466" lon="1.18163">
        <ele>157</ele>
        <time>2026-05-19T14:08:02.908Z</time>
      </trkpt>
      <trkpt lat="49.48463" lon="1.18168">
        <ele>157</ele>
        <time>2026-05-19T14:08:07.742Z</time>
      </trkpt>
      <trkpt lat="49.48459" lon="1.18172">
        <ele>157</ele>
        <time>2026-05-19T14:08:12.351Z</time>
      </trkpt>
      <trkpt lat="49.48454" lon="1.18176">
        <ele>159</ele>
        <time>2026-05-19T14:08:16.628Z</time>
      </trkpt>
      <trkpt lat="49.48448" lon="1.18179">
        <ele>159</ele>
        <time>2026-05-19T14:08:20.899Z</time>
      </trkpt>
      <trkpt lat="49.48443" lon="1.18179">
        <ele>159</ele>
        <time>2026-05-19T14:08:25.364Z</time>
      </trkpt>
      <trkpt lat="49.48439" lon="1.1818">
        <ele>159</ele>
        <time>2026-05-19T14:08:29.902Z</time>
      </trkpt>
      <trkpt lat="49.48435" lon="1.18184">
        <ele>158</ele>
        <time>2026-05-19T14:08:34.625Z</time>
      </trkpt>
      <trkpt lat="49.48431" lon="1.18188">
        <ele>158</ele>
        <time>2026-05-19T14:08:39.287Z</time>
      </trkpt>
      <trkpt lat="49.48426" lon="1.18192">
        <ele>160</ele>
        <time>2026-05-19T14:08:43.626Z</time>
      </trkpt>
      <trkpt lat="49.48422" lon="1.18194">
        <ele>160</ele>
        <time>2026-05-19T14:08:47.904Z</time>
      </trkpt>
      <trkpt lat="49.48418" lon="1.18196">
        <ele>160</ele>
        <time>2026-05-19T14:08:51.902Z</time>
      </trkpt>
      <trkpt lat="49.48414" lon="1.18199">
        <ele>160</ele>
        <time>2026-05-19T14:08:56.898Z</time>
      </trkpt>
      <trkpt lat="49.48408" lon="1.18204">
        <ele>160</ele>
        <time>2026-05-19T14:09:01.445Z</time>
      </trkpt>
      <trkpt lat="49.48404" lon="1.18206">
        <ele>160</ele>
        <time>2026-05-19T14:09:05.524Z</time>
      </trkpt>
      <trkpt lat="49.484" lon="1.1821">
        <ele>160</ele>
        <time>2026-05-19T14:09:09.570Z</time>
      </trkpt>
      <trkpt lat="49.48396" lon="1.18216">
        <ele>160</ele>
        <time>2026-05-19T14:09:13.903Z</time>
      </trkpt>
      <trkpt lat="49.48392" lon="1.18222">
        <ele>160</ele>
        <time>2026-05-19T14:09:18.667Z</time>
      </trkpt>
      <trkpt lat="49.48387" lon="1.18228">
        <ele>160</ele>
        <time>2026-05-19T14:09:22.898Z</time>
      </trkpt>
      <trkpt lat="49.48382" lon="1.18234">
        <ele>160</ele>
        <time>2026-05-19T14:09:27.900Z</time>
      </trkpt>
      <trkpt lat="49.48376" lon="1.18237">
        <ele>160</ele>
        <time>2026-05-19T14:09:40.898Z</time>
      </trkpt>
      <trkpt lat="49.4837" lon="1.18241">
        <ele>161</ele>
        <time>2026-05-19T14:09:45.892Z</time>
      </trkpt>
      <trkpt lat="49.48365" lon="1.18248">
        <ele>161</ele>
        <time>2026-05-19T14:09:50.547Z</time>
      </trkpt>
      <trkpt lat="49.48359" lon="1.18253">
        <ele>161</ele>
        <time>2026-05-19T14:09:55.223Z</time>
      </trkpt>
      <trkpt lat="49.48354" lon="1.18257">
        <ele>161</ele>
        <time>2026-05-19T14:09:59.748Z</time>
      </trkpt>
      <trkpt lat="49.4835" lon="1.18261">
        <ele>161</ele>
        <time>2026-05-19T14:10:04.329Z</time>
      </trkpt>
      <trkpt lat="49.48345" lon="1.18266">
        <ele>161</ele>
        <time>2026-05-19T14:10:08.749Z</time>
      </trkpt>
      <trkpt lat="49.48341" lon="1.18272">
        <ele>161</ele>
        <time>2026-05-19T14:10:12.809Z</time>
      </trkpt>
      <trkpt lat="49.48337" lon="1.18275">
        <ele>161</ele>
        <time>2026-05-19T14:10:17.413Z</time>
      </trkpt>
      <trkpt lat="49.48333" lon="1.18275">
        <ele>161</ele>
        <time>2026-05-19T14:10:21.426Z</time>
      </trkpt>
      <trkpt lat="49.4833" lon="1.18279">
        <ele>161</ele>
        <time>2026-05-19T14:10:25.712Z</time>
      </trkpt>
      <trkpt lat="49.48326" lon="1.18282">
        <ele>161</ele>
        <time>2026-05-19T14:10:29.771Z</time>
      </trkpt>
      <trkpt lat="49.48322" lon="1.18285">
        <ele>161</ele>
        <time>2026-05-19T14:10:33.918Z</time>
      </trkpt>
      <trkpt lat="49.48319" lon="1.18288">
        <ele>161</ele>
        <time>2026-05-19T14:10:38.595Z</time>
      </trkpt>
      <trkpt lat="49.48317" lon="1.18291">
        <ele>161</ele>
        <time>2026-05-19T14:10:43.294Z</time>
      </trkpt>
      <trkpt lat="49.48312" lon="1.18295">
        <ele>161</ele>
        <time>2026-05-19T14:10:47.897Z</time>
      </trkpt>
      <trkpt lat="49.48309" lon="1.183">
        <ele>161</ele>
        <time>2026-05-19T14:10:52.448Z</time>
      </trkpt>
      <trkpt lat="49.48311" lon="1.183">
        <ele>161</ele>
        <time>2026-05-19T14:10:56.628Z</time>
      </trkpt>
      <trkpt lat="49.4831" lon="1.18308">
        <ele>161</ele>
        <time>2026-05-19T14:11:01.187Z</time>
      </trkpt>
      <trkpt lat="49.4831" lon="1.18316">
        <ele>161</ele>
        <time>2026-05-19T14:11:05.389Z</time>
      </trkpt>
      <trkpt lat="49.48311" lon="1.18323">
        <ele>161</ele>
        <time>2026-05-19T14:11:09.605Z</time>
      </trkpt>
      <trkpt lat="49.48312" lon="1.18331">
        <ele>161</ele>
        <time>2026-05-19T14:11:14.152Z</time>
      </trkpt>
      <trkpt lat="49.48313" lon="1.1834">
        <ele>161</ele>
        <time>2026-05-19T14:11:18.899Z</time>
      </trkpt>
      <trkpt lat="49.48314" lon="1.18347">
        <ele>161</ele>
        <time>2026-05-19T14:11:22.917Z</time>
      </trkpt>
      <trkpt lat="49.48315" lon="1.18354">
        <ele>160</ele>
        <time>2026-05-19T14:11:27.631Z</time>
      </trkpt>
      <trkpt lat="49.48317" lon="1.18361">
        <ele>160</ele>
        <time>2026-05-19T14:11:31.746Z</time>
      </trkpt>
      <trkpt lat="49.48319" lon="1.18369">
        <ele>161</ele>
        <time>2026-05-19T14:11:36.512Z</time>
      </trkpt>
      <trkpt lat="49.48322" lon="1.18376">
        <ele>161</ele>
        <time>2026-05-19T14:11:40.901Z</time>
      </trkpt>
      <trkpt lat="49.48323" lon="1.18382">
        <ele>161</ele>
        <time>2026-05-19T14:11:45.616Z</time>
      </trkpt>
      <trkpt lat="49.48324" lon="1.18389">
        <ele>161</ele>
        <time>2026-05-19T14:11:50.070Z</time>
      </trkpt>
      <trkpt lat="49.48324" lon="1.18393">
        <ele>161</ele>
        <time>2026-05-19T14:11:54.655Z</time>
      </trkpt>
      <trkpt lat="49.48327" lon="1.18403">
        <ele>160</ele>
        <time>2026-05-19T14:11:59.152Z</time>
      </trkpt>
      <trkpt lat="49.48329" lon="1.18411">
        <ele>160</ele>
        <time>2026-05-19T14:12:03.770Z</time>
      </trkpt>
      <trkpt lat="49.4833" lon="1.18419">
        <ele>160</ele>
        <time>2026-05-19T14:12:08.390Z</time>
      </trkpt>
      <trkpt lat="49.4833" lon="1.18418">
        <ele>160</ele>
        <time>2026-05-19T14:12:12.866Z</time>
      </trkpt>
      <trkpt lat="49.48331" lon="1.18425">
        <ele>160</ele>
        <time>2026-05-19T14:12:17.379Z</time>
      </trkpt>
      <trkpt lat="49.48333" lon="1.18433">
        <ele>161</ele>
        <time>2026-05-19T14:12:21.905Z</time>
      </trkpt>
      <trkpt lat="49.48335" lon="1.1844">
        <ele>161</ele>
        <time>2026-05-19T14:12:26.687Z</time>
      </trkpt>
      <trkpt lat="49.48336" lon="1.18447">
        <ele>161</ele>
        <time>2026-05-19T14:12:31.234Z</time>
      </trkpt>
      <trkpt lat="49.48339" lon="1.18454">
        <ele>161</ele>
        <time>2026-05-19T14:12:35.637Z</time>
      </trkpt>
      <trkpt lat="49.48341" lon="1.18461">
        <ele>161</ele>
        <time>2026-05-19T14:12:40.272Z</time>
      </trkpt>
      <trkpt lat="49.48342" lon="1.18468">
        <ele>161</ele>
        <time>2026-05-19T14:12:44.845Z</time>
      </trkpt>
      <trkpt lat="49.48344" lon="1.18477">
        <ele>161</ele>
        <time>2026-05-19T14:12:49.415Z</time>
      </trkpt>
      <trkpt lat="49.48347" lon="1.18485">
        <ele>161</ele>
        <time>2026-05-19T14:12:53.903Z</time>
      </trkpt>
      <trkpt lat="49.48349" lon="1.18493">
        <ele>162</ele>
        <time>2026-05-19T14:12:57.903Z</time>
      </trkpt>
      <trkpt lat="49.4835" lon="1.18501">
        <ele>162</ele>
        <time>2026-05-19T14:13:01.899Z</time>
      </trkpt>
      <trkpt lat="49.48351" lon="1.1851">
        <ele>162</ele>
        <time>2026-05-19T14:13:06.713Z</time>
      </trkpt>
      <trkpt lat="49.48353" lon="1.18519">
        <ele>162</ele>
        <time>2026-05-19T14:13:11.269Z</time>
      </trkpt>
      <trkpt lat="49.48355" lon="1.18527">
        <ele>162</ele>
        <time>2026-05-19T14:13:15.736Z</time>
      </trkpt>
      <trkpt lat="49.48357" lon="1.18532">
        <ele>162</ele>
        <time>2026-05-19T14:13:19.892Z</time>
      </trkpt>
      <trkpt lat="49.48359" lon="1.18538">
        <ele>162</ele>
        <time>2026-05-19T14:15:55.673Z</time>
      </trkpt>
      <trkpt lat="49.4836" lon="1.18545">
        <ele>163</ele>
        <time>2026-05-19T14:15:59.898Z</time>
      </trkpt>
      <trkpt lat="49.48362" lon="1.18553">
        <ele>163</ele>
        <time>2026-05-19T14:16:04.905Z</time>
      </trkpt>
      <trkpt lat="49.48364" lon="1.1856">
        <ele>163</ele>
        <time>2026-05-19T14:16:09.903Z</time>
      </trkpt>
      <trkpt lat="49.48366" lon="1.18568">
        <ele>163</ele>
        <time>2026-05-19T14:16:14.907Z</time>
      </trkpt>
      <trkpt lat="49.48368" lon="1.18574">
        <ele>163</ele>
        <time>2026-05-19T14:26:00.900Z</time>
      </trkpt>
      <trkpt lat="49.4837" lon="1.18578">
        <ele>163</ele>
        <time>2026-05-19T14:26:11.910Z</time>
      </trkpt>
      <trkpt lat="49.48371" lon="1.18585">
        <ele>163</ele>
        <time>2026-05-19T14:26:16.899Z</time>
      </trkpt>
      <trkpt lat="49.48372" lon="1.18593">
        <ele>163</ele>
        <time>2026-05-19T14:26:21.905Z</time>
      </trkpt>
      <trkpt lat="49.48372" lon="1.18598">
        <ele>163</ele>
        <time>2026-05-19T14:26:26.904Z</time>
      </trkpt>
      <trkpt lat="49.48374" lon="1.18607">
        <ele>163</ele>
        <time>2026-05-19T14:26:30.907Z</time>
      </trkpt>
      <trkpt lat="49.48378" lon="1.18614">
        <ele>164</ele>
        <time>2026-05-19T14:26:35.441Z</time>
      </trkpt>
      <trkpt lat="49.48379" lon="1.18623">
        <ele>164</ele>
        <time>2026-05-19T14:26:39.909Z</time>
      </trkpt>
      <trkpt lat="49.4838" lon="1.18632">
        <ele>164</ele>
        <time>2026-05-19T14:26:44.095Z</time>
      </trkpt>
      <trkpt lat="49.48381" lon="1.18641">
        <ele>164</ele>
        <time>2026-05-19T14:26:48.407Z</time>
      </trkpt>
      <trkpt lat="49.48383" lon="1.18649">
        <ele>164</ele>
        <time>2026-05-19T14:26:52.851Z</time>
      </trkpt>
      <trkpt lat="49.48386" lon="1.18656">
        <ele>164</ele>
        <time>2026-05-19T14:26:56.893Z</time>
      </trkpt>
      <trkpt lat="49.48389" lon="1.18662">
        <ele>164</ele>
        <time>2026-05-19T14:27:01.265Z</time>
      </trkpt>
      <trkpt lat="49.48386" lon="1.18666">
        <ele>164</ele>
        <time>2026-05-19T14:27:05.450Z</time>
      </trkpt>
      <trkpt lat="49.48387" lon="1.18667">
        <ele>164</ele>
        <time>2026-05-19T14:27:09.592Z</time>
      </trkpt>
      <trkpt lat="49.4839" lon="1.18674">
        <ele>164</ele>
        <time>2026-05-19T14:27:13.811Z</time>
      </trkpt>
      <trkpt lat="49.48391" lon="1.18685">
        <ele>164</ele>
        <time>2026-05-19T14:27:17.902Z</time>
      </trkpt>
      <trkpt lat="49.48391" lon="1.18695">
        <ele>164</ele>
        <time>2026-05-19T14:27:22.123Z</time>
      </trkpt>
      <trkpt lat="49.48394" lon="1.18704">
        <ele>164</ele>
        <time>2026-05-19T14:27:26.166Z</time>
      </trkpt>
      <trkpt lat="49.48396" lon="1.18712">
        <ele>165</ele>
        <time>2026-05-19T14:27:30.146Z</time>
      </trkpt>
      <trkpt lat="49.48398" lon="1.18719">
        <ele>165</ele>
        <time>2026-05-19T14:27:34.703Z</time>
      </trkpt>
      <trkpt lat="49.48401" lon="1.18726">
        <ele>165</ele>
        <time>2026-05-19T14:27:39.256Z</time>
      </trkpt>
      <trkpt lat="49.48402" lon="1.18732">
        <ele>165</ele>
        <time>2026-05-19T14:27:43.832Z</time>
      </trkpt>
      <trkpt lat="49.48404" lon="1.18739">
        <ele>164</ele>
        <time>2026-05-19T14:27:47.851Z</time>
      </trkpt>
      <trkpt lat="49.48404" lon="1.18742">
        <ele>164</ele>
        <time>2026-05-19T14:27:51.877Z</time>
      </trkpt>
      <trkpt lat="49.48404" lon="1.18742">
        <ele>164</ele>
        <time>2026-05-19T14:27:55.902Z</time>
      </trkpt>
      <trkpt lat="49.48406" lon="1.18753">
        <ele>164</ele>
        <time>2026-05-19T14:27:59.896Z</time>
      </trkpt>
      <trkpt lat="49.48408" lon="1.18762">
        <ele>164</ele>
        <time>2026-05-19T14:28:04.506Z</time>
      </trkpt>
      <trkpt lat="49.4841" lon="1.18771">
        <ele>164</ele>
        <time>2026-05-19T14:28:08.894Z</time>
      </trkpt>
      <trkpt lat="49.48411" lon="1.1878">
        <ele>164</ele>
        <time>2026-05-19T14:28:13.550Z</time>
      </trkpt>
      <trkpt lat="49.48413" lon="1.18788">
        <ele>164</ele>
        <time>2026-05-19T14:28:18.146Z</time>
      </trkpt>
      <trkpt lat="49.48415" lon="1.18796">
        <ele>165</ele>
        <time>2026-05-19T14:28:22.232Z</time>
      </trkpt>
      <trkpt lat="49.48417" lon="1.18804">
        <ele>165</ele>
        <time>2026-05-19T14:28:26.259Z</time>
      </trkpt>
      <trkpt lat="49.48419" lon="1.18812">
        <ele>165</ele>
        <time>2026-05-19T14:28:30.528Z</time>
      </trkpt>
      <trkpt lat="49.48421" lon="1.18819">
        <ele>165</ele>
        <time>2026-05-19T14:28:34.895Z</time>
      </trkpt>
      <trkpt lat="49.48422" lon="1.18825">
        <ele>165</ele>
        <time>2026-05-19T14:28:39.317Z</time>
      </trkpt>
      <trkpt lat="49.48423" lon="1.18832">
        <ele>165</ele>
        <time>2026-05-19T14:28:43.809Z</time>
      </trkpt>
      <trkpt lat="49.48426" lon="1.18837">
        <ele>165</ele>
        <time>2026-05-19T14:28:48.467Z</time>
      </trkpt>
      <trkpt lat="49.48429" lon="1.18842">
        <ele>165</ele>
        <time>2026-05-19T14:28:52.898Z</time>
      </trkpt>
      <trkpt lat="49.48429" lon="1.18849">
        <ele>165</ele>
        <time>2026-05-19T14:28:56.901Z</time>
      </trkpt>
      <trkpt lat="49.48431" lon="1.18857">
        <ele>164</ele>
        <time>2026-05-19T14:29:00.906Z</time>
      </trkpt>
      <trkpt lat="49.48433" lon="1.1887">
        <ele>164</ele>
        <time>2026-05-19T14:29:05.255Z</time>
      </trkpt>
      <trkpt lat="49.48434" lon="1.1887">
        <ele>164</ele>
        <time>2026-05-19T14:29:09.335Z</time>
      </trkpt>
      <trkpt lat="49.48436" lon="1.18876">
        <ele>164</ele>
        <time>2026-05-19T14:29:13.896Z</time>
      </trkpt>
      <trkpt lat="49.48438" lon="1.18884">
        <ele>164</ele>
        <time>2026-05-19T14:29:18.028Z</time>
      </trkpt>
      <trkpt lat="49.48441" lon="1.18891">
        <ele>164</ele>
        <time>2026-05-19T14:29:22.626Z</time>
      </trkpt>
      <trkpt lat="49.48444" lon="1.189">
        <ele>164</ele>
        <time>2026-05-19T14:29:27.156Z</time>
      </trkpt>
      <trkpt lat="49.48446" lon="1.18909">
        <ele>164</ele>
        <time>2026-05-19T14:29:31.189Z</time>
      </trkpt>
      <trkpt lat="49.48448" lon="1.18918">
        <ele>164</ele>
        <time>2026-05-19T14:29:35.788Z</time>
      </trkpt>
      <trkpt lat="49.48451" lon="1.18927">
        <ele>164</ele>
        <time>2026-05-19T14:29:40.441Z</time>
      </trkpt>
      <trkpt lat="49.48454" lon="1.18935">
        <ele>164</ele>
        <time>2026-05-19T14:29:44.900Z</time>
      </trkpt>
      <trkpt lat="49.48456" lon="1.18944">
        <ele>164</ele>
        <time>2026-05-19T14:29:49.493Z</time>
      </trkpt>
      <trkpt lat="49.48458" lon="1.18953">
        <ele>164</ele>
        <time>2026-05-19T14:29:53.897Z</time>
      </trkpt>
      <trkpt lat="49.48461" lon="1.18962">
        <ele>163</ele>
        <time>2026-05-19T14:29:58.244Z</time>
      </trkpt>
      <trkpt lat="49.48463" lon="1.1897">
        <ele>163</ele>
        <time>2026-05-19T14:30:02.852Z</time>
      </trkpt>
      <trkpt lat="49.48465" lon="1.18979">
        <ele>163</ele>
        <time>2026-05-19T14:30:07.367Z</time>
      </trkpt>
      <trkpt lat="49.48467" lon="1.18987">
        <ele>163</ele>
        <time>2026-05-19T14:30:11.648Z</time>
      </trkpt>
      <trkpt lat="49.48469" lon="1.18995">
        <ele>163</ele>
        <time>2026-05-19T14:30:16.123Z</time>
      </trkpt>
      <trkpt lat="49.48471" lon="1.19003">
        <ele>163</ele>
        <time>2026-05-19T14:30:20.583Z</time>
      </trkpt>
      <trkpt lat="49.48473" lon="1.19012">
        <ele>163</ele>
        <time>2026-05-19T14:30:24.899Z</time>
      </trkpt>
      <trkpt lat="49.48475" lon="1.19021">
        <ele>164</ele>
        <time>2026-05-19T14:30:29.460Z</time>
      </trkpt>
      <trkpt lat="49.48477" lon="1.19029">
        <ele>164</ele>
        <time>2026-05-19T14:30:33.833Z</time>
      </trkpt>
      <trkpt lat="49.4848" lon="1.19037">
        <ele>164</ele>
        <time>2026-05-19T14:30:38.215Z</time>
      </trkpt>
      <trkpt lat="49.48481" lon="1.19046">
        <ele>165</ele>
        <time>2026-05-19T14:30:42.504Z</time>
      </trkpt>
      <trkpt lat="49.48484" lon="1.19054">
        <ele>165</ele>
        <time>2026-05-19T14:30:46.901Z</time>
      </trkpt>
      <trkpt lat="49.48486" lon="1.19063">
        <ele>164</ele>
        <time>2026-05-19T14:30:51.256Z</time>
      </trkpt>
      <trkpt lat="49.48488" lon="1.19073">
        <ele>163</ele>
        <time>2026-05-19T14:30:55.732Z</time>
      </trkpt>
      <trkpt lat="49.4849" lon="1.19081">
        <ele>163</ele>
        <time>2026-05-19T14:31:00.049Z</time>
      </trkpt>
      <trkpt lat="49.48493" lon="1.19088">
        <ele>163</ele>
        <time>2026-05-19T14:31:04.491Z</time>
      </trkpt>
      <trkpt lat="49.48496" lon="1.19096">
        <ele>163</ele>
        <time>2026-05-19T14:31:08.787Z</time>
      </trkpt>
      <trkpt lat="49.48498" lon="1.19104">
        <ele>162</ele>
        <time>2026-05-19T14:31:13.278Z</time>
      </trkpt>
      <trkpt lat="49.48499" lon="1.19114">
        <ele>162</ele>
        <time>2026-05-19T14:31:17.515Z</time>
      </trkpt>
      <trkpt lat="49.485" lon="1.19123">
        <ele>162</ele>
        <time>2026-05-19T14:31:21.900Z</time>
      </trkpt>
      <trkpt lat="49.48503" lon="1.19132">
        <ele>162</ele>
        <time>2026-05-19T14:31:26.352Z</time>
      </trkpt>
      <trkpt lat="49.48504" lon="1.19141">
        <ele>162</ele>
        <time>2026-05-19T14:31:30.626Z</time>
      </trkpt>
      <trkpt lat="49.48507" lon="1.1915">
        <ele>162</ele>
        <time>2026-05-19T14:31:35.004Z</time>
      </trkpt>
      <trkpt lat="49.48509" lon="1.19158">
        <ele>162</ele>
        <time>2026-05-19T14:31:39.468Z</time>
      </trkpt>
      <trkpt lat="49.48512" lon="1.19166">
        <ele>162</ele>
        <time>2026-05-19T14:31:43.798Z</time>
      </trkpt>
      <trkpt lat="49.48513" lon="1.19175">
        <ele>162</ele>
        <time>2026-05-19T14:31:47.893Z</time>
      </trkpt>
      <trkpt lat="49.48515" lon="1.19184">
        <ele>162</ele>
        <time>2026-05-19T14:31:52.234Z</time>
      </trkpt>
      <trkpt lat="49.48518" lon="1.19192">
        <ele>162</ele>
        <time>2026-05-19T14:31:56.594Z</time>
      </trkpt>
      <trkpt lat="49.4852" lon="1.19201">
        <ele>162</ele>
        <time>2026-05-19T14:32:00.846Z</time>
      </trkpt>
      <trkpt lat="49.48522" lon="1.19209">
        <ele>162</ele>
        <time>2026-05-19T14:32:05.798Z</time>
      </trkpt>
      <trkpt lat="49.48524" lon="1.19218">
        <ele>162</ele>
        <time>2026-05-19T14:32:10.231Z</time>
      </trkpt>
      <trkpt lat="49.48525" lon="1.19224">
        <ele>162</ele>
        <time>2026-05-19T14:32:14.490Z</time>
      </trkpt>
      <trkpt lat="49.48527" lon="1.1923">
        <ele>162</ele>
        <time>2026-05-19T14:32:18.899Z</time>
      </trkpt>
      <trkpt lat="49.4853" lon="1.19238">
        <ele>161</ele>
        <time>2026-05-19T14:32:23.230Z</time>
      </trkpt>
      <trkpt lat="49.48531" lon="1.19247">
        <ele>161</ele>
        <time>2026-05-19T14:32:27.662Z</time>
      </trkpt>
      <trkpt lat="49.48533" lon="1.19254">
        <ele>161</ele>
        <time>2026-05-19T14:32:31.890Z</time>
      </trkpt>
      <trkpt lat="49.48536" lon="1.19263">
        <ele>161</ele>
        <time>2026-05-19T14:32:36.352Z</time>
      </trkpt>
      <trkpt lat="49.48538" lon="1.1927">
        <ele>160</ele>
        <time>2026-05-19T14:32:40.413Z</time>
      </trkpt>
      <trkpt lat="49.4854" lon="1.19279">
        <ele>160</ele>
        <time>2026-05-19T14:32:44.832Z</time>
      </trkpt>
      <trkpt lat="49.48542" lon="1.19287">
        <ele>160</ele>
        <time>2026-05-19T14:32:49.126Z</time>
      </trkpt>
      <trkpt lat="49.48544" lon="1.19295">
        <ele>159</ele>
        <time>2026-05-19T14:32:53.603Z</time>
      </trkpt>
      <trkpt lat="49.48545" lon="1.19304">
        <ele>159</ele>
        <time>2026-05-19T14:32:57.895Z</time>
      </trkpt>
      <trkpt lat="49.48547" lon="1.19312">
        <ele>159</ele>
        <time>2026-05-19T14:33:02.456Z</time>
      </trkpt>
      <trkpt lat="49.48549" lon="1.19319">
        <ele>159</ele>
        <time>2026-05-19T14:33:06.890Z</time>
      </trkpt>
      <trkpt lat="49.48551" lon="1.19327">
        <ele>159</ele>
        <time>2026-05-19T14:35:35.376Z</time>
      </trkpt>
      <trkpt lat="49.48559" lon="1.19344">
        <ele>159</ele>
        <time>2026-05-19T14:35:39.895Z</time>
      </trkpt>
      <trkpt lat="49.4856" lon="1.19354">
        <ele>159</ele>
        <time>2026-05-19T14:35:44.491Z</time>
      </trkpt>
      <trkpt lat="49.48562" lon="1.19363">
        <ele>159</ele>
        <time>2026-05-19T14:35:48.549Z</time>
      </trkpt>
      <trkpt lat="49.48564" lon="1.19372">
        <ele>159</ele>
        <time>2026-05-19T14:35:53.150Z</time>
      </trkpt>
      <trkpt lat="49.48565" lon="1.19381">
        <ele>159</ele>
        <time>2026-05-19T14:35:57.376Z</time>
      </trkpt>
      <trkpt lat="49.48568" lon="1.1939">
        <ele>159</ele>
        <time>2026-05-19T14:36:01.649Z</time>
      </trkpt>
      <trkpt lat="49.4857" lon="1.19399">
        <ele>158</ele>
        <time>2026-05-19T14:36:05.888Z</time>
      </trkpt>
      <trkpt lat="49.48572" lon="1.19407">
        <ele>157</ele>
        <time>2026-05-19T14:36:10.127Z</time>
      </trkpt>
      <trkpt lat="49.48574" lon="1.19414">
        <ele>157</ele>
        <time>2026-05-19T14:36:14.432Z</time>
      </trkpt>
      <trkpt lat="49.48576" lon="1.19423">
        <ele>157</ele>
        <time>2026-05-19T14:36:18.617Z</time>
      </trkpt>
      <trkpt lat="49.48579" lon="1.1943">
        <ele>157</ele>
        <time>2026-05-19T14:36:22.887Z</time>
      </trkpt>
      <trkpt lat="49.48581" lon="1.19437">
        <ele>156</ele>
        <time>2026-05-19T14:36:27.293Z</time>
      </trkpt>
      <trkpt lat="49.48583" lon="1.19445">
        <ele>156</ele>
        <time>2026-05-19T14:36:31.707Z</time>
      </trkpt>
      <trkpt lat="49.48585" lon="1.19453">
        <ele>156</ele>
        <time>2026-05-19T14:36:36.148Z</time>
      </trkpt>
      <trkpt lat="49.48587" lon="1.19461">
        <ele>155</ele>
        <time>2026-05-19T14:36:40.685Z</time>
      </trkpt>
      <trkpt lat="49.48589" lon="1.19469">
        <ele>155</ele>
        <time>2026-05-19T14:36:44.992Z</time>
      </trkpt>
      <trkpt lat="49.48591" lon="1.19478">
        <ele>155</ele>
        <time>2026-05-19T14:36:49.176Z</time>
      </trkpt>
      <trkpt lat="49.48594" lon="1.19486">
        <ele>155</ele>
        <time>2026-05-19T14:36:53.602Z</time>
      </trkpt>
      <trkpt lat="49.48596" lon="1.19492">
        <ele>154</ele>
        <time>2026-05-19T14:36:57.889Z</time>
      </trkpt>
      <trkpt lat="49.48598" lon="1.19499">
        <ele>153</ele>
        <time>2026-05-19T14:37:01.905Z</time>
      </trkpt>
      <trkpt lat="49.486" lon="1.19506">
        <ele>153</ele>
        <time>2026-05-19T14:37:05.981Z</time>
      </trkpt>
      <trkpt lat="49.48603" lon="1.19513">
        <ele>153</ele>
        <time>2026-05-19T14:37:10.244Z</time>
      </trkpt>
      <trkpt lat="49.48605" lon="1.19518">
        <ele>153</ele>
        <time>2026-05-19T14:37:14.342Z</time>
      </trkpt>
      <trkpt lat="49.48607" lon="1.19525">
        <ele>153</ele>
        <time>2026-05-19T14:37:18.575Z</time>
      </trkpt>
      <trkpt lat="49.48609" lon="1.19531">
        <ele>153</ele>
        <time>2026-05-19T14:37:23.346Z</time>
      </trkpt>
      <trkpt lat="49.48612" lon="1.19537">
        <ele>153</ele>
        <time>2026-05-19T14:37:27.900Z</time>
      </trkpt>
      <trkpt lat="49.48614" lon="1.19542">
        <ele>153</ele>
        <time>2026-05-19T14:37:32.628Z</time>
      </trkpt>
      <trkpt lat="49.48617" lon="1.19547">
        <ele>153</ele>
        <time>2026-05-19T14:37:36.706Z</time>
      </trkpt>
      <trkpt lat="49.48618" lon="1.19551">
        <ele>153</ele>
        <time>2026-05-19T14:37:40.853Z</time>
      </trkpt>
      <trkpt lat="49.48617" lon="1.19552">
        <ele>153</ele>
        <time>2026-05-19T14:37:45.468Z</time>
      </trkpt>
      <trkpt lat="49.48617" lon="1.19553">
        <ele>153</ele>
        <time>2026-05-19T14:37:49.550Z</time>
      </trkpt>
      <trkpt lat="49.48614" lon="1.19554">
        <ele>153</ele>
        <time>2026-05-19T14:37:53.693Z</time>
      </trkpt>
      <trkpt lat="49.48609" lon="1.19554">
        <ele>153</ele>
        <time>2026-05-19T14:37:57.789Z</time>
      </trkpt>
      <trkpt lat="49.48604" lon="1.19554">
        <ele>153</ele>
        <time>2026-05-19T14:38:01.905Z</time>
      </trkpt>
      <trkpt lat="49.48599" lon="1.19552">
        <ele>153</ele>
        <time>2026-05-19T14:38:06.243Z</time>
      </trkpt>
      <trkpt lat="49.48594" lon="1.19549">
        <ele>154</ele>
        <time>2026-05-19T14:38:10.526Z</time>
      </trkpt>
      <trkpt lat="49.4859" lon="1.19548">
        <ele>154</ele>
        <time>2026-05-19T14:38:14.586Z</time>
      </trkpt>
      <trkpt lat="49.48586" lon="1.19546">
        <ele>154</ele>
        <time>2026-05-19T14:38:18.888Z</time>
      </trkpt>
      <trkpt lat="49.48582" lon="1.19545">
        <ele>154</ele>
        <time>2026-05-19T14:38:23.335Z</time>
      </trkpt>
      <trkpt lat="49.48577" lon="1.19545">
        <ele>154</ele>
        <time>2026-05-19T14:38:27.508Z</time>
      </trkpt>
      <trkpt lat="49.48572" lon="1.19544">
        <ele>154</ele>
        <time>2026-05-19T14:38:40.902Z</time>
      </trkpt>
      <trkpt lat="49.48567" lon="1.19544">
        <ele>155</ele>
        <time>2026-05-19T14:38:45.399Z</time>
      </trkpt>
      <trkpt lat="49.48562" lon="1.19542">
        <ele>155</ele>
        <time>2026-05-19T14:38:49.878Z</time>
      </trkpt>
      <trkpt lat="49.48557" lon="1.19541">
        <ele>154</ele>
        <time>2026-05-19T14:38:54.527Z</time>
      </trkpt>
      <trkpt lat="49.48552" lon="1.19541">
        <ele>154</ele>
        <time>2026-05-19T14:38:58.889Z</time>
      </trkpt>
      <trkpt lat="49.48547" lon="1.1954">
        <ele>154</ele>
        <time>2026-05-19T14:39:03.375Z</time>
      </trkpt>
      <trkpt lat="49.48542" lon="1.1954">
        <ele>154</ele>
        <time>2026-05-19T14:39:07.460Z</time>
      </trkpt>
      <trkpt lat="49.48537" lon="1.19541">
        <ele>156</ele>
        <time>2026-05-19T14:39:11.893Z</time>
      </trkpt>
      <trkpt lat="49.48533" lon="1.19541">
        <ele>156</ele>
        <time>2026-05-19T14:39:16.115Z</time>
      </trkpt>
      <trkpt lat="49.48528" lon="1.19541">
        <ele>156</ele>
        <time>2026-05-19T14:39:33.895Z</time>
      </trkpt>
      <trkpt lat="49.48524" lon="1.19541">
        <ele>156</ele>
        <time>2026-05-19T14:39:38.901Z</time>
      </trkpt>
      <trkpt lat="49.48518" lon="1.19542">
        <ele>156</ele>
        <time>2026-05-19T14:39:43.026Z</time>
      </trkpt>
      <trkpt lat="49.48514" lon="1.19542">
        <ele>158</ele>
        <time>2026-05-19T14:39:47.103Z</time>
      </trkpt>
      <trkpt lat="49.48509" lon="1.19542">
        <ele>158</ele>
        <time>2026-05-19T14:39:51.730Z</time>
      </trkpt>
      <trkpt lat="49.48504" lon="1.19543">
        <ele>158</ele>
        <time>2026-05-19T14:39:56.346Z</time>
      </trkpt>
      <trkpt lat="49.48499" lon="1.19545">
        <ele>158</ele>
        <time>2026-05-19T14:40:00.895Z</time>
      </trkpt>
      <trkpt lat="49.48494" lon="1.19547">
        <ele>158</ele>
        <time>2026-05-19T14:40:05.468Z</time>
      </trkpt>
      <trkpt lat="49.48489" lon="1.19549">
        <ele>158</ele>
        <time>2026-05-19T14:40:09.896Z</time>
      </trkpt>
      <trkpt lat="49.48484" lon="1.1955">
        <ele>158</ele>
        <time>2026-05-19T14:40:14.126Z</time>
      </trkpt>
      <trkpt lat="49.48479" lon="1.19552">
        <ele>158</ele>
        <time>2026-05-19T14:40:18.183Z</time>
      </trkpt>
      <trkpt lat="49.48474" lon="1.19552">
        <ele>158</ele>
        <time>2026-05-19T14:40:22.267Z</time>
      </trkpt>
      <trkpt lat="49.48469" lon="1.19554">
        <ele>158</ele>
        <time>2026-05-19T14:40:26.893Z</time>
      </trkpt>
      <trkpt lat="49.48464" lon="1.19557">
        <ele>158</ele>
        <time>2026-05-19T14:40:30.918Z</time>
      </trkpt>
      <trkpt lat="49.4846" lon="1.19559">
        <ele>158</ele>
        <time>2026-05-19T14:40:35.342Z</time>
      </trkpt>
      <trkpt lat="49.48455" lon="1.19561">
        <ele>159</ele>
        <time>2026-05-19T14:40:39.346Z</time>
      </trkpt>
      <trkpt lat="49.4845" lon="1.19563">
        <ele>159</ele>
        <time>2026-05-19T14:40:43.777Z</time>
      </trkpt>
      <trkpt lat="49.48446" lon="1.19566">
        <ele>159</ele>
        <time>2026-05-19T14:40:48.266Z</time>
      </trkpt>
      <trkpt lat="49.48442" lon="1.19569">
        <ele>159</ele>
        <time>2026-05-19T14:40:52.412Z</time>
      </trkpt>
      <trkpt lat="49.48437" lon="1.19573">
        <ele>158</ele>
        <time>2026-05-19T14:40:56.895Z</time>
      </trkpt>
      <trkpt lat="49.48432" lon="1.19576">
        <ele>158</ele>
        <time>2026-05-19T14:41:01.550Z</time>
      </trkpt>
      <trkpt lat="49.48428" lon="1.19579">
        <ele>159</ele>
        <time>2026-05-19T14:41:05.904Z</time>
      </trkpt>
      <trkpt lat="49.48424" lon="1.19582">
        <ele>159</ele>
        <time>2026-05-19T14:41:09.969Z</time>
      </trkpt>
      <trkpt lat="49.4842" lon="1.19585">
        <ele>159</ele>
        <time>2026-05-19T14:41:14.138Z</time>
      </trkpt>
      <trkpt lat="49.48416" lon="1.19589">
        <ele>159</ele>
        <time>2026-05-19T14:41:18.382Z</time>
      </trkpt>
      <trkpt lat="49.48411" lon="1.19593">
        <ele>159</ele>
        <time>2026-05-19T14:41:22.628Z</time>
      </trkpt>
      <trkpt lat="49.48406" lon="1.19596">
        <ele>159</ele>
        <time>2026-05-19T14:41:26.922Z</time>
      </trkpt>
      <trkpt lat="49.48402" lon="1.19601">
        <ele>158</ele>
        <time>2026-05-19T14:41:31.049Z</time>
      </trkpt>
      <trkpt lat="49.48398" lon="1.19604">
        <ele>158</ele>
        <time>2026-05-19T14:41:35.128Z</time>
      </trkpt>
      <trkpt lat="49.48393" lon="1.19608">
        <ele>158</ele>
        <time>2026-05-19T14:42:16.894Z</time>
      </trkpt>
      <trkpt lat="49.48389" lon="1.19611">
        <ele>158</ele>
        <time>2026-05-19T14:42:21.894Z</time>
      </trkpt>
      <trkpt lat="49.48384" lon="1.19614">
        <ele>158</ele>
        <time>2026-05-19T14:42:25.897Z</time>
      </trkpt>
      <trkpt lat="49.48379" lon="1.19617">
        <ele>158</ele>
        <time>2026-05-19T14:42:30.889Z</time>
      </trkpt>
      <trkpt lat="49.48374" lon="1.19619">
        <ele>159</ele>
        <time>2026-05-19T14:42:35.898Z</time>
      </trkpt>
      <trkpt lat="49.48369" lon="1.1962">
        <ele>159</ele>
        <time>2026-05-19T14:42:40.779Z</time>
      </trkpt>
      <trkpt lat="49.48365" lon="1.19622">
        <ele>159</ele>
        <time>2026-05-19T14:42:45.127Z</time>
      </trkpt>
      <trkpt lat="49.48361" lon="1.19623">
        <ele>159</ele>
        <time>2026-05-19T14:42:49.548Z</time>
      </trkpt>
      <trkpt lat="49.48357" lon="1.19625">
        <ele>159</ele>
        <time>2026-05-19T14:42:53.844Z</time>
      </trkpt>
      <trkpt lat="49.48353" lon="1.19626">
        <ele>159</ele>
        <time>2026-05-19T14:42:58.265Z</time>
      </trkpt>
      <trkpt lat="49.48348" lon="1.19626">
        <ele>159</ele>
        <time>2026-05-19T14:43:02.585Z</time>
      </trkpt>
      <trkpt lat="49.48344" lon="1.19626">
        <ele>160</ele>
        <time>2026-05-19T14:43:06.903Z</time>
      </trkpt>
      <trkpt lat="49.48339" lon="1.19627">
        <ele>160</ele>
        <time>2026-05-19T14:43:11.343Z</time>
      </trkpt>
      <trkpt lat="49.48334" lon="1.19626">
        <ele>160</ele>
        <time>2026-05-19T14:43:15.649Z</time>
      </trkpt>
      <trkpt lat="49.48329" lon="1.19625">
        <ele>160</ele>
        <time>2026-05-19T14:43:19.992Z</time>
      </trkpt>
      <trkpt lat="49.48324" lon="1.19624">
        <ele>160</ele>
        <time>2026-05-19T14:43:24.365Z</time>
      </trkpt>
      <trkpt lat="49.48319" lon="1.19624">
        <ele>161</ele>
        <time>2026-05-19T14:43:28.648Z</time>
      </trkpt>
      <trkpt lat="49.48314" lon="1.19622">
        <ele>161</ele>
        <time>2026-05-19T14:43:33.095Z</time>
      </trkpt>
      <trkpt lat="49.48309" lon="1.19621">
        <ele>161</ele>
        <time>2026-05-19T14:43:37.514Z</time>
      </trkpt>
      <trkpt lat="49.48305" lon="1.1962">
        <ele>161</ele>
        <time>2026-05-19T14:43:41.864Z</time>
      </trkpt>
      <trkpt lat="49.483" lon="1.19619">
        <ele>161</ele>
        <time>2026-05-19T14:43:45.894Z</time>
      </trkpt>
      <trkpt lat="49.48295" lon="1.19618">
        <ele>161</ele>
        <time>2026-05-19T14:43:49.893Z</time>
      </trkpt>
      <trkpt lat="49.4829" lon="1.19618">
        <ele>162</ele>
        <time>2026-05-19T14:43:54.086Z</time>
      </trkpt>
      <trkpt lat="49.48285" lon="1.19616">
        <ele>162</ele>
        <time>2026-05-19T14:43:58.469Z</time>
      </trkpt>
      <trkpt lat="49.48281" lon="1.19614">
        <ele>162</ele>
        <time>2026-05-19T14:44:02.897Z</time>
      </trkpt>
      <trkpt lat="49.48276" lon="1.19612">
        <ele>162</ele>
        <time>2026-05-19T14:44:07.128Z</time>
      </trkpt>
      <trkpt lat="49.48271" lon="1.19611">
        <ele>162</ele>
        <time>2026-05-19T14:44:11.550Z</time>
      </trkpt>
      <trkpt lat="49.48265" lon="1.19609">
        <ele>162</ele>
        <time>2026-05-19T14:44:15.895Z</time>
      </trkpt>
      <trkpt lat="49.4826" lon="1.19607">
        <ele>162</ele>
        <time>2026-05-19T14:44:20.312Z</time>
      </trkpt>
      <trkpt lat="49.48256" lon="1.19604">
        <ele>162</ele>
        <time>2026-05-19T14:44:24.745Z</time>
      </trkpt>
      <trkpt lat="49.48251" lon="1.19603">
        <ele>162</ele>
        <time>2026-05-19T14:44:29.125Z</time>
      </trkpt>
      <trkpt lat="49.48247" lon="1.196">
        <ele>162</ele>
        <time>2026-05-19T14:44:33.388Z</time>
      </trkpt>
      <trkpt lat="49.48242" lon="1.19597">
        <ele>162</ele>
        <time>2026-05-19T14:44:37.896Z</time>
      </trkpt>
      <trkpt lat="49.48237" lon="1.19594">
        <ele>162</ele>
        <time>2026-05-19T14:44:42.195Z</time>
      </trkpt>
      <trkpt lat="49.48232" lon="1.19592">
        <ele>163</ele>
        <time>2026-05-19T14:44:46.673Z</time>
      </trkpt>
      <trkpt lat="49.48228" lon="1.1959">
        <ele>163</ele>
        <time>2026-05-19T14:44:50.867Z</time>
      </trkpt>
      <trkpt lat="49.48223" lon="1.19589">
        <ele>163</ele>
        <time>2026-05-19T14:44:55.243Z</time>
      </trkpt>
      <trkpt lat="49.48218" lon="1.19587">
        <ele>163</ele>
        <time>2026-05-19T14:44:59.551Z</time>
      </trkpt>
      <trkpt lat="49.48214" lon="1.19585">
        <ele>163</ele>
        <time>2026-05-19T14:45:03.897Z</time>
      </trkpt>
      <trkpt lat="49.48209" lon="1.19584">
        <ele>163</ele>
        <time>2026-05-19T14:45:08.346Z</time>
      </trkpt>
      <trkpt lat="49.48204" lon="1.19582">
        <ele>163</ele>
        <time>2026-05-19T14:45:12.513Z</time>
      </trkpt>
      <trkpt lat="49.482" lon="1.1958">
        <ele>163</ele>
        <time>2026-05-19T14:45:16.753Z</time>
      </trkpt>
      <trkpt lat="49.48195" lon="1.19578">
        <ele>163</ele>
        <time>2026-05-19T14:45:21.253Z</time>
      </trkpt>
      <trkpt lat="49.4819" lon="1.19575">
        <ele>163</ele>
        <time>2026-05-19T14:45:25.263Z</time>
      </trkpt>
      <trkpt lat="49.48185" lon="1.19572">
        <ele>163</ele>
        <time>2026-05-19T14:45:29.267Z</time>
      </trkpt>
      <trkpt lat="49.4818" lon="1.19569">
        <ele>163</ele>
        <time>2026-05-19T14:45:33.731Z</time>
      </trkpt>
      <trkpt lat="49.48175" lon="1.19566">
        <ele>163</ele>
        <time>2026-05-19T14:45:38.149Z</time>
      </trkpt>
      <trkpt lat="49.4817" lon="1.19563">
        <ele>163</ele>
        <time>2026-05-19T14:45:42.697Z</time>
      </trkpt>
      <trkpt lat="49.48166" lon="1.1956">
        <ele>163</ele>
        <time>2026-05-19T14:45:47.184Z</time>
      </trkpt>
      <trkpt lat="49.48161" lon="1.19557">
        <ele>163</ele>
        <time>2026-05-19T14:45:51.208Z</time>
      </trkpt>
      <trkpt lat="49.48156" lon="1.19554">
        <ele>163</ele>
        <time>2026-05-19T14:45:55.684Z</time>
      </trkpt>
      <trkpt lat="49.48152" lon="1.19551">
        <ele>163</ele>
        <time>2026-05-19T14:46:00.137Z</time>
      </trkpt>
      <trkpt lat="49.48148" lon="1.19548">
        <ele>163</ele>
        <time>2026-05-19T14:46:04.892Z</time>
      </trkpt>
      <trkpt lat="49.48144" lon="1.19545">
        <ele>163</ele>
        <time>2026-05-19T14:46:09.413Z</time>
      </trkpt>
      <trkpt lat="49.48139" lon="1.19542">
        <ele>163</ele>
        <time>2026-05-19T14:46:13.468Z</time>
      </trkpt>
      <trkpt lat="49.48135" lon="1.1954">
        <ele>164</ele>
        <time>2026-05-19T14:46:17.764Z</time>
      </trkpt>
      <trkpt lat="49.4813" lon="1.19536">
        <ele>164</ele>
        <time>2026-05-19T14:46:21.889Z</time>
      </trkpt>
      <trkpt lat="49.48126" lon="1.19531">
        <ele>164</ele>
        <time>2026-05-19T14:46:44.572Z</time>
      </trkpt>
      <trkpt lat="49.48122" lon="1.19526">
        <ele>165</ele>
        <time>2026-05-19T14:46:48.896Z</time>
      </trkpt>
      <trkpt lat="49.48118" lon="1.19522">
        <ele>165</ele>
        <time>2026-05-19T14:46:53.469Z</time>
      </trkpt>
      <trkpt lat="49.48114" lon="1.19518">
        <ele>165</ele>
        <time>2026-05-19T14:46:58.095Z</time>
      </trkpt>
      <trkpt lat="49.4811" lon="1.19513">
        <ele>165</ele>
        <time>2026-05-19T14:47:02.648Z</time>
      </trkpt>
      <trkpt lat="49.48106" lon="1.1951">
        <ele>165</ele>
        <time>2026-05-19T14:47:07.209Z</time>
      </trkpt>
      <trkpt lat="49.48102" lon="1.19506">
        <ele>165</ele>
        <time>2026-05-19T14:47:11.788Z</time>
      </trkpt>
      <trkpt lat="49.48098" lon="1.19503">
        <ele>165</ele>
        <time>2026-05-19T14:47:16.386Z</time>
      </trkpt>
      <trkpt lat="49.48094" lon="1.19499">
        <ele>165</ele>
        <time>2026-05-19T14:47:20.893Z</time>
      </trkpt>
      <trkpt lat="49.4809" lon="1.19494">
        <ele>165</ele>
        <time>2026-05-19T14:47:25.549Z</time>
      </trkpt>
      <trkpt lat="49.48087" lon="1.1949">
        <ele>165</ele>
        <time>2026-05-19T14:47:30.046Z</time>
      </trkpt>
      <trkpt lat="49.48083" lon="1.19486">
        <ele>165</ele>
        <time>2026-05-19T14:47:34.096Z</time>
      </trkpt>
      <trkpt lat="49.48078" lon="1.19482">
        <ele>165</ele>
        <time>2026-05-19T14:47:38.115Z</time>
      </trkpt>
      <trkpt lat="49.48074" lon="1.19479">
        <ele>165</ele>
        <time>2026-05-19T14:47:42.745Z</time>
      </trkpt>
      <trkpt lat="49.48072" lon="1.19477">
        <ele>165</ele>
        <time>2026-05-19T14:47:47.233Z</time>
      </trkpt>
      <trkpt lat="49.48074" lon="1.19477">
        <ele>165</ele>
        <time>2026-05-19T14:47:51.729Z</time>
      </trkpt>
      <trkpt lat="49.48073" lon="1.19476">
        <ele>165</ele>
        <time>2026-05-19T14:47:56.231Z</time>
      </trkpt>
      <trkpt lat="49.48073" lon="1.19476">
        <ele>165</ele>
        <time>2026-05-19T14:48:00.707Z</time>
      </trkpt>
      <trkpt lat="49.48068" lon="1.19475">
        <ele>165</ele>
        <time>2026-05-19T14:48:04.728Z</time>
      </trkpt>
      <trkpt lat="49.48063" lon="1.19471">
        <ele>165</ele>
        <time>2026-05-19T14:48:08.763Z</time>
      </trkpt>
      <trkpt lat="49.48058" lon="1.19469">
        <ele>165</ele>
        <time>2026-05-19T14:48:12.810Z</time>
      </trkpt>
      <trkpt lat="49.48054" lon="1.19465">
        <ele>165</ele>
        <time>2026-05-19T14:48:16.896Z</time>
      </trkpt>
      <trkpt lat="49.48049" lon="1.19461">
        <ele>165</ele>
        <time>2026-05-19T14:48:21.026Z</time>
      </trkpt>
      <trkpt lat="49.48044" lon="1.19458">
        <ele>165</ele>
        <time>2026-05-19T14:48:25.172Z</time>
      </trkpt>
      <trkpt lat="49.48039" lon="1.19456">
        <ele>166</ele>
        <time>2026-05-19T14:48:29.328Z</time>
      </trkpt>
      <trkpt lat="49.48034" lon="1.19453">
        <ele>166</ele>
        <time>2026-05-19T14:48:33.906Z</time>
      </trkpt>
      <trkpt lat="49.4803" lon="1.19451">
        <ele>166</ele>
        <time>2026-05-19T14:48:38.515Z</time>
      </trkpt>
      <trkpt lat="49.48025" lon="1.19449">
        <ele>166</ele>
        <time>2026-05-19T14:48:42.572Z</time>
      </trkpt>
      <trkpt lat="49.48021" lon="1.19446">
        <ele>166</ele>
        <time>2026-05-19T14:48:47.471Z</time>
      </trkpt>
      <trkpt lat="49.48015" lon="1.19444">
        <ele>166</ele>
        <time>2026-05-19T14:48:51.898Z</time>
      </trkpt>
      <trkpt lat="49.4801" lon="1.1944">
        <ele>166</ele>
        <time>2026-05-19T14:48:55.888Z</time>
      </trkpt>
      <trkpt lat="49.48005" lon="1.19438">
        <ele>166</ele>
        <time>2026-05-19T14:49:00.534Z</time>
      </trkpt>
      <trkpt lat="49.48" lon="1.19435">
        <ele>166</ele>
        <time>2026-05-19T14:49:04.892Z</time>
      </trkpt>
      <trkpt lat="49.47994" lon="1.19433">
        <ele>166</ele>
        <time>2026-05-19T14:49:09.452Z</time>
      </trkpt>
      <trkpt lat="49.47989" lon="1.19431">
        <ele>166</ele>
        <time>2026-05-19T14:49:13.893Z</time>
      </trkpt>
      <trkpt lat="49.47984" lon="1.19429">
        <ele>164</ele>
        <time>2026-05-19T14:49:18.494Z</time>
      </trkpt>
      <trkpt lat="49.47978" lon="1.19426">
        <ele>164</ele>
        <time>2026-05-19T14:49:22.578Z</time>
      </trkpt>
      <trkpt lat="49.47973" lon="1.19424">
        <ele>164</ele>
        <time>2026-05-19T14:49:26.570Z</time>
      </trkpt>
      <trkpt lat="49.47968" lon="1.19422">
        <ele>164</ele>
        <time>2026-05-19T14:49:30.897Z</time>
      </trkpt>
      <trkpt lat="49.47962" lon="1.1942">
        <ele>164</ele>
        <time>2026-05-19T14:49:35.467Z</time>
      </trkpt>
      <trkpt lat="49.47957" lon="1.19419">
        <ele>163</ele>
        <time>2026-05-19T14:49:39.764Z</time>
      </trkpt>
      <trkpt lat="49.47952" lon="1.19416">
        <ele>163</ele>
        <time>2026-05-19T14:49:44.126Z</time>
      </trkpt>
      <trkpt lat="49.47947" lon="1.19414">
        <ele>163</ele>
        <time>2026-05-19T14:49:48.671Z</time>
      </trkpt>
      <trkpt lat="49.47941" lon="1.19411">
        <ele>163</ele>
        <time>2026-05-19T14:49:53.149Z</time>
      </trkpt>
      <trkpt lat="49.47937" lon="1.1941">
        <ele>163</ele>
        <time>2026-05-19T14:49:57.490Z</time>
      </trkpt>
      <trkpt lat="49.47932" lon="1.1941">
        <ele>163</ele>
        <time>2026-05-19T14:50:01.814Z</time>
      </trkpt>
      <trkpt lat="49.47928" lon="1.1941">
        <ele>163</ele>
        <time>2026-05-19T14:50:06.276Z</time>
      </trkpt>
      <trkpt lat="49.47923" lon="1.19409">
        <ele>163</ele>
        <time>2026-05-19T14:50:10.596Z</time>
      </trkpt>
      <trkpt lat="49.47919" lon="1.19406">
        <ele>163</ele>
        <time>2026-05-19T14:50:14.900Z</time>
      </trkpt>
      <trkpt lat="49.47915" lon="1.19405">
        <ele>163</ele>
        <time>2026-05-19T14:50:18.889Z</time>
      </trkpt>
      <trkpt lat="49.4791" lon="1.19404">
        <ele>163</ele>
        <time>2026-05-19T14:50:23.149Z</time>
      </trkpt>
      <trkpt lat="49.47905" lon="1.19403">
        <ele>163</ele>
        <time>2026-05-19T14:50:27.550Z</time>
      </trkpt>
      <trkpt lat="49.47901" lon="1.19403">
        <ele>164</ele>
        <time>2026-05-19T14:50:31.765Z</time>
      </trkpt>
      <trkpt lat="49.47895" lon="1.19401">
        <ele>163</ele>
        <time>2026-05-19T14:50:36.232Z</time>
      </trkpt>
      <trkpt lat="49.47889" lon="1.194">
        <ele>163</ele>
        <time>2026-05-19T14:50:40.548Z</time>
      </trkpt>
      <trkpt lat="49.47884" lon="1.19398">
        <ele>163</ele>
        <time>2026-05-19T14:50:44.855Z</time>
      </trkpt>
      <trkpt lat="49.47879" lon="1.19396">
        <ele>163</ele>
        <time>2026-05-19T14:50:48.991Z</time>
      </trkpt>
      <trkpt lat="49.47873" lon="1.19395">
        <ele>162</ele>
        <time>2026-05-19T14:50:53.312Z</time>
      </trkpt>
      <trkpt lat="49.47867" lon="1.19393">
        <ele>162</ele>
        <time>2026-05-19T14:50:57.456Z</time>
      </trkpt>
      <trkpt lat="49.47862" lon="1.19392">
        <ele>162</ele>
        <time>2026-05-19T14:51:01.810Z</time>
      </trkpt>
      <trkpt lat="49.47857" lon="1.19391">
        <ele>162</ele>
        <time>2026-05-19T14:51:06.050Z</time>
      </trkpt>
      <trkpt lat="49.47851" lon="1.1939">
        <ele>162</ele>
        <time>2026-05-19T14:51:10.447Z</time>
      </trkpt>
      <trkpt lat="49.47846" lon="1.19389">
        <ele>163</ele>
        <time>2026-05-19T14:51:14.900Z</time>
      </trkpt>
      <trkpt lat="49.47841" lon="1.19388">
        <ele>163</ele>
        <time>2026-05-19T14:51:19.196Z</time>
      </trkpt>
      <trkpt lat="49.47836" lon="1.19386">
        <ele>163</ele>
        <time>2026-05-19T14:51:23.708Z</time>
      </trkpt>
      <trkpt lat="49.4783" lon="1.19385">
        <ele>163</ele>
        <time>2026-05-19T14:51:28.207Z</time>
      </trkpt>
      <trkpt lat="49.47825" lon="1.19383">
        <ele>163</ele>
        <time>2026-05-19T14:51:32.628Z</time>
      </trkpt>
      <trkpt lat="49.47819" lon="1.19383">
        <ele>163</ele>
        <time>2026-05-19T14:51:36.898Z</time>
      </trkpt>
      <trkpt lat="49.47814" lon="1.19382">
        <ele>163</ele>
        <time>2026-05-19T14:51:41.375Z</time>
      </trkpt>
      <trkpt lat="49.47809" lon="1.19381">
        <ele>163</ele>
        <time>2026-05-19T14:51:45.865Z</time>
      </trkpt>
      <trkpt lat="49.47804" lon="1.1938">
        <ele>163</ele>
        <time>2026-05-19T14:51:49.834Z</time>
      </trkpt>
      <trkpt lat="49.47798" lon="1.1938">
        <ele>163</ele>
        <time>2026-05-19T14:51:54.386Z</time>
      </trkpt>
      <trkpt lat="49.47793" lon="1.19378">
        <ele>163</ele>
        <time>2026-05-19T14:51:58.845Z</time>
      </trkpt>
      <trkpt lat="49.47788" lon="1.19377">
        <ele>162</ele>
        <time>2026-05-19T14:52:03.231Z</time>
      </trkpt>
      <trkpt lat="49.47783" lon="1.19375">
        <ele>162</ele>
        <time>2026-05-19T14:52:07.514Z</time>
      </trkpt>
      <trkpt lat="49.47778" lon="1.19374">
        <ele>161</ele>
        <time>2026-05-19T14:52:11.753Z</time>
      </trkpt>
      <trkpt lat="49.47773" lon="1.19372">
        <ele>161</ele>
        <time>2026-05-19T14:52:15.897Z</time>
      </trkpt>
      <trkpt lat="49.47768" lon="1.1937">
        <ele>161</ele>
        <time>2026-05-19T14:52:20.345Z</time>
      </trkpt>
      <trkpt lat="49.47763" lon="1.19367">
        <ele>160</ele>
        <time>2026-05-19T14:52:24.865Z</time>
      </trkpt>
      <trkpt lat="49.47758" lon="1.19364">
        <ele>160</ele>
        <time>2026-05-19T14:52:29.100Z</time>
      </trkpt>
      <trkpt lat="49.47753" lon="1.1936">
        <ele>160</ele>
        <time>2026-05-19T14:52:33.494Z</time>
      </trkpt>
      <trkpt lat="49.47748" lon="1.19355">
        <ele>160</ele>
        <time>2026-05-19T14:52:37.648Z</time>
      </trkpt>
      <trkpt lat="49.47744" lon="1.19351">
        <ele>160</ele>
        <time>2026-05-19T14:52:41.898Z</time>
      </trkpt>
      <trkpt lat="49.47739" lon="1.19347">
        <ele>160</ele>
        <time>2026-05-19T14:52:46.230Z</time>
      </trkpt>
      <trkpt lat="49.47734" lon="1.19341">
        <ele>160</ele>
        <time>2026-05-19T14:52:50.388Z</time>
      </trkpt>
      <trkpt lat="49.4773" lon="1.19337">
        <ele>160</ele>
        <time>2026-05-19T14:52:54.752Z</time>
      </trkpt>
      <trkpt lat="49.47726" lon="1.19331">
        <ele>160</ele>
        <time>2026-05-19T14:52:59.063Z</time>
      </trkpt>
      <trkpt lat="49.47722" lon="1.19325">
        <ele>160</ele>
        <time>2026-05-19T14:53:03.409Z</time>
      </trkpt>
      <trkpt lat="49.47717" lon="1.19319">
        <ele>160</ele>
        <time>2026-05-19T14:53:07.789Z</time>
      </trkpt>
      <trkpt lat="49.47713" lon="1.19313">
        <ele>160</ele>
        <time>2026-05-19T14:53:11.894Z</time>
      </trkpt>
      <trkpt lat="49.47708" lon="1.19308">
        <ele>160</ele>
        <time>2026-05-19T14:53:16.266Z</time>
      </trkpt>
      <trkpt lat="49.47705" lon="1.19302">
        <ele>161</ele>
        <time>2026-05-19T14:53:20.445Z</time>
      </trkpt>
      <trkpt lat="49.477" lon="1.19295">
        <ele>161</ele>
        <time>2026-05-19T14:53:24.825Z</time>
      </trkpt>
      <trkpt lat="49.47696" lon="1.19289">
        <ele>160</ele>
        <time>2026-05-19T14:53:29.003Z</time>
      </trkpt>
      <trkpt lat="49.47691" lon="1.19283">
        <ele>160</ele>
        <time>2026-05-19T14:53:33.508Z</time>
      </trkpt>
      <trkpt lat="49.47688" lon="1.19278">
        <ele>160</ele>
        <time>2026-05-19T14:53:37.741Z</time>
      </trkpt>
      <trkpt lat="49.47685" lon="1.19272">
        <ele>160</ele>
        <time>2026-05-19T14:53:41.905Z</time>
      </trkpt>
      <trkpt lat="49.47681" lon="1.19267">
        <ele>160</ele>
        <time>2026-05-19T14:53:46.493Z</time>
      </trkpt>
      <trkpt lat="49.47676" lon="1.19261">
        <ele>159</ele>
        <time>2026-05-19T14:53:50.902Z</time>
      </trkpt>
      <trkpt lat="49.47671" lon="1.19254">
        <ele>159</ele>
        <time>2026-05-19T14:53:55.171Z</time>
      </trkpt>
      <trkpt lat="49.47667" lon="1.19249">
        <ele>159</ele>
        <time>2026-05-19T14:53:59.550Z</time>
      </trkpt>
      <trkpt lat="49.47665" lon="1.19246">
        <ele>159</ele>
        <time>2026-05-19T14:54:03.842Z</time>
      </trkpt>
      <trkpt lat="49.4766" lon="1.19243">
        <ele>159</ele>
        <time>2026-05-19T14:54:08.252Z</time>
      </trkpt>
      <trkpt lat="49.47658" lon="1.19239">
        <ele>159</ele>
        <time>2026-05-19T14:54:12.572Z</time>
      </trkpt>
      <trkpt lat="49.47658" lon="1.1924">
        <ele>159</ele>
        <time>2026-05-19T14:54:16.833Z</time>
      </trkpt>
      <trkpt lat="49.47653" lon="1.19235">
        <ele>159</ele>
        <time>2026-05-19T14:54:21.422Z</time>
      </trkpt>
      <trkpt lat="49.47649" lon="1.19228">
        <ele>158</ele>
        <time>2026-05-19T14:54:25.468Z</time>
      </trkpt>
      <trkpt lat="49.47646" lon="1.19221">
        <ele>158</ele>
        <time>2026-05-19T14:54:29.744Z</time>
      </trkpt>
      <trkpt lat="49.47642" lon="1.19213">
        <ele>158</ele>
        <time>2026-05-19T14:54:33.895Z</time>
      </trkpt>
      <trkpt lat="49.47638" lon="1.19205">
        <ele>158</ele>
        <time>2026-05-19T14:54:38.160Z</time>
      </trkpt>
      <trkpt lat="49.47634" lon="1.19199">
        <ele>158</ele>
        <time>2026-05-19T14:54:42.432Z</time>
      </trkpt>
      <trkpt lat="49.47629" lon="1.19193">
        <ele>158</ele>
        <time>2026-05-19T14:54:46.730Z</time>
      </trkpt>
      <trkpt lat="49.47626" lon="1.19187">
        <ele>158</ele>
        <time>2026-05-19T14:54:50.890Z</time>
      </trkpt>
      <trkpt lat="49.47622" lon="1.1918">
        <ele>157</ele>
        <time>2026-05-19T14:54:55.256Z</time>
      </trkpt>
      <trkpt lat="49.47618" lon="1.19173">
        <ele>157</ele>
        <time>2026-05-19T14:54:59.468Z</time>
      </trkpt>
      <trkpt lat="49.47615" lon="1.19167">
        <ele>157</ele>
        <time>2026-05-19T14:55:03.706Z</time>
      </trkpt>
      <trkpt lat="49.47612" lon="1.19161">
        <ele>157</ele>
        <time>2026-05-19T14:55:07.898Z</time>
      </trkpt>
      <trkpt lat="49.47608" lon="1.19155">
        <ele>157</ele>
        <time>2026-05-19T14:55:12.364Z</time>
      </trkpt>
      <trkpt lat="49.47604" lon="1.19149">
        <ele>156</ele>
        <time>2026-05-19T14:55:16.654Z</time>
      </trkpt>
      <trkpt lat="49.47601" lon="1.19141">
        <ele>156</ele>
        <time>2026-05-19T14:55:20.896Z</time>
      </trkpt>
      <trkpt lat="49.47597" lon="1.19134">
        <ele>157</ele>
        <time>2026-05-19T14:55:25.196Z</time>
      </trkpt>
      <trkpt lat="49.47593" lon="1.19127">
        <ele>157</ele>
        <time>2026-05-19T14:55:29.376Z</time>
      </trkpt>
      <trkpt lat="49.47589" lon="1.1912">
        <ele>156</ele>
        <time>2026-05-19T14:55:33.729Z</time>
      </trkpt>
      <trkpt lat="49.47585" lon="1.19114">
        <ele>156</ele>
        <time>2026-05-19T14:55:38.072Z</time>
      </trkpt>
      <trkpt lat="49.47581" lon="1.19107">
        <ele>156</ele>
        <time>2026-05-19T14:55:42.233Z</time>
      </trkpt>
      <trkpt lat="49.47577" lon="1.19101">
        <ele>156</ele>
        <time>2026-05-19T14:55:46.625Z</time>
      </trkpt>
      <trkpt lat="49.47574" lon="1.19095">
        <ele>156</ele>
        <time>2026-05-19T14:55:50.811Z</time>
      </trkpt>
      <trkpt lat="49.4757" lon="1.1909">
        <ele>156</ele>
        <time>2026-05-19T14:55:54.896Z</time>
      </trkpt>
      <trkpt lat="49.47566" lon="1.19082">
        <ele>157</ele>
        <time>2026-05-19T14:55:59.410Z</time>
      </trkpt>
      <trkpt lat="49.47563" lon="1.19076">
        <ele>157</ele>
        <time>2026-05-19T14:56:03.778Z</time>
      </trkpt>
      <trkpt lat="49.4756" lon="1.1907">
        <ele>157</ele>
        <time>2026-05-19T14:56:07.900Z</time>
      </trkpt>
      <trkpt lat="49.47556" lon="1.19065">
        <ele>157</ele>
        <time>2026-05-19T14:56:12.363Z</time>
      </trkpt>
      <trkpt lat="49.47552" lon="1.19058">
        <ele>157</ele>
        <time>2026-05-19T14:56:16.602Z</time>
      </trkpt>
      <trkpt lat="49.47549" lon="1.19052">
        <ele>157</ele>
        <time>2026-05-19T14:56:20.889Z</time>
      </trkpt>
      <trkpt lat="49.47545" lon="1.19045">
        <ele>157</ele>
        <time>2026-05-19T14:56:25.084Z</time>
      </trkpt>
      <trkpt lat="49.47542" lon="1.19039">
        <ele>156</ele>
        <time>2026-05-19T14:56:29.444Z</time>
      </trkpt>
      <trkpt lat="49.47538" lon="1.19033">
        <ele>156</ele>
        <time>2026-05-19T14:56:33.617Z</time>
      </trkpt>
      <trkpt lat="49.47535" lon="1.19028">
        <ele>156</ele>
        <time>2026-05-19T14:56:37.896Z</time>
      </trkpt>
      <trkpt lat="49.47531" lon="1.19022">
        <ele>156</ele>
        <time>2026-05-19T14:56:42.255Z</time>
      </trkpt>
      <trkpt lat="49.47528" lon="1.19017">
        <ele>156</ele>
        <time>2026-05-19T14:56:46.626Z</time>
      </trkpt>
      <trkpt lat="49.47524" lon="1.19011">
        <ele>155</ele>
        <time>2026-05-19T14:56:50.788Z</time>
      </trkpt>
      <trkpt lat="49.47521" lon="1.19005">
        <ele>155</ele>
        <time>2026-05-19T14:56:54.896Z</time>
      </trkpt>
      <trkpt lat="49.47517" lon="1.18999">
        <ele>155</ele>
        <time>2026-05-19T14:56:59.174Z</time>
      </trkpt>
      <trkpt lat="49.47514" lon="1.18993">
        <ele>155</ele>
        <time>2026-05-19T14:57:03.586Z</time>
      </trkpt>
      <trkpt lat="49.47511" lon="1.18987">
        <ele>154</ele>
        <time>2026-05-19T14:57:07.822Z</time>
      </trkpt>
      <trkpt lat="49.47507" lon="1.18981">
        <ele>154</ele>
        <time>2026-05-19T14:57:11.899Z</time>
      </trkpt>
      <trkpt lat="49.47503" lon="1.18974">
        <ele>154</ele>
        <time>2026-05-19T14:57:16.230Z</time>
      </trkpt>
      <trkpt lat="49.475" lon="1.18968">
        <ele>154</ele>
        <time>2026-05-19T14:57:20.729Z</time>
      </trkpt>
      <trkpt lat="49.47496" lon="1.18962">
        <ele>154</ele>
        <time>2026-05-19T14:57:25.230Z</time>
      </trkpt>
      <trkpt lat="49.47492" lon="1.18956">
        <ele>153</ele>
        <time>2026-05-19T14:57:29.893Z</time>
      </trkpt>
      <trkpt lat="49.47488" lon="1.1895">
        <ele>153</ele>
        <time>2026-05-19T14:57:59.897Z</time>
      </trkpt>
      <trkpt lat="49.47484" lon="1.18944">
        <ele>153</ele>
        <time>2026-05-19T14:58:07.897Z</time>
      </trkpt>
      <trkpt lat="49.4748" lon="1.18937">
        <ele>153</ele>
        <time>2026-05-19T14:58:12.518Z</time>
      </trkpt>
      <trkpt lat="49.47477" lon="1.1893">
        <ele>153</ele>
        <time>2026-05-19T14:58:16.889Z</time>
      </trkpt>
      <trkpt lat="49.47472" lon="1.18923">
        <ele>153</ele>
        <time>2026-05-19T14:58:21.663Z</time>
      </trkpt>
      <trkpt lat="49.47468" lon="1.18916">
        <ele>153</ele>
        <time>2026-05-19T14:58:25.894Z</time>
      </trkpt>
      <trkpt lat="49.47464" lon="1.1891">
        <ele>153</ele>
        <time>2026-05-19T14:58:30.031Z</time>
      </trkpt>
      <trkpt lat="49.47461" lon="1.18904">
        <ele>153</ele>
        <time>2026-05-19T14:58:34.161Z</time>
      </trkpt>
      <trkpt lat="49.47457" lon="1.18898">
        <ele>153</ele>
        <time>2026-05-19T14:58:38.810Z</time>
      </trkpt>
      <trkpt lat="49.47453" lon="1.18892">
        <ele>153</ele>
        <time>2026-05-19T14:58:43.390Z</time>
      </trkpt>
      <trkpt lat="49.47449" lon="1.18885">
        <ele>153</ele>
        <time>2026-05-19T14:58:47.896Z</time>
      </trkpt>
      <trkpt lat="49.47446" lon="1.18878">
        <ele>153</ele>
        <time>2026-05-19T14:58:51.983Z</time>
      </trkpt>
      <trkpt lat="49.47442" lon="1.18871">
        <ele>152</ele>
        <time>2026-05-19T14:58:56.207Z</time>
      </trkpt>
      <trkpt lat="49.47438" lon="1.18864">
        <ele>152</ele>
        <time>2026-05-19T14:59:00.244Z</time>
      </trkpt>
      <trkpt lat="49.47434" lon="1.18862">
        <ele>152</ele>
        <time>2026-05-19T14:59:04.817Z</time>
      </trkpt>
      <trkpt lat="49.47431" lon="1.18856">
        <ele>152</ele>
        <time>2026-05-19T14:59:08.892Z</time>
      </trkpt>
      <trkpt lat="49.47427" lon="1.1885">
        <ele>153</ele>
        <time>2026-05-19T14:59:12.895Z</time>
      </trkpt>
      <trkpt lat="49.47423" lon="1.18842">
        <ele>152</ele>
        <time>2026-05-19T14:59:17.049Z</time>
      </trkpt>
      <trkpt lat="49.47419" lon="1.18837">
        <ele>152</ele>
        <time>2026-05-19T14:59:21.652Z</time>
      </trkpt>
      <trkpt lat="49.47415" lon="1.18833">
        <ele>152</ele>
        <time>2026-05-19T14:59:25.626Z</time>
      </trkpt>
      <trkpt lat="49.47411" lon="1.18832">
        <ele>152</ele>
        <time>2026-05-19T14:59:30.150Z</time>
      </trkpt>
      <trkpt lat="49.47407" lon="1.1883">
        <ele>152</ele>
        <time>2026-05-19T14:59:34.683Z</time>
      </trkpt>
      <trkpt lat="49.47403" lon="1.18826">
        <ele>152</ele>
        <time>2026-05-19T14:59:39.255Z</time>
      </trkpt>
      <trkpt lat="49.474" lon="1.18821">
        <ele>152</ele>
        <time>2026-05-19T14:59:43.788Z</time>
      </trkpt>
      <trkpt lat="49.47396" lon="1.18819">
        <ele>150</ele>
        <time>2026-05-19T14:59:48.288Z</time>
      </trkpt>
      <trkpt lat="49.47393" lon="1.18817">
        <ele>150</ele>
        <time>2026-05-19T14:59:52.388Z</time>
      </trkpt>
      <trkpt lat="49.47388" lon="1.18816">
        <ele>150</ele>
        <time>2026-05-19T14:59:56.892Z</time>
      </trkpt>
      <trkpt lat="49.47384" lon="1.18814">
        <ele>150</ele>
        <time>2026-05-19T15:00:00.891Z</time>
      </trkpt>
      <trkpt lat="49.47379" lon="1.1881">
        <ele>150</ele>
        <time>2026-05-19T15:00:05.051Z</time>
      </trkpt>
      <trkpt lat="49.47374" lon="1.18806">
        <ele>149</ele>
        <time>2026-05-19T15:00:08.981Z</time>
      </trkpt>
      <trkpt lat="49.4737" lon="1.18804">
        <ele>149</ele>
        <time>2026-05-19T15:00:13.163Z</time>
      </trkpt>
      <trkpt lat="49.47365" lon="1.18802">
        <ele>149</ele>
        <time>2026-05-19T15:00:17.242Z</time>
      </trkpt>
      <trkpt lat="49.47359" lon="1.18798">
        <ele>149</ele>
        <time>2026-05-19T15:00:21.412Z</time>
      </trkpt>
      <trkpt lat="49.47355" lon="1.18792">
        <ele>149</ele>
        <time>2026-05-19T15:00:25.491Z</time>
      </trkpt>
      <trkpt lat="49.4735" lon="1.18787">
        <ele>149</ele>
        <time>2026-05-19T15:00:29.717Z</time>
      </trkpt>
      <trkpt lat="49.47344" lon="1.18784">
        <ele>148</ele>
        <time>2026-05-19T15:00:33.742Z</time>
      </trkpt>
      <trkpt lat="49.4734" lon="1.18783">
        <ele>148</ele>
        <time>2026-05-19T15:00:37.893Z</time>
      </trkpt>
      <trkpt lat="49.47336" lon="1.18779">
        <ele>148</ele>
        <time>2026-05-19T15:00:41.896Z</time>
      </trkpt>
      <trkpt lat="49.47331" lon="1.18775">
        <ele>148</ele>
        <time>2026-05-19T15:00:46.614Z</time>
      </trkpt>
      <trkpt lat="49.47326" lon="1.18772">
        <ele>148</ele>
        <time>2026-05-19T15:00:51.150Z</time>
      </trkpt>
      <trkpt lat="49.47321" lon="1.18777">
        <ele>148</ele>
        <time>2026-05-19T15:00:55.208Z</time>
      </trkpt>
      <trkpt lat="49.47316" lon="1.18774">
        <ele>144</ele>
        <time>2026-05-19T15:00:59.743Z</time>
      </trkpt>
      <trkpt lat="49.4731" lon="1.1877">
        <ele>144</ele>
        <time>2026-05-19T15:01:04.409Z</time>
      </trkpt>
      <trkpt lat="49.47306" lon="1.18768">
        <ele>144</ele>
        <time>2026-05-19T15:01:08.903Z</time>
      </trkpt>
      <trkpt lat="49.47302" lon="1.18766">
        <ele>144</ele>
        <time>2026-05-19T15:01:13.084Z</time>
      </trkpt>
      <trkpt lat="49.47297" lon="1.18765">
        <ele>144</ele>
        <time>2026-05-19T15:01:17.127Z</time>
      </trkpt>
      <trkpt lat="49.47291" lon="1.18762">
        <ele>139</ele>
        <time>2026-05-19T15:01:21.706Z</time>
      </trkpt>
      <trkpt lat="49.47289" lon="1.18762">
        <ele>139</ele>
        <time>2026-05-19T15:01:26.253Z</time>
      </trkpt>
      <trkpt lat="49.47283" lon="1.18759">
        <ele>139</ele>
        <time>2026-05-19T15:01:30.208Z</time>
      </trkpt>
      <trkpt lat="49.47276" lon="1.18757">
        <ele>139</ele>
        <time>2026-05-19T15:01:34.376Z</time>
      </trkpt>
      <trkpt lat="49.4727" lon="1.18755">
        <ele>139</ele>
        <time>2026-05-19T15:01:38.897Z</time>
      </trkpt>
      <trkpt lat="49.47265" lon="1.18751">
        <ele>139</ele>
        <time>2026-05-19T15:01:42.893Z</time>
      </trkpt>
      <trkpt lat="49.47259" lon="1.18746">
        <ele>136</ele>
        <time>2026-05-19T15:01:47.490Z</time>
      </trkpt>
      <trkpt lat="49.47253" lon="1.1874">
        <ele>136</ele>
        <time>2026-05-19T15:01:51.572Z</time>
      </trkpt>
      <trkpt lat="49.47247" lon="1.18737">
        <ele>136</ele>
        <time>2026-05-19T15:01:55.515Z</time>
      </trkpt>
      <trkpt lat="49.47243" lon="1.18731">
        <ele>135</ele>
        <time>2026-05-19T15:02:00.064Z</time>
      </trkpt>
      <trkpt lat="49.47239" lon="1.18724">
        <ele>135</ele>
        <time>2026-05-19T15:02:04.243Z</time>
      </trkpt>
      <trkpt lat="49.47236" lon="1.18717">
        <ele>135</ele>
        <time>2026-05-19T15:02:08.853Z</time>
      </trkpt>
      <trkpt lat="49.47232" lon="1.1871">
        <ele>138</ele>
        <time>2026-05-19T15:02:13.432Z</time>
      </trkpt>
      <trkpt lat="49.47228" lon="1.18705">
        <ele>138</ele>
        <time>2026-05-19T15:02:17.469Z</time>
      </trkpt>
      <trkpt lat="49.47224" lon="1.18699">
        <ele>138</ele>
        <time>2026-05-19T15:02:21.512Z</time>
      </trkpt>
      <trkpt lat="49.47221" lon="1.18693">
        <ele>138</ele>
        <time>2026-05-19T15:02:25.900Z</time>
      </trkpt>
      <trkpt lat="49.47217" lon="1.18683">
        <ele>138</ele>
        <time>2026-05-19T15:02:30.026Z</time>
      </trkpt>
      <trkpt lat="49.47213" lon="1.18678">
        <ele>136</ele>
        <time>2026-05-19T15:02:34.636Z</time>
      </trkpt>
      <trkpt lat="49.47209" lon="1.18674">
        <ele>136</ele>
        <time>2026-05-19T15:02:39.116Z</time>
      </trkpt>
      <trkpt lat="49.47207" lon="1.18669">
        <ele>139</ele>
        <time>2026-05-19T15:02:43.172Z</time>
      </trkpt>
      <trkpt lat="49.47207" lon="1.18669">
        <ele>139</ele>
        <time>2026-05-19T15:02:47.750Z</time>
      </trkpt>
      <trkpt lat="49.47206" lon="1.18668">
        <ele>139</ele>
        <time>2026-05-19T15:02:51.764Z</time>
      </trkpt>
      <trkpt lat="49.47201" lon="1.1866">
        <ele>139</ele>
        <time>2026-05-19T15:02:56.264Z</time>
      </trkpt>
      <trkpt lat="49.47196" lon="1.18653">
        <ele>139</ele>
        <time>2026-05-19T15:03:00.878Z</time>
      </trkpt>
      <trkpt lat="49.47195" lon="1.1865">
        <ele>136</ele>
        <time>2026-05-19T15:03:04.896Z</time>
      </trkpt>
      <trkpt lat="49.47194" lon="1.1865">
        <ele>136</ele>
        <time>2026-05-19T15:03:09.387Z</time>
      </trkpt>
      <trkpt lat="49.47189" lon="1.18641">
        <ele>136</ele>
        <time>2026-05-19T15:03:13.387Z</time>
      </trkpt>
      <trkpt lat="49.47185" lon="1.18633">
        <ele>136</ele>
        <time>2026-05-19T15:03:17.896Z</time>
      </trkpt>
      <trkpt lat="49.47182" lon="1.18625">
        <ele>136</ele>
        <time>2026-05-19T15:03:22.560Z</time>
      </trkpt>
      <trkpt lat="49.47177" lon="1.18618">
        <ele>135</ele>
        <time>2026-05-19T15:03:27.125Z</time>
      </trkpt>
      <trkpt lat="49.47172" lon="1.18611">
        <ele>135</ele>
        <time>2026-05-19T15:03:31.174Z</time>
      </trkpt>
      <trkpt lat="49.47167" lon="1.18605">
        <ele>135</ele>
        <time>2026-05-19T15:03:35.752Z</time>
      </trkpt>
      <trkpt lat="49.47163" lon="1.18598">
        <ele>135</ele>
        <time>2026-05-19T15:03:40.242Z</time>
      </trkpt>
      <trkpt lat="49.4716" lon="1.1859">
        <ele>133</ele>
        <time>2026-05-19T15:03:44.810Z</time>
      </trkpt>
      <trkpt lat="49.47156" lon="1.18583">
        <ele>133</ele>
        <time>2026-05-19T15:03:49.387Z</time>
      </trkpt>
      <trkpt lat="49.47153" lon="1.18575">
        <ele>133</ele>
        <time>2026-05-19T15:03:53.891Z</time>
      </trkpt>
      <trkpt lat="49.4715" lon="1.18567">
        <ele>139</ele>
        <time>2026-05-19T15:03:57.897Z</time>
      </trkpt>
      <trkpt lat="49.47147" lon="1.1856">
        <ele>139</ele>
        <time>2026-05-19T15:04:02.479Z</time>
      </trkpt>
      <trkpt lat="49.47145" lon="1.18552">
        <ele>139</ele>
        <time>2026-05-19T15:04:07.053Z</time>
      </trkpt>
      <trkpt lat="49.47142" lon="1.18543">
        <ele>139</ele>
        <time>2026-05-19T15:04:11.503Z</time>
      </trkpt>
      <trkpt lat="49.47139" lon="1.18535">
        <ele>139</ele>
        <time>2026-05-19T15:04:15.549Z</time>
      </trkpt>
      <trkpt lat="49.47136" lon="1.18527">
        <ele>139</ele>
        <time>2026-05-19T15:04:19.898Z</time>
      </trkpt>
      <trkpt lat="49.47133" lon="1.18519">
        <ele>139</ele>
        <time>2026-05-19T15:04:24.898Z</time>
      </trkpt>
      <trkpt lat="49.4713" lon="1.1851">
        <ele>138</ele>
        <time>2026-05-19T15:04:29.525Z</time>
      </trkpt>
      <trkpt lat="49.47128" lon="1.18502">
        <ele>138</ele>
        <time>2026-05-19T15:04:33.892Z</time>
      </trkpt>
      <trkpt lat="49.47125" lon="1.18496">
        <ele>146</ele>
        <time>2026-05-19T15:04:38.490Z</time>
      </trkpt>
      <trkpt lat="49.47116" lon="1.18486">
        <ele>145</ele>
        <time>2026-05-19T15:04:43.005Z</time>
      </trkpt>
      <trkpt lat="49.47112" lon="1.18485">
        <ele>145</ele>
        <time>2026-05-19T15:04:47.526Z</time>
      </trkpt>
      <trkpt lat="49.47108" lon="1.18485">
        <ele>145</ele>
        <time>2026-05-19T15:04:51.896Z</time>
      </trkpt>
      <trkpt lat="49.47104" lon="1.18487">
        <ele>146</ele>
        <time>2026-05-19T15:04:56.548Z</time>
      </trkpt>
      <trkpt lat="49.47102" lon="1.18491">
        <ele>146</ele>
        <time>2026-05-19T15:05:01.026Z</time>
      </trkpt>
      <trkpt lat="49.47099" lon="1.18494">
        <ele>146</ele>
        <time>2026-05-19T15:05:05.027Z</time>
      </trkpt>
      <trkpt lat="49.47097" lon="1.18497">
        <ele>148</ele>
        <time>2026-05-19T15:05:09.050Z</time>
      </trkpt>
      <trkpt lat="49.47094" lon="1.18498">
        <ele>148</ele>
        <time>2026-05-19T15:05:13.603Z</time>
      </trkpt>
      <trkpt lat="49.4709" lon="1.18499">
        <ele>148</ele>
        <time>2026-05-19T15:05:17.650Z</time>
      </trkpt>
      <trkpt lat="49.47087" lon="1.18499">
        <ele>148</ele>
        <time>2026-05-19T15:05:21.683Z</time>
      </trkpt>
      <trkpt lat="49.47084" lon="1.185">
        <ele>148</ele>
        <time>2026-05-19T15:05:26.255Z</time>
      </trkpt>
      <trkpt lat="49.4708" lon="1.18498">
        <ele>148</ele>
        <time>2026-05-19T15:05:30.753Z</time>
      </trkpt>
      <trkpt lat="49.47073" lon="1.18499">
        <ele>148</ele>
        <time>2026-05-19T15:05:35.243Z</time>
      </trkpt>
      <trkpt lat="49.47067" lon="1.185">
        <ele>150</ele>
        <time>2026-05-19T15:05:39.763Z</time>
      </trkpt>
      <trkpt lat="49.4706" lon="1.18501">
        <ele>150</ele>
        <time>2026-05-19T15:05:44.329Z</time>
      </trkpt>
      <trkpt lat="49.47055" lon="1.18501">
        <ele>150</ele>
        <time>2026-05-19T15:05:48.898Z</time>
      </trkpt>
      <trkpt lat="49.4705" lon="1.185">
        <ele>150</ele>
        <time>2026-05-19T15:05:53.525Z</time>
      </trkpt>
      <trkpt lat="49.47045" lon="1.185">
        <ele>150</ele>
        <time>2026-05-19T15:05:57.895Z</time>
      </trkpt>
      <trkpt lat="49.47041" lon="1.18501">
        <ele>151</ele>
        <time>2026-05-19T15:06:02.098Z</time>
      </trkpt>
      <trkpt lat="49.47036" lon="1.18502">
        <ele>151</ele>
        <time>2026-05-19T15:06:06.671Z</time>
      </trkpt>
      <trkpt lat="49.4703" lon="1.18506">
        <ele>151</ele>
        <time>2026-05-19T15:06:10.626Z</time>
      </trkpt>
      <trkpt lat="49.47024" lon="1.18507">
        <ele>151</ele>
        <time>2026-05-19T15:06:15.184Z</time>
      </trkpt>
      <trkpt lat="49.47017" lon="1.18509">
        <ele>151</ele>
        <time>2026-05-19T15:06:19.776Z</time>
      </trkpt>
      <trkpt lat="49.47012" lon="1.1851">
        <ele>154</ele>
        <time>2026-05-19T15:06:23.799Z</time>
      </trkpt>
      <trkpt lat="49.47005" lon="1.1851">
        <ele>154</ele>
        <time>2026-05-19T15:06:27.843Z</time>
      </trkpt>
      <trkpt lat="49.46999" lon="1.18509">
        <ele>154</ele>
        <time>2026-05-19T15:06:32.410Z</time>
      </trkpt>
      <trkpt lat="49.46995" lon="1.18505">
        <ele>154</ele>
        <time>2026-05-19T15:06:36.447Z</time>
      </trkpt>
      <trkpt lat="49.46992" lon="1.18499">
        <ele>154</ele>
        <time>2026-05-19T15:06:40.899Z</time>
      </trkpt>
      <trkpt lat="49.4699" lon="1.18492">
        <ele>154</ele>
        <time>2026-05-19T15:06:45.527Z</time>
      </trkpt>
      <trkpt lat="49.46988" lon="1.18485">
        <ele>153</ele>
        <time>2026-05-19T15:06:49.525Z</time>
      </trkpt>
      <trkpt lat="49.46987" lon="1.18479">
        <ele>153</ele>
        <time>2026-05-19T15:06:53.553Z</time>
      </trkpt>
      <trkpt lat="49.46986" lon="1.18471">
        <ele>156</ele>
        <time>2026-05-19T15:06:57.603Z</time>
      </trkpt>
      <trkpt lat="49.46985" lon="1.18464">
        <ele>156</ele>
        <time>2026-05-19T15:07:01.683Z</time>
      </trkpt>
      <trkpt lat="49.46983" lon="1.18457">
        <ele>156</ele>
        <time>2026-05-19T15:07:06.275Z</time>
      </trkpt>
      <trkpt lat="49.46982" lon="1.18449">
        <ele>156</ele>
        <time>2026-05-19T15:07:10.289Z</time>
      </trkpt>
      <trkpt lat="49.46981" lon="1.18442">
        <ele>156</ele>
        <time>2026-05-19T15:07:14.328Z</time>
      </trkpt>
      <trkpt lat="49.46979" lon="1.18435">
        <ele>156</ele>
        <time>2026-05-19T15:07:18.319Z</time>
      </trkpt>
      <trkpt lat="49.46977" lon="1.18428">
        <ele>156</ele>
        <time>2026-05-19T15:07:22.891Z</time>
      </trkpt>
      <trkpt lat="49.46975" lon="1.1842">
        <ele>156</ele>
        <time>2026-05-19T15:07:26.893Z</time>
      </trkpt>
      <trkpt lat="49.46973" lon="1.18414">
        <ele>156</ele>
        <time>2026-05-19T15:07:31.490Z</time>
      </trkpt>
      <trkpt lat="49.46971" lon="1.18407">
        <ele>156</ele>
        <time>2026-05-19T15:07:35.492Z</time>
      </trkpt>
      <trkpt lat="49.46969" lon="1.184">
        <ele>155</ele>
        <time>2026-05-19T15:07:40.027Z</time>
      </trkpt>
      <trkpt lat="49.46967" lon="1.18393">
        <ele>155</ele>
        <time>2026-05-19T15:07:44.604Z</time>
      </trkpt>
      <trkpt lat="49.46965" lon="1.18386">
        <ele>155</ele>
        <time>2026-05-19T15:07:49.206Z</time>
      </trkpt>
      <trkpt lat="49.46963" lon="1.1838">
        <ele>155</ele>
        <time>2026-05-19T15:07:53.684Z</time>
      </trkpt>
      <trkpt lat="49.46961" lon="1.18372">
        <ele>156</ele>
        <time>2026-05-19T15:07:58.182Z</time>
      </trkpt>
      <trkpt lat="49.4696" lon="1.18364">
        <ele>156</ele>
        <time>2026-05-19T15:08:02.752Z</time>
      </trkpt>
      <trkpt lat="49.46958" lon="1.18357">
        <ele>158</ele>
        <time>2026-05-19T15:08:07.290Z</time>
      </trkpt>
      <trkpt lat="49.46954" lon="1.18355">
        <ele>158</ele>
        <time>2026-05-19T15:08:11.894Z</time>
      </trkpt>
      <trkpt lat="49.46951" lon="1.18355">
        <ele>158</ele>
        <time>2026-05-19T15:08:16.434Z</time>
      </trkpt>
      <trkpt lat="49.46948" lon="1.18358">
        <ele>158</ele>
        <time>2026-05-19T15:08:20.433Z</time>
      </trkpt>
      <trkpt lat="49.46944" lon="1.1836">
        <ele>158</ele>
        <time>2026-05-19T15:08:24.410Z</time>
      </trkpt>
      <trkpt lat="49.4694" lon="1.18363">
        <ele>158</ele>
        <time>2026-05-19T15:08:28.891Z</time>
      </trkpt>
      <trkpt lat="49.46935" lon="1.18365">
        <ele>158</ele>
        <time>2026-05-19T15:08:33.530Z</time>
      </trkpt>
      <trkpt lat="49.4693" lon="1.18365">
        <ele>160</ele>
        <time>2026-05-19T15:08:38.095Z</time>
      </trkpt>
      <trkpt lat="49.46925" lon="1.18364">
        <ele>160</ele>
        <time>2026-05-19T15:08:42.626Z</time>
      </trkpt>
      <trkpt lat="49.4692" lon="1.18364">
        <ele>160</ele>
        <time>2026-05-19T15:08:47.264Z</time>
      </trkpt>
      <trkpt lat="49.46915" lon="1.18365">
        <ele>160</ele>
        <time>2026-05-19T15:08:51.647Z</time>
      </trkpt>
      <trkpt lat="49.4691" lon="1.18366">
        <ele>160</ele>
        <time>2026-05-19T15:08:55.902Z</time>
      </trkpt>
      <trkpt lat="49.46905" lon="1.18368">
        <ele>160</ele>
        <time>2026-05-19T15:09:00.548Z</time>
      </trkpt>
      <trkpt lat="49.46899" lon="1.1837">
        <ele>163</ele>
        <time>2026-05-19T15:09:05.049Z</time>
      </trkpt>
      <trkpt lat="49.46894" lon="1.18372">
        <ele>163</ele>
        <time>2026-05-19T15:09:09.207Z</time>
      </trkpt>
      <trkpt lat="49.4689" lon="1.18373">
        <ele>163</ele>
        <time>2026-05-19T15:09:13.289Z</time>
      </trkpt>
      <trkpt lat="49.46886" lon="1.18373">
        <ele>163</ele>
        <time>2026-05-19T15:09:17.433Z</time>
      </trkpt>
      <trkpt lat="49.46881" lon="1.18374">
        <ele>163</ele>
        <time>2026-05-19T15:09:21.525Z</time>
      </trkpt>
      <trkpt lat="49.46876" lon="1.18376">
        <ele>163</ele>
        <time>2026-05-19T15:09:25.605Z</time>
      </trkpt>
      <trkpt lat="49.46872" lon="1.18376">
        <ele>166</ele>
        <time>2026-05-19T15:09:29.683Z</time>
      </trkpt>
      <trkpt lat="49.46867" lon="1.18377">
        <ele>166</ele>
        <time>2026-05-19T15:09:33.788Z</time>
      </trkpt>
      <trkpt lat="49.46863" lon="1.18378">
        <ele>166</ele>
        <time>2026-05-19T15:09:37.810Z</time>
      </trkpt>
      <trkpt lat="49.46859" lon="1.1838">
        <ele>166</ele>
        <time>2026-05-19T15:09:41.866Z</time>
      </trkpt>
      <trkpt lat="49.46855" lon="1.18381">
        <ele>166</ele>
        <time>2026-05-19T15:09:45.886Z</time>
      </trkpt>
      <trkpt lat="49.4685" lon="1.18382">
        <ele>166</ele>
        <time>2026-05-19T15:09:50.410Z</time>
      </trkpt>
      <trkpt lat="49.46845" lon="1.18384">
        <ele>166</ele>
        <time>2026-05-19T15:09:54.900Z</time>
      </trkpt>
      <trkpt lat="49.4684" lon="1.18386">
        <ele>166</ele>
        <time>2026-05-19T15:09:59.016Z</time>
      </trkpt>
      <trkpt lat="49.46836" lon="1.18388">
        <ele>166</ele>
        <time>2026-05-19T15:10:03.099Z</time>
      </trkpt>
      <trkpt lat="49.46831" lon="1.1839">
        <ele>166</ele>
        <time>2026-05-19T15:10:07.706Z</time>
      </trkpt>
      <trkpt lat="49.46826" lon="1.18392">
        <ele>166</ele>
        <time>2026-05-19T15:10:11.707Z</time>
      </trkpt>
      <trkpt lat="49.46815" lon="1.18393">
        <ele>164</ele>
        <time>2026-05-19T15:10:16.208Z</time>
      </trkpt>
      <trkpt lat="49.46812" lon="1.18397">
        <ele>164</ele>
        <time>2026-05-19T15:10:20.337Z</time>
      </trkpt>
      <trkpt lat="49.46807" lon="1.18399">
        <ele>164</ele>
        <time>2026-05-19T15:10:24.433Z</time>
      </trkpt>
      <trkpt lat="49.46802" lon="1.18404">
        <ele>163</ele>
        <time>2026-05-19T15:10:28.547Z</time>
      </trkpt>
      <trkpt lat="49.46798" lon="1.18408">
        <ele>163</ele>
        <time>2026-05-19T15:10:33.152Z</time>
      </trkpt>
      <trkpt lat="49.46793" lon="1.1841">
        <ele>163</ele>
        <time>2026-05-19T15:10:37.750Z</time>
      </trkpt>
      <trkpt lat="49.46788" lon="1.18414">
        <ele>163</ele>
        <time>2026-05-19T15:10:42.211Z</time>
      </trkpt>
      <trkpt lat="49.46783" lon="1.18417">
        <ele>163</ele>
        <time>2026-05-19T15:10:46.189Z</time>
      </trkpt>
      <trkpt lat="49.46778" lon="1.18415">
        <ele>163</ele>
        <time>2026-05-19T15:10:50.765Z</time>
      </trkpt>
      <trkpt lat="49.46773" lon="1.18402">
        <ele>163</ele>
        <time>2026-05-19T15:10:54.885Z</time>
      </trkpt>
      <trkpt lat="49.46773" lon="1.18401">
        <ele>163</ele>
        <time>2026-05-19T15:10:59.007Z</time>
      </trkpt>
      <trkpt lat="49.46767" lon="1.18394">
        <ele>163</ele>
        <time>2026-05-19T15:11:03.149Z</time>
      </trkpt>
      <trkpt lat="49.46762" lon="1.18386">
        <ele>163</ele>
        <time>2026-05-19T15:11:27.038Z</time>
      </trkpt>
      <trkpt lat="49.46759" lon="1.18378">
        <ele>163</ele>
        <time>2026-05-19T15:11:31.467Z</time>
      </trkpt>
      <trkpt lat="49.46757" lon="1.1837">
        <ele>164</ele>
        <time>2026-05-19T15:11:35.810Z</time>
      </trkpt>
      <trkpt lat="49.46755" lon="1.18364">
        <ele>164</ele>
        <time>2026-05-19T15:11:40.172Z</time>
      </trkpt>
      <trkpt lat="49.46752" lon="1.18357">
        <ele>164</ele>
        <time>2026-05-19T15:11:44.583Z</time>
      </trkpt>
      <trkpt lat="49.46751" lon="1.18349">
        <ele>164</ele>
        <time>2026-05-19T15:11:48.887Z</time>
      </trkpt>
      <trkpt lat="49.46751" lon="1.1834">
        <ele>164</ele>
        <time>2026-05-19T15:11:53.349Z</time>
      </trkpt>
      <trkpt lat="49.46751" lon="1.18334">
        <ele>164</ele>
        <time>2026-05-19T15:11:57.788Z</time>
      </trkpt>
      <trkpt lat="49.46751" lon="1.18333">
        <ele>164</ele>
        <time>2026-05-19T15:12:02.172Z</time>
      </trkpt>
      <trkpt lat="49.46751" lon="1.18325">
        <ele>164</ele>
        <time>2026-05-19T15:12:06.423Z</time>
      </trkpt>
      <trkpt lat="49.46747" lon="1.18315">
        <ele>164</ele>
        <time>2026-05-19T15:12:10.799Z</time>
      </trkpt>
      <trkpt lat="49.46744" lon="1.18306">
        <ele>164</ele>
        <time>2026-05-19T15:12:14.899Z</time>
      </trkpt>
      <trkpt lat="49.46742" lon="1.18298">
        <ele>164</ele>
        <time>2026-05-19T15:12:19.467Z</time>
      </trkpt>
      <trkpt lat="49.46738" lon="1.18293">
        <ele>164</ele>
        <time>2026-05-19T15:12:23.890Z</time>
      </trkpt>
      <trkpt lat="49.46734" lon="1.18288">
        <ele>164</ele>
        <time>2026-05-19T15:12:28.174Z</time>
      </trkpt>
      <trkpt lat="49.46728" lon="1.18288">
        <ele>164</ele>
        <time>2026-05-19T15:12:32.547Z</time>
      </trkpt>
      <trkpt lat="49.46724" lon="1.18287">
        <ele>164</ele>
        <time>2026-05-19T15:12:37.514Z</time>
      </trkpt>
      <trkpt lat="49.46721" lon="1.18282">
        <ele>164</ele>
        <time>2026-05-19T15:12:41.901Z</time>
      </trkpt>
      <trkpt lat="49.4672" lon="1.18276">
        <ele>164</ele>
        <time>2026-05-19T15:12:46.352Z</time>
      </trkpt>
      <trkpt lat="49.46718" lon="1.18284">
        <ele>164</ele>
        <time>2026-05-19T15:12:50.894Z</time>
      </trkpt>
      <trkpt lat="49.46715" lon="1.18291">
        <ele>164</ele>
        <time>2026-05-19T15:12:55.889Z</time>
      </trkpt>
      <trkpt lat="49.46709" lon="1.18291">
        <ele>164</ele>
        <time>2026-05-19T15:13:00.345Z</time>
      </trkpt>
      <trkpt lat="49.46702" lon="1.18291">
        <ele>164</ele>
        <time>2026-05-19T15:13:04.787Z</time>
      </trkpt>
      <trkpt lat="49.46696" lon="1.18292">
        <ele>165</ele>
        <time>2026-05-19T15:13:09.185Z</time>
      </trkpt>
      <trkpt lat="49.4669" lon="1.18293">
        <ele>165</ele>
        <time>2026-05-19T15:13:13.894Z</time>
      </trkpt>
      <trkpt lat="49.46684" lon="1.18295">
        <ele>165</ele>
        <time>2026-05-19T15:13:17.995Z</time>
      </trkpt>
      <trkpt lat="49.46678" lon="1.18297">
        <ele>164</ele>
        <time>2026-05-19T15:13:22.615Z</time>
      </trkpt>
      <trkpt lat="49.46673" lon="1.18298">
        <ele>164</ele>
        <time>2026-05-19T15:13:26.892Z</time>
      </trkpt>
      <trkpt lat="49.46668" lon="1.18298">
        <ele>164</ele>
        <time>2026-05-19T15:13:31.184Z</time>
      </trkpt>
      <trkpt lat="49.46663" lon="1.18299">
        <ele>164</ele>
        <time>2026-05-19T15:13:35.447Z</time>
      </trkpt>
      <trkpt lat="49.46657" lon="1.18302">
        <ele>164</ele>
        <time>2026-05-19T15:13:39.876Z</time>
      </trkpt>
      <trkpt lat="49.46652" lon="1.18304">
        <ele>163</ele>
        <time>2026-05-19T15:13:44.282Z</time>
      </trkpt>
      <trkpt lat="49.46646" lon="1.18308">
        <ele>163</ele>
        <time>2026-05-19T15:13:48.682Z</time>
      </trkpt>
      <trkpt lat="49.46641" lon="1.18309">
        <ele>163</ele>
        <time>2026-05-19T15:13:53.187Z</time>
      </trkpt>
      <trkpt lat="49.46636" lon="1.18313">
        <ele>163</ele>
        <time>2026-05-19T15:13:57.695Z</time>
      </trkpt>
      <trkpt lat="49.46631" lon="1.18314">
        <ele>163</ele>
        <time>2026-05-19T15:14:02.206Z</time>
      </trkpt>
      <trkpt lat="49.46625" lon="1.18314">
        <ele>163</ele>
        <time>2026-05-19T15:14:06.706Z</time>
      </trkpt>
      <trkpt lat="49.46621" lon="1.18313">
        <ele>163</ele>
        <time>2026-05-19T15:14:11.161Z</time>
      </trkpt>
      <trkpt lat="49.46616" lon="1.18312">
        <ele>163</ele>
        <time>2026-05-19T15:14:15.571Z</time>
      </trkpt>
      <trkpt lat="49.4661" lon="1.18311">
        <ele>163</ele>
        <time>2026-05-19T15:14:19.890Z</time>
      </trkpt>
      <trkpt lat="49.46605" lon="1.1831">
        <ele>163</ele>
        <time>2026-05-19T15:14:24.524Z</time>
      </trkpt>
      <trkpt lat="49.46601" lon="1.18308">
        <ele>163</ele>
        <time>2026-05-19T15:14:28.889Z</time>
      </trkpt>
      <trkpt lat="49.46595" lon="1.18305">
        <ele>162</ele>
        <time>2026-05-19T15:14:33.536Z</time>
      </trkpt>
      <trkpt lat="49.4659" lon="1.18304">
        <ele>162</ele>
        <time>2026-05-19T15:14:38.115Z</time>
      </trkpt>
      <trkpt lat="49.46584" lon="1.18303">
        <ele>162</ele>
        <time>2026-05-19T15:14:42.786Z</time>
      </trkpt>
      <trkpt lat="49.46578" lon="1.18304">
        <ele>162</ele>
        <time>2026-05-19T15:14:46.889Z</time>
      </trkpt>
      <trkpt lat="49.46572" lon="1.18303">
        <ele>162</ele>
        <time>2026-05-19T15:15:08.897Z</time>
      </trkpt>
      <trkpt lat="49.46567" lon="1.183">
        <ele>161</ele>
        <time>2026-05-19T15:15:13.894Z</time>
      </trkpt>
      <trkpt lat="49.46561" lon="1.18298">
        <ele>161</ele>
        <time>2026-05-19T15:15:18.890Z</time>
      </trkpt>
      <trkpt lat="49.46555" lon="1.18296">
        <ele>161</ele>
        <time>2026-05-19T15:15:23.333Z</time>
      </trkpt>
      <trkpt lat="49.4655" lon="1.18297">
        <ele>161</ele>
        <time>2026-05-19T15:15:27.428Z</time>
      </trkpt>
      <trkpt lat="49.4655" lon="1.183">
        <ele>161</ele>
        <time>2026-05-19T15:15:31.747Z</time>
      </trkpt>
      <trkpt lat="49.4655" lon="1.18299">
        <ele>161</ele>
        <time>2026-05-19T15:15:36.500Z</time>
      </trkpt>
      <trkpt lat="49.46547" lon="1.18302">
        <ele>161</ele>
        <time>2026-05-19T15:15:40.617Z</time>
      </trkpt>
      <trkpt lat="49.46546" lon="1.18311">
        <ele>161</ele>
        <time>2026-05-19T15:15:44.750Z</time>
      </trkpt>
      <trkpt lat="49.46546" lon="1.18319">
        <ele>161</ele>
        <time>2026-05-19T15:15:48.891Z</time>
      </trkpt>
      <trkpt lat="49.46546" lon="1.18328">
        <ele>161</ele>
        <time>2026-05-19T15:15:53.287Z</time>
      </trkpt>
      <trkpt lat="49.46546" lon="1.18336">
        <ele>161</ele>
        <time>2026-05-19T15:15:57.350Z</time>
      </trkpt>
      <trkpt lat="49.46547" lon="1.18345">
        <ele>161</ele>
        <time>2026-05-19T15:16:01.653Z</time>
      </trkpt>
      <trkpt lat="49.46545" lon="1.18354">
        <ele>161</ele>
        <time>2026-05-19T15:16:06.284Z</time>
      </trkpt>
      <trkpt lat="49.46544" lon="1.18362">
        <ele>161</ele>
        <time>2026-05-19T15:16:10.830Z</time>
      </trkpt>
      <trkpt lat="49.46542" lon="1.18369">
        <ele>161</ele>
        <time>2026-05-19T15:16:15.451Z</time>
      </trkpt>
      <trkpt lat="49.4654" lon="1.18377">
        <ele>161</ele>
        <time>2026-05-19T15:16:19.888Z</time>
      </trkpt>
      <trkpt lat="49.46539" lon="1.18386">
        <ele>161</ele>
        <time>2026-05-19T15:16:24.843Z</time>
      </trkpt>
      <trkpt lat="49.46538" lon="1.18394">
        <ele>161</ele>
        <time>2026-05-19T15:16:29.750Z</time>
      </trkpt>
      <trkpt lat="49.46536" lon="1.18403">
        <ele>161</ele>
        <time>2026-05-19T15:16:34.547Z</time>
      </trkpt>
      <trkpt lat="49.46533" lon="1.1841">
        <ele>161</ele>
        <time>2026-05-19T15:16:39.009Z</time>
      </trkpt>
      <trkpt lat="49.4653" lon="1.18417">
        <ele>161</ele>
        <time>2026-05-19T15:16:43.535Z</time>
      </trkpt>
      <trkpt lat="49.46528" lon="1.18424">
        <ele>161</ele>
        <time>2026-05-19T15:16:47.760Z</time>
      </trkpt>
      <trkpt lat="49.46525" lon="1.18429">
        <ele>161</ele>
        <time>2026-05-19T15:16:51.776Z</time>
      </trkpt>
      <trkpt lat="49.46522" lon="1.18435">
        <ele>160</ele>
        <time>2026-05-19T15:16:56.095Z</time>
      </trkpt>
      <trkpt lat="49.46519" lon="1.1844">
        <ele>160</ele>
        <time>2026-05-19T15:17:00.389Z</time>
      </trkpt>
      <trkpt lat="49.46519" lon="1.18438">
        <ele>160</ele>
        <time>2026-05-19T15:17:04.891Z</time>
      </trkpt>
      <trkpt lat="49.46517" lon="1.18447">
        <ele>160</ele>
        <time>2026-05-19T15:17:09.187Z</time>
      </trkpt>
      <trkpt lat="49.46511" lon="1.18455">
        <ele>159</ele>
        <time>2026-05-19T15:17:13.324Z</time>
      </trkpt>
      <trkpt lat="49.46508" lon="1.18463">
        <ele>158</ele>
        <time>2026-05-19T15:17:17.545Z</time>
      </trkpt>
      <trkpt lat="49.46505" lon="1.18471">
        <ele>158</ele>
        <time>2026-05-19T15:17:21.808Z</time>
      </trkpt>
      <trkpt lat="49.46502" lon="1.18477">
        <ele>158</ele>
        <time>2026-05-19T15:17:26.069Z</time>
      </trkpt>
      <trkpt lat="49.46496" lon="1.18481">
        <ele>158</ele>
        <time>2026-05-19T15:17:30.140Z</time>
      </trkpt>
      <trkpt lat="49.4649" lon="1.1848">
        <ele>158</ele>
        <time>2026-05-19T15:17:34.346Z</time>
      </trkpt>
      <trkpt lat="49.46485" lon="1.18476">
        <ele>156</ele>
        <time>2026-05-19T15:17:38.900Z</time>
      </trkpt>
      <trkpt lat="49.4648" lon="1.18471">
        <ele>156</ele>
        <time>2026-05-19T15:17:43.128Z</time>
      </trkpt>
      <trkpt lat="49.46475" lon="1.18469">
        <ele>156</ele>
        <time>2026-05-19T15:17:47.271Z</time>
      </trkpt>
      <trkpt lat="49.46469" lon="1.18468">
        <ele>156</ele>
        <time>2026-05-19T15:17:51.352Z</time>
      </trkpt>
      <trkpt lat="49.46463" lon="1.18467">
        <ele>156</ele>
        <time>2026-05-19T15:17:55.485Z</time>
      </trkpt>
      <trkpt lat="49.46457" lon="1.18469">
        <ele>155</ele>
        <time>2026-05-19T15:17:59.628Z</time>
      </trkpt>
      <trkpt lat="49.46451" lon="1.18472">
        <ele>155</ele>
        <time>2026-05-19T15:18:03.854Z</time>
      </trkpt>
      <trkpt lat="49.46445" lon="1.18474">
        <ele>155</ele>
        <time>2026-05-19T15:18:07.892Z</time>
      </trkpt>
      <trkpt lat="49.4644" lon="1.18474">
        <ele>155</ele>
        <time>2026-05-19T15:18:12.032Z</time>
      </trkpt>
      <trkpt lat="49.46433" lon="1.18473">
        <ele>155</ele>
        <time>2026-05-19T15:18:16.187Z</time>
      </trkpt>
      <trkpt lat="49.46427" lon="1.18472">
        <ele>154</ele>
        <time>2026-05-19T15:18:20.407Z</time>
      </trkpt>
      <trkpt lat="49.46423" lon="1.18478">
        <ele>154</ele>
        <time>2026-05-19T15:18:24.627Z</time>
      </trkpt>
      <trkpt lat="49.46423" lon="1.18488">
        <ele>153</ele>
        <time>2026-05-19T15:18:28.914Z</time>
      </trkpt>
      <trkpt lat="49.46424" lon="1.18499">
        <ele>153</ele>
        <time>2026-05-19T15:18:33.270Z</time>
      </trkpt>
      <trkpt lat="49.46425" lon="1.18507">
        <ele>153</ele>
        <time>2026-05-19T15:18:37.305Z</time>
      </trkpt>
      <trkpt lat="49.46426" lon="1.18516">
        <ele>153</ele>
        <time>2026-05-19T15:18:41.640Z</time>
      </trkpt>
      <trkpt lat="49.46427" lon="1.18525">
        <ele>153</ele>
        <time>2026-05-19T15:18:45.795Z</time>
      </trkpt>
      <trkpt lat="49.46429" lon="1.18534">
        <ele>153</ele>
        <time>2026-05-19T15:18:50.534Z</time>
      </trkpt>
      <trkpt lat="49.4643" lon="1.18542">
        <ele>152</ele>
        <time>2026-05-19T15:18:54.973Z</time>
      </trkpt>
      <trkpt lat="49.46431" lon="1.18549">
        <ele>153</ele>
        <time>2026-05-19T15:18:59.594Z</time>
      </trkpt>
      <trkpt lat="49.46433" lon="1.18556">
        <ele>153</ele>
        <time>2026-05-19T15:19:03.895Z</time>
      </trkpt>
      <trkpt lat="49.46434" lon="1.18563">
        <ele>153</ele>
        <time>2026-05-19T15:19:08.664Z</time>
      </trkpt>
      <trkpt lat="49.46435" lon="1.1857">
        <ele>153</ele>
        <time>2026-05-19T15:19:12.943Z</time>
      </trkpt>
      <trkpt lat="49.46436" lon="1.18576">
        <ele>153</ele>
        <time>2026-05-19T15:19:17.496Z</time>
      </trkpt>
      <trkpt lat="49.46437" lon="1.18583">
        <ele>153</ele>
        <time>2026-05-19T15:19:21.888Z</time>
      </trkpt>
      <trkpt lat="49.46438" lon="1.18596">
        <ele>153</ele>
        <time>2026-05-19T15:19:26.523Z</time>
      </trkpt>
      <trkpt lat="49.46438" lon="1.18599">
        <ele>152</ele>
        <time>2026-05-19T15:19:30.895Z</time>
      </trkpt>
      <trkpt lat="49.46439" lon="1.18609">
        <ele>152</ele>
        <time>2026-05-19T15:19:35.558Z</time>
      </trkpt>
      <trkpt lat="49.4644" lon="1.18617">
        <ele>152</ele>
        <time>2026-05-19T15:19:39.895Z</time>
      </trkpt>
      <trkpt lat="49.46442" lon="1.18624">
        <ele>152</ele>
        <time>2026-05-19T15:19:43.894Z</time>
      </trkpt>
      <trkpt lat="49.46444" lon="1.1863">
        <ele>152</ele>
        <time>2026-05-19T15:19:48.690Z</time>
      </trkpt>
      <trkpt lat="49.46443" lon="1.18636">
        <ele>152</ele>
        <time>2026-05-19T15:19:52.726Z</time>
      </trkpt>
      <trkpt lat="49.46443" lon="1.18643">
        <ele>152</ele>
        <time>2026-05-19T15:19:57.256Z</time>
      </trkpt>
      <trkpt lat="49.46444" lon="1.18649">
        <ele>152</ele>
        <time>2026-05-19T15:20:01.853Z</time>
      </trkpt>
      <trkpt lat="49.46445" lon="1.18654">
        <ele>153</ele>
        <time>2026-05-19T15:20:05.873Z</time>
      </trkpt>
      <trkpt lat="49.46446" lon="1.18659">
        <ele>153</ele>
        <time>2026-05-19T15:20:10.413Z</time>
      </trkpt>
      <trkpt lat="49.46446" lon="1.18661">
        <ele>153</ele>
        <time>2026-05-19T15:20:14.889Z</time>
      </trkpt>
      <trkpt lat="49.46447" lon="1.18667">
        <ele>153</ele>
        <time>2026-05-19T15:20:18.907Z</time>
      </trkpt>
      <trkpt lat="49.46449" lon="1.18674">
        <ele>153</ele>
        <time>2026-05-19T15:20:23.455Z</time>
      </trkpt>
      <trkpt lat="49.4645" lon="1.1868">
        <ele>153</ele>
        <time>2026-05-19T15:20:27.891Z</time>
      </trkpt>
      <trkpt lat="49.4645" lon="1.18686">
        <ele>153</ele>
        <time>2026-05-19T15:20:32.248Z</time>
      </trkpt>
      <trkpt lat="49.46451" lon="1.18692">
        <ele>153</ele>
        <time>2026-05-19T15:20:36.725Z</time>
      </trkpt>
      <trkpt lat="49.46452" lon="1.18698">
        <ele>153</ele>
        <time>2026-05-19T15:20:40.887Z</time>
      </trkpt>
      <trkpt lat="49.46454" lon="1.18703">
        <ele>153</ele>
        <time>2026-05-19T15:21:12.186Z</time>
      </trkpt>
    </trkseg>
  </trk>
</gpx>